﻿<?xml version="1.0" encoding="UTF-8"?>
<gpx xmlns="http://www.topografix.com/GPX/1/0" xmlns:xsi="http://www.w3.org/2001/XMLSchema-instance" xsi:schemaLocation="http://www.topografix.com/GPX/1/0 http://www.topografix.com/GPX/1/0/gpx.xsd" creator="Bike Route Toaster http://www.bikeroutetoaster.com" version="1.0">
  <trk>
    <name>GF DELLA PACE _</name>
    <trkseg>
      <trkpt lat="42.9526533699711" lon="12.698392868042">
        <ele>231</ele>
        <time>2011-04-08T00:00:00Z</time>
        <course>351.141578223248</course>
        <speed>7.49435212066657</speed>
      </trkpt>
      <trkpt lat="42.95271" lon="12.69841">
        <ele>231</ele>
        <time>2011-04-08T00:00:00Z</time>
        <course>122.907982414104</course>
        <speed>7.44732587802089</speed>
      </trkpt>
      <trkpt lat="42.95267" lon="12.69829">
        <ele>231</ele>
        <time>2011-04-08T00:00:02Z</time>
        <course>173.470456892769</course>
        <speed>7.45016135953003</speed>
      </trkpt>
      <trkpt lat="42.95258" lon="12.69827">
        <ele>231</ele>
        <time>2011-04-08T00:00:03Z</time>
        <course>219.923407736205</course>
        <speed>7.46676724055826</speed>
      </trkpt>
      <trkpt lat="42.9525" lon="12.6984">
        <ele>231</ele>
        <time>2011-04-08T00:00:05Z</time>
        <course>300.219111852067</course>
        <speed>7.44894927882453</speed>
      </trkpt>
      <trkpt lat="42.95253" lon="12.6985">
        <ele>231</ele>
        <time>2011-04-08T00:00:06Z</time>
        <course>218.903820901816</course>
        <speed>7.4526008853771</speed>
      </trkpt>
      <trkpt lat="42.95181" lon="12.69963">
        <ele>232</ele>
        <time>2011-04-08T00:00:23Z</time>
        <course>224.681110974402</course>
        <speed>8.31949297012149</speed>
      </trkpt>
      <trkpt lat="42.95085" lon="12.70148">
        <ele>232</ele>
        <time>2011-04-08T00:00:45Z</time>
        <course>252.689409023766</course>
        <speed>7.30294720656407</speed>
      </trkpt>
      <trkpt lat="42.95081" lon="12.70173">
        <ele>232</ele>
        <time>2011-04-08T00:00:48Z</time>
        <course>269.98967568052</course>
        <speed>7.31475019293478</speed>
      </trkpt>
      <trkpt lat="42.95081" lon="12.70215">
        <ele>232</ele>
        <time>2011-04-08T00:00:52Z</time>
        <course>291.265960424102</course>
        <speed>7.31051994332355</speed>
      </trkpt>
      <trkpt lat="42.9509" lon="12.7026">
        <ele>232</ele>
        <time>2011-04-08T00:00:57Z</time>
        <course>308.628282178994</course>
        <speed>7.31470890227081</speed>
      </trkpt>
      <trkpt lat="42.95113" lon="12.70316">
        <ele>233</ele>
        <time>2011-04-08T00:01:05Z</time>
        <course>315.986778852956</course>
        <speed>5.70443049833981</speed>
      </trkpt>
      <trkpt lat="42.95146" lon="12.70378">
        <ele>234</ele>
        <time>2011-04-08T00:01:15Z</time>
        <course>319.268865777101</course>
        <speed>5.70338968771601</speed>
      </trkpt>
      <trkpt lat="42.95309" lon="12.7065">
        <ele>241</ele>
        <time>2011-04-08T00:02:06Z</time>
        <course>269.995826821987</course>
        <speed>8.32898027982018</speed>
      </trkpt>
      <trkpt lat="42.95309" lon="12.70667">
        <ele>240</ele>
        <time>2011-04-08T00:02:07Z</time>
        <course>204.406185028506</course>
        <speed>8.31593370826417</speed>
      </trkpt>
      <trkpt lat="42.95216" lon="12.70749">
        <ele>237</ele>
        <time>2011-04-08T00:02:22Z</time>
        <course>202.437673692404</course>
        <speed>8.31832422741617</speed>
      </trkpt>
      <trkpt lat="42.9482" lon="12.71069">
        <ele>237</ele>
        <time>2011-04-08T00:03:24Z</time>
        <course>199.811295379779</course>
        <speed>8.31898453996538</speed>
      </trkpt>
      <trkpt lat="42.94622" lon="12.71209">
        <ele>236</ele>
        <time>2011-04-08T00:03:53Z</time>
        <course>243.865935974937</course>
        <speed>8.28455077668374</speed>
      </trkpt>
      <trkpt lat="42.9462" lon="12.71217">
        <ele>236</ele>
        <time>2011-04-08T00:03:54Z</time>
        <course>202.037363651324</course>
        <speed>8.31662267005388</speed>
      </trkpt>
      <trkpt lat="42.94527" lon="12.71291">
        <ele>236</ele>
        <time>2011-04-08T00:04:09Z</time>
        <course>199.749667449272</course>
        <speed>7.20784765900474</speed>
      </trkpt>
      <trkpt lat="42.9451" lon="12.71303">
        <ele>236</ele>
        <time>2011-04-08T00:04:11Z</time>
        <course>147.558365829114</course>
        <speed>7.20083690649106</speed>
      </trkpt>
      <trkpt lat="42.94498" lon="12.71288">
        <ele>236</ele>
        <time>2011-04-08T00:04:14Z</time>
        <course>183.232992232829</course>
        <speed>7.21857879098793</speed>
      </trkpt>
      <trkpt lat="42.9448" lon="12.7129">
        <ele>236</ele>
        <time>2011-04-08T00:04:17Z</time>
        <course>203.97776443768</course>
        <speed>7.23065759709262</speed>
      </trkpt>
      <trkpt lat="42.94472" lon="12.71297">
        <ele>236</ele>
        <time>2011-04-08T00:04:18Z</time>
        <course>233.576931945728</course>
        <speed>7.20342793828133</speed>
      </trkpt>
      <trkpt lat="42.94466" lon="12.71313">
        <ele>236</ele>
        <time>2011-04-08T00:04:20Z</time>
        <course>269.994572220294</course>
        <speed>7.21575003419116</speed>
      </trkpt>
      <trkpt lat="42.94466" lon="12.71335">
        <ele>236</ele>
        <time>2011-04-08T00:04:23Z</time>
        <course>210.467675498545</course>
        <speed>7.20740228189634</speed>
      </trkpt>
      <trkpt lat="42.94447" lon="12.71357">
        <ele>237</ele>
        <time>2011-04-08T00:04:27Z</time>
        <course>202.142961083542</course>
        <speed>8.31759172203207</speed>
      </trkpt>
      <trkpt lat="42.9431" lon="12.71467">
        <ele>234</ele>
        <time>2011-04-08T00:04:48Z</time>
        <course>231.719934689323</course>
        <speed>8.35089566533842</speed>
      </trkpt>
      <trkpt lat="42.94306" lon="12.71477">
        <ele>233</ele>
        <time>2011-04-08T00:04:49Z</time>
        <course>201.998591313847</course>
        <speed>8.31851374219861</speed>
      </trkpt>
      <trkpt lat="42.93952" lon="12.71761">
        <ele>229</ele>
        <time>2011-04-08T00:05:44Z</time>
        <course>201.617536232822</course>
        <speed>8.31432273685654</speed>
      </trkpt>
      <trkpt lat="42.93905" lon="12.71798">
        <ele>229</ele>
        <time>2011-04-08T00:05:51Z</time>
        <course>193.074595244921</course>
        <speed>8.30948842231852</speed>
      </trkpt>
      <trkpt lat="42.93879" lon="12.7181">
        <ele>229</ele>
        <time>2011-04-08T00:05:55Z</time>
        <course>182.138985814187</course>
        <speed>8.31713343325723</speed>
      </trkpt>
      <trkpt lat="42.93758" lon="12.71819">
        <ele>229</ele>
        <time>2011-04-08T00:06:11Z</time>
        <course>180.296108769931</course>
        <speed>8.31708872865251</speed>
      </trkpt>
      <trkpt lat="42.93661" lon="12.7182">
        <ele>228</ele>
        <time>2011-04-08T00:06:24Z</time>
        <course>183.076505087186</course>
        <speed>8.32020299100413</speed>
      </trkpt>
      <trkpt lat="42.9354" lon="12.71833">
        <ele>227</ele>
        <time>2011-04-08T00:06:40Z</time>
        <course>195.067257641088</course>
        <speed>8.31824962296239</speed>
      </trkpt>
      <trkpt lat="42.93202" lon="12.72016">
        <ele>217</ele>
        <time>2011-04-08T00:07:29Z</time>
        <course>207.273692750737</course>
        <speed>6.63359066832254</speed>
      </trkpt>
      <trkpt lat="42.93149" lon="12.72071">
        <ele>217</ele>
        <time>2011-04-08T00:07:40Z</time>
        <course>214.247753771132</course>
        <speed>6.63629125057354</speed>
      </trkpt>
      <trkpt lat="42.92797" lon="12.72557">
        <ele>225</ele>
        <time>2011-04-08T00:09:04Z</time>
        <course>207.198459653393</course>
        <speed>8.32274703372433</speed>
      </trkpt>
      <trkpt lat="42.92749" lon="12.72607">
        <ele>225</ele>
        <time>2011-04-08T00:09:12Z</time>
        <course>186.199951215328</course>
        <speed>8.3179686342565</speed>
      </trkpt>
      <trkpt lat="42.92595" lon="12.72641">
        <ele>225</ele>
        <time>2011-04-08T00:09:32Z</time>
        <course>184.908655067277</course>
        <speed>8.31939798743995</speed>
      </trkpt>
      <trkpt lat="42.92327" lon="12.72688">
        <ele>224</ele>
        <time>2011-04-08T00:10:09Z</time>
        <course>182.546632016827</course>
        <speed>8.32218341410851</speed>
      </trkpt>
      <trkpt lat="42.92272" lon="12.72693">
        <ele>223</ele>
        <time>2011-04-08T00:10:16Z</time>
        <course>180</course>
        <speed>8.30434163714483</speed>
      </trkpt>
      <trkpt lat="42.92251" lon="12.72693">
        <ele>223</ele>
        <time>2011-04-08T00:10:19Z</time>
        <course>185.691954209801</course>
        <speed>8.31893902129616</speed>
      </trkpt>
      <trkpt lat="42.91963" lon="12.72752">
        <ele>222</ele>
        <time>2011-04-08T00:10:58Z</time>
        <course>183.877846025766</course>
        <speed>8.31695359234446</speed>
      </trkpt>
      <trkpt lat="42.91877" lon="12.72764">
        <ele>222</ele>
        <time>2011-04-08T00:11:09Z</time>
        <course>186.072886845112</course>
        <speed>8.31754101130256</speed>
      </trkpt>
      <trkpt lat="42.91627" lon="12.72819">
        <ele>222</ele>
        <time>2011-04-08T00:11:43Z</time>
        <course>184.128129872193</course>
        <speed>8.31774904834994</speed>
      </trkpt>
      <trkpt lat="42.9152" lon="12.72835">
        <ele>222</ele>
        <time>2011-04-08T00:11:57Z</time>
        <course>178.466494766209</course>
        <speed>8.32009512538526</speed>
      </trkpt>
      <trkpt lat="42.9143" lon="12.7283">
        <ele>221</ele>
        <time>2011-04-08T00:12:09Z</time>
        <course>173.663584110212</course>
        <speed>8.31625129135159</speed>
      </trkpt>
      <trkpt lat="42.91352" lon="12.72812">
        <ele>221</ele>
        <time>2011-04-08T00:12:20Z</time>
        <course>169.872944397761</course>
        <speed>8.31037411505096</speed>
      </trkpt>
      <trkpt lat="42.91317" lon="12.72799">
        <ele>221</ele>
        <time>2011-04-08T00:12:25Z</time>
        <course>162.682194133056</course>
        <speed>8.3183168087161</speed>
      </trkpt>
      <trkpt lat="42.9124" lon="12.72749">
        <ele>216</ele>
        <time>2011-04-08T00:12:36Z</time>
        <course>155.923202426263</course>
        <speed>8.31633089825091</speed>
      </trkpt>
      <trkpt lat="42.91211" lon="12.72722">
        <ele>215</ele>
        <time>2011-04-08T00:12:41Z</time>
        <course>147.737283938922</course>
        <speed>8.32979118122963</speed>
      </trkpt>
      <trkpt lat="42.91192" lon="12.72697">
        <ele>214</ele>
        <time>2011-04-08T00:12:44Z</time>
        <course>139.082843890048</course>
        <speed>8.32215365807735</speed>
      </trkpt>
      <trkpt lat="42.91166" lon="12.7265">
        <ele>213</ele>
        <time>2011-04-08T00:12:50Z</time>
        <course>132.853059739489</course>
        <speed>8.31822751124256</speed>
      </trkpt>
      <trkpt lat="42.9113" lon="12.72569">
        <ele>212</ele>
        <time>2011-04-08T00:12:59Z</time>
        <course>156.022108314873</course>
        <speed>6.07871727526626</speed>
      </trkpt>
      <trkpt lat="42.91102" lon="12.72543">
        <ele>212</ele>
        <time>2011-04-08T00:13:06Z</time>
        <course>234.965445368672</course>
        <speed>6.07777830944283</speed>
      </trkpt>
      <trkpt lat="42.91035" lon="12.72743">
        <ele>216</ele>
        <time>2011-04-08T00:13:35Z</time>
        <course>250.783038238638</course>
        <speed>7.05355911327943</speed>
      </trkpt>
      <trkpt lat="42.91029" lon="12.72779">
        <ele>216</ele>
        <time>2011-04-08T00:13:39Z</time>
        <course>216.647868551781</course>
        <speed>7.05141728993239</speed>
      </trkpt>
      <trkpt lat="42.9102" lon="12.72793">
        <ele>216</ele>
        <time>2011-04-08T00:13:42Z</time>
        <course>271.439949504885</course>
        <speed>7.06310461363852</speed>
      </trkpt>
      <trkpt lat="42.91021" lon="12.72875">
        <ele>217</ele>
        <time>2011-04-08T00:13:51Z</time>
        <course>286.866082323666</course>
        <speed>8.32382057706068</speed>
      </trkpt>
      <trkpt lat="42.9103" lon="12.72937">
        <ele>217</ele>
        <time>2011-04-08T00:13:57Z</time>
        <course>197.288221813007</course>
        <speed>8.32352091493051</speed>
      </trkpt>
      <trkpt lat="42.90987" lon="12.72965">
        <ele>217</ele>
        <time>2011-04-08T00:14:04Z</time>
        <course>183.759807564721</course>
        <speed>8.31909849020543</speed>
      </trkpt>
      <trkpt lat="42.90712" lon="12.73003">
        <ele>217</ele>
        <time>2011-04-08T00:14:40Z</time>
        <course>181.133694544944</course>
        <speed>8.32054587856594</speed>
      </trkpt>
      <trkpt lat="42.9064" lon="12.73006">
        <ele>216</ele>
        <time>2011-04-08T00:14:50Z</time>
        <course>179.352621708167</course>
        <speed>8.32040940093118</speed>
      </trkpt>
      <trkpt lat="42.90598" lon="12.73005">
        <ele>216</ele>
        <time>2011-04-08T00:14:56Z</time>
        <course>176.388783373392</course>
        <speed>6.099845956298</speed>
      </trkpt>
      <trkpt lat="42.89959" lon="12.72919">
        <ele>229</ele>
        <time>2011-04-08T00:16:53Z</time>
        <course>181.43754885748</course>
        <speed>6.61797012647443</speed>
      </trkpt>
      <trkpt lat="42.89903" lon="12.72922">
        <ele>229</ele>
        <time>2011-04-08T00:17:02Z</time>
        <course>185.092572296109</course>
        <speed>6.61536547354981</speed>
      </trkpt>
      <trkpt lat="42.89751" lon="12.72951">
        <ele>232</ele>
        <time>2011-04-08T00:17:28Z</time>
        <course>185.786270530086</course>
        <speed>8.31696254886676</speed>
      </trkpt>
      <trkpt lat="42.89581" lon="12.72988">
        <ele>231</ele>
        <time>2011-04-08T00:17:51Z</time>
        <course>186.884829424176</course>
        <speed>8.31824212796198</speed>
      </trkpt>
      <trkpt lat="42.88866" lon="12.73176">
        <ele>224</ele>
        <time>2011-04-08T00:19:28Z</time>
        <course>190.174320182267</course>
        <speed>8.31717872777639</speed>
      </trkpt>
      <trkpt lat="42.88797" lon="12.73203">
        <ele>222</ele>
        <time>2011-04-08T00:19:38Z</time>
        <course>198.197025957171</course>
        <speed>8.31788989091072</speed>
      </trkpt>
      <trkpt lat="42.88543" lon="12.73386">
        <ele>218</ele>
        <time>2011-04-08T00:20:16Z</time>
        <course>201.163133954379</course>
        <speed>8.31898978216348</speed>
      </trkpt>
      <trkpt lat="42.88149" lon="12.73723">
        <ele>215</ele>
        <time>2011-04-08T00:21:18Z</time>
        <course>183.984527664612</course>
        <speed>7.379239883177</speed>
      </trkpt>
      <trkpt lat="42.88136" lon="12.73725">
        <ele>215</ele>
        <time>2011-04-08T00:21:20Z</time>
        <course>202.658957605762</course>
        <speed>7.38194345103982</speed>
      </trkpt>
      <trkpt lat="42.88084" lon="12.73773">
        <ele>215</ele>
        <time>2011-04-08T00:21:30Z</time>
        <course>194.530844343853</course>
        <speed>7.38259648591444</speed>
      </trkpt>
      <trkpt lat="42.88023" lon="12.73808">
        <ele>216</ele>
        <time>2011-04-08T00:21:40Z</time>
        <course>208.899985806212</course>
        <speed>7.8054783361336</speed>
      </trkpt>
      <trkpt lat="42.88014" lon="12.73819">
        <ele>216</ele>
        <time>2011-04-08T00:21:41Z</time>
        <course>185.645533468083</course>
        <speed>7.79479848870306</speed>
      </trkpt>
      <trkpt lat="42.87941" lon="12.73835">
        <ele>216</ele>
        <time>2011-04-08T00:21:52Z</time>
        <course>181.333647928812</course>
        <speed>7.79356146588991</speed>
      </trkpt>
      <trkpt lat="42.86694" lon="12.73901">
        <ele>221</ele>
        <time>2011-04-08T00:24:50Z</time>
        <course>185.023856593365</course>
        <speed>6.70778717758522</speed>
      </trkpt>
      <trkpt lat="42.86659" lon="12.73908">
        <ele>221</ele>
        <time>2011-04-08T00:24:56Z</time>
        <course>181.103193815791</course>
        <speed>6.71293687263595</speed>
      </trkpt>
      <trkpt lat="42.86319" lon="12.73923">
        <ele>226</ele>
        <time>2011-04-08T00:25:52Z</time>
        <course>181.884713356356</course>
        <speed>8.3192730056133</speed>
      </trkpt>
      <trkpt lat="42.86266" lon="12.73927">
        <ele>226</ele>
        <time>2011-04-08T00:25:59Z</time>
        <course>185.333057322555</course>
        <speed>8.3173570043726</speed>
      </trkpt>
      <trkpt lat="42.86224" lon="12.73936">
        <ele>226</ele>
        <time>2011-04-08T00:26:05Z</time>
        <course>190.94754491592</course>
        <speed>8.32128970731112</speed>
      </trkpt>
      <trkpt lat="42.86179" lon="12.73956">
        <ele>224</ele>
        <time>2011-04-08T00:26:11Z</time>
        <course>200.066488262048</course>
        <speed>8.31562758539266</speed>
      </trkpt>
      <trkpt lat="42.8611" lon="12.74014">
        <ele>223</ele>
        <time>2011-04-08T00:26:22Z</time>
        <course>206.319485482608</course>
        <speed>8.31871306155605</speed>
      </trkpt>
      <trkpt lat="42.85726" lon="12.74455">
        <ele>221</ele>
        <time>2011-04-08T00:27:29Z</time>
        <course>202.85059883912</course>
        <speed>8.31676491448498</speed>
      </trkpt>
      <trkpt lat="42.85628" lon="12.74551">
        <ele>218</ele>
        <time>2011-04-08T00:27:45Z</time>
        <course>200.223576088997</course>
        <speed>6.7399066301405</speed>
      </trkpt>
      <trkpt lat="42.85239" lon="12.74887">
        <ele>224</ele>
        <time>2011-04-08T00:29:01Z</time>
        <course>197.254585897583</course>
        <speed>8.31722171414725</speed>
      </trkpt>
      <trkpt lat="42.85072" lon="12.75009">
        <ele>224</ele>
        <time>2011-04-08T00:29:26Z</time>
        <course>175.946620675704</course>
        <speed>7.22235054769455</speed>
      </trkpt>
      <trkpt lat="42.85066" lon="12.75008">
        <ele>224</ele>
        <time>2011-04-08T00:29:27Z</time>
        <course>195.025235279904</course>
        <speed>7.24804720316697</speed>
      </trkpt>
      <trkpt lat="42.85047" lon="12.7502">
        <ele>224</ele>
        <time>2011-04-08T00:29:30Z</time>
        <course>201.655531997257</course>
        <speed>7.2492629463806</speed>
      </trkpt>
      <trkpt lat="42.84969" lon="12.75093">
        <ele>225</ele>
        <time>2011-04-08T00:29:45Z</time>
        <course>208.681656680666</course>
        <speed>8.31901418140293</speed>
      </trkpt>
      <trkpt lat="42.84938" lon="12.75133">
        <ele>224</ele>
        <time>2011-04-08T00:29:51Z</time>
        <course>212.685931828963</course>
        <speed>8.31751507373195</speed>
      </trkpt>
      <trkpt lat="42.84803" lon="12.75338">
        <ele>221</ele>
        <time>2011-04-08T00:30:18Z</time>
        <course>207.837762307029</course>
        <speed>7.15612075150832</speed>
      </trkpt>
      <trkpt lat="42.84771" lon="12.75378">
        <ele>221</ele>
        <time>2011-04-08T00:30:24Z</time>
        <course>201.40884606028</course>
        <speed>7.15580502036376</speed>
      </trkpt>
      <trkpt lat="42.84743" lon="12.75404">
        <ele>221</ele>
        <time>2011-04-08T00:30:30Z</time>
        <course>195.712005538113</course>
        <speed>7.16312889125638</speed>
      </trkpt>
      <trkpt lat="42.84713" lon="12.75424">
        <ele>222</ele>
        <time>2011-04-08T00:30:35Z</time>
        <course>190.620827532991</course>
        <speed>5.67457363094881</speed>
      </trkpt>
      <trkpt lat="42.84603" lon="12.75473">
        <ele>225</ele>
        <time>2011-04-08T00:30:57Z</time>
        <course>187.420675500135</course>
        <speed>6.32074967613676</speed>
      </trkpt>
      <trkpt lat="42.84532" lon="12.75495">
        <ele>226</ele>
        <time>2011-04-08T00:31:10Z</time>
        <course>192.728392298284</course>
        <speed>6.32060902660764</speed>
      </trkpt>
      <trkpt lat="42.84441" lon="12.75544">
        <ele>228</ele>
        <time>2011-04-08T00:31:27Z</time>
        <course>198.489081431264</course>
        <speed>5.99537533564069</speed>
      </trkpt>
      <trkpt lat="42.84281" lon="12.75672">
        <ele>232</ele>
        <time>2011-04-08T00:32:02Z</time>
        <course>199.948788452224</course>
        <speed>5.43342457029089</speed>
      </trkpt>
      <trkpt lat="42.84053" lon="12.75871">
        <ele>240</ele>
        <time>2011-04-08T00:32:57Z</time>
        <course>195.94906842819</course>
        <speed>8.31337638384509</speed>
      </trkpt>
      <trkpt lat="42.84021" lon="12.75893">
        <ele>238</ele>
        <time>2011-04-08T00:33:02Z</time>
        <course>190.096980685802</course>
        <speed>8.31983023418882</speed>
      </trkpt>
      <trkpt lat="42.84" lon="12.75902">
        <ele>237</ele>
        <time>2011-04-08T00:33:05Z</time>
        <course>184.120641961741</course>
        <speed>8.3200998268701</speed>
      </trkpt>
      <trkpt lat="42.83862" lon="12.75926">
        <ele>230</ele>
        <time>2011-04-08T00:33:23Z</time>
        <course>185.798053418779</course>
        <speed>8.31671522052992</speed>
      </trkpt>
      <trkpt lat="42.83744" lon="12.75955">
        <ele>229</ele>
        <time>2011-04-08T00:33:39Z</time>
        <course>194.74738831844</course>
        <speed>7.115263673146</speed>
      </trkpt>
      <trkpt lat="42.83686" lon="12.75992">
        <ele>229</ele>
        <time>2011-04-08T00:33:49Z</time>
        <course>205.489418955296</course>
        <speed>7.11745151178423</speed>
      </trkpt>
      <trkpt lat="42.83654" lon="12.76029">
        <ele>230</ele>
        <time>2011-04-08T00:33:56Z</time>
        <course>214.182267353094</course>
        <speed>7.67927580455199</speed>
      </trkpt>
      <trkpt lat="42.83617" lon="12.7609">
        <ele>230</ele>
        <time>2011-04-08T00:34:04Z</time>
        <course>230.102927052107</course>
        <speed>7.67932359776289</speed>
      </trkpt>
      <trkpt lat="42.8355" lon="12.76285">
        <ele>231</ele>
        <time>2011-04-08T00:34:27Z</time>
        <course>232.557170820963</course>
        <speed>8.31788618873757</speed>
      </trkpt>
      <trkpt lat="42.83474" lon="12.76527">
        <ele>229</ele>
        <time>2011-04-08T00:34:53Z</time>
        <course>228.986861947186</course>
        <speed>8.31933491743529</speed>
      </trkpt>
      <trkpt lat="42.83428" lon="12.76656">
        <ele>228</ele>
        <time>2011-04-08T00:35:07Z</time>
        <course>225.868865245287</course>
        <speed>3.9454053728053</speed>
      </trkpt>
      <trkpt lat="42.83395" lon="12.76739">
        <ele>232</ele>
        <time>2011-04-08T00:35:27Z</time>
        <course>213.488622065023</course>
        <speed>3.94499151250291</speed>
      </trkpt>
      <trkpt lat="42.83356" lon="12.76802">
        <ele>236</ele>
        <time>2011-04-08T00:35:44Z</time>
        <course>200.9939788762</course>
        <speed>8.31429843211921</speed>
      </trkpt>
      <trkpt lat="42.83324" lon="12.76832">
        <ele>234</ele>
        <time>2011-04-08T00:35:49Z</time>
        <course>188.401850269689</course>
        <speed>8.32637855550735</speed>
      </trkpt>
      <trkpt lat="42.83288" lon="12.76845">
        <ele>233</ele>
        <time>2011-04-08T00:35:54Z</time>
        <course>182.436839806016</course>
        <speed>8.31873560612846</speed>
      </trkpt>
      <trkpt lat="42.83011" lon="12.76874">
        <ele>226</ele>
        <time>2011-04-08T00:36:31Z</time>
        <course>248.017947888427</course>
        <speed>4.76940163501543</speed>
      </trkpt>
      <trkpt lat="42.83001" lon="12.76935">
        <ele>227</ele>
        <time>2011-04-08T00:36:42Z</time>
        <course>216.443703999758</course>
        <speed>4.77113449394027</speed>
      </trkpt>
      <trkpt lat="42.82979" lon="12.76975">
        <ele>229</ele>
        <time>2011-04-08T00:36:50Z</time>
        <course>198.695895830159</course>
        <speed>4.76446566441909</speed>
      </trkpt>
      <trkpt lat="42.82967" lon="12.76985">
        <ele>230</ele>
        <time>2011-04-08T00:36:53Z</time>
        <course>187.578006014173</course>
        <speed>6.28520795890449</speed>
      </trkpt>
      <trkpt lat="42.82697" lon="12.77074">
        <ele>235</ele>
        <time>2011-04-08T00:37:42Z</time>
        <course>199.378721713803</course>
        <speed>3.83300822161288</speed>
      </trkpt>
      <trkpt lat="42.82529" lon="12.77221">
        <ele>248</ele>
        <time>2011-04-08T00:38:40Z</time>
        <course>200.447947854742</course>
        <speed>3.80141368555516</speed>
      </trkpt>
      <trkpt lat="42.82155" lon="12.77571">
        <ele>278</ele>
        <time>2011-04-08T00:40:53Z</time>
        <course>205.410429393174</course>
        <speed>3.88975013733681</speed>
      </trkpt>
      <trkpt lat="42.82093" lon="12.77645">
        <ele>283</ele>
        <time>2011-04-08T00:41:17Z</time>
        <course>183.254345558521</course>
        <speed>3.89103727904684</speed>
      </trkpt>
      <trkpt lat="42.82086" lon="12.77646">
        <ele>283</ele>
        <time>2011-04-08T00:41:19Z</time>
        <course>152.054671970956</course>
        <speed>3.89215383027215</speed>
      </trkpt>
      <trkpt lat="42.82071" lon="12.77626">
        <ele>285</ele>
        <time>2011-04-08T00:41:25Z</time>
        <course>212.963026559391</course>
        <speed>5.35388947424892</speed>
      </trkpt>
      <trkpt lat="42.82033" lon="12.77688">
        <ele>286</ele>
        <time>2011-04-08T00:41:37Z</time>
        <course>223.206772746851</course>
        <speed>5.353147253772</speed>
      </trkpt>
      <trkpt lat="42.82022" lon="12.77714">
        <ele>287</ele>
        <time>2011-04-08T00:41:41Z</time>
        <course>357.990013543662</course>
        <speed>5.35499886577093</speed>
      </trkpt>
      <trkpt lat="42.82056" lon="12.77717">
        <ele>288</ele>
        <time>2011-04-08T00:41:48Z</time>
        <course>44.0146807657537</course>
        <speed>5.35012177430507</speed>
      </trkpt>
      <trkpt lat="42.82063" lon="12.777">
        <ele>289</ele>
        <time>2011-04-08T00:41:51Z</time>
        <course>44.0146807657537</course>
        <speed>5.35012177430507</speed>
      </trkpt>
      <trkpt lat="42.82063" lon="12.777">
        <ele>289</ele>
        <time>2011-04-08T00:41:52Z</time>
        <course>357.845486255193</course>
        <speed>8.32056743451531</speed>
      </trkpt>
      <trkpt lat="42.82169" lon="12.7771">
        <ele>282</ele>
        <time>2011-04-08T00:42:07Z</time>
        <course>1.01643642001674</course>
        <speed>8.32455272747954</speed>
      </trkpt>
      <trkpt lat="42.82214" lon="12.77708">
        <ele>281</ele>
        <time>2011-04-08T00:42:13Z</time>
        <course>141.877494865328</course>
        <speed>8.31892920227194</speed>
      </trkpt>
      <trkpt lat="42.82148" lon="12.77578">
        <ele>279</ele>
        <time>2011-04-08T00:42:28Z</time>
        <course>205.867288449881</course>
        <speed>3.73556785636526</speed>
      </trkpt>
      <trkpt lat="42.82093" lon="12.77645">
        <ele>284</ele>
        <time>2011-04-08T00:42:50Z</time>
        <course>183.254345558521</course>
        <speed>3.74209805305462</speed>
      </trkpt>
      <trkpt lat="42.82086" lon="12.77646">
        <ele>284</ele>
        <time>2011-04-08T00:42:52Z</time>
        <course>152.054671970956</course>
        <speed>3.73621818002086</speed>
      </trkpt>
      <trkpt lat="42.82071" lon="12.77626">
        <ele>285</ele>
        <time>2011-04-08T00:42:58Z</time>
        <course>212.963026559391</course>
        <speed>3.73527172622018</speed>
      </trkpt>
      <trkpt lat="42.82033" lon="12.77688">
        <ele>290</ele>
        <time>2011-04-08T00:43:16Z</time>
        <course>223.96557789687</course>
        <speed>4.32085406150576</speed>
      </trkpt>
      <trkpt lat="42.82005" lon="12.77756">
        <ele>292</ele>
        <time>2011-04-08T00:43:31Z</time>
        <course>203.854175863657</course>
        <speed>4.32171497937952</speed>
      </trkpt>
      <trkpt lat="42.81944" lon="12.77824">
        <ele>297</ele>
        <time>2011-04-08T00:43:51Z</time>
        <course>200.550781832071</course>
        <speed>3.69781007785365</speed>
      </trkpt>
      <trkpt lat="42.81767" lon="12.77992">
        <ele>312</ele>
        <time>2011-04-08T00:44:56Z</time>
        <course>202.567638616674</course>
        <speed>3.99619478868224</speed>
      </trkpt>
      <trkpt lat="42.81675" lon="12.78089">
        <ele>319</ele>
        <time>2011-04-08T00:45:28Z</time>
        <course>208.880086084168</course>
        <speed>3.53324560068828</speed>
      </trkpt>
      <trkpt lat="42.8165" lon="12.78124">
        <ele>321</ele>
        <time>2011-04-08T00:45:39Z</time>
        <course>221.454757797615</course>
        <speed>3.53242074194044</speed>
      </trkpt>
      <trkpt lat="42.81538" lon="12.78376">
        <ele>338</ele>
        <time>2011-04-08T00:46:47Z</time>
        <course>239.39201576899</course>
        <speed>3.51397682806419</speed>
      </trkpt>
      <trkpt lat="42.81512" lon="12.78488">
        <ele>344</ele>
        <time>2011-04-08T00:47:15Z</time>
        <course>213.199082560884</course>
        <speed>3.51606693795402</speed>
      </trkpt>
      <trkpt lat="42.815" lon="12.78508">
        <ele>346</ele>
        <time>2011-04-08T00:47:21Z</time>
        <course>205.06631160999</course>
        <speed>4.15434365967497</speed>
      </trkpt>
      <trkpt lat="42.81443" lon="12.78576">
        <ele>350</ele>
        <time>2011-04-08T00:47:41Z</time>
        <course>227.511455294078</course>
        <speed>4.15404420922974</speed>
      </trkpt>
      <trkpt lat="42.81429" lon="12.78615">
        <ele>352</ele>
        <time>2011-04-08T00:47:49Z</time>
        <course>256.936740783842</course>
        <speed>3.23257569809181</speed>
      </trkpt>
      <trkpt lat="42.81427" lon="12.78637">
        <ele>353</ele>
        <time>2011-04-08T00:47:55Z</time>
        <course>283.526762268615</course>
        <speed>3.23420349939668</speed>
      </trkpt>
      <trkpt lat="42.81441" lon="12.78785">
        <ele>363</ele>
        <time>2011-04-08T00:48:33Z</time>
        <course>297.859434931436</course>
        <speed>3.78564371642227</speed>
      </trkpt>
      <trkpt lat="42.81463" lon="12.78891">
        <ele>368</ele>
        <time>2011-04-08T00:48:56Z</time>
        <course>289.238876220194</course>
        <speed>3.78516345944727</speed>
      </trkpt>
      <trkpt lat="42.81484" lon="12.79044">
        <ele>376</ele>
        <time>2011-04-08T00:49:30Z</time>
        <course>313.447364011993</course>
        <speed>3.06610579368172</speed>
      </trkpt>
      <trkpt lat="42.81541" lon="12.79197">
        <ele>388</ele>
        <time>2011-04-08T00:50:15Z</time>
        <course>329.644913061826</course>
        <speed>3.59647081574562</speed>
      </trkpt>
      <trkpt lat="42.81584" lon="12.79261">
        <ele>392</ele>
        <time>2011-04-08T00:50:35Z</time>
        <course>316.928409953859</course>
        <speed>3.59659280807022</speed>
      </trkpt>
      <trkpt lat="42.816" lon="12.79299">
        <ele>395</ele>
        <time>2011-04-08T00:50:45Z</time>
        <course>297.938529980303</course>
        <speed>4.00375820933361</speed>
      </trkpt>
      <trkpt lat="42.81632" lon="12.79452">
        <ele>402</ele>
        <time>2011-04-08T00:51:17Z</time>
        <course>308.285963701315</course>
        <speed>3.25904355655805</speed>
      </trkpt>
      <trkpt lat="42.81665" lon="12.79558">
        <ele>409</ele>
        <time>2011-04-08T00:51:46Z</time>
        <course>315.964186919503</course>
        <speed>3.25991767739359</speed>
      </trkpt>
      <trkpt lat="42.81714" lon="12.79678">
        <ele>418</ele>
        <time>2011-04-08T00:52:21Z</time>
        <course>325.806440127417</course>
        <speed>3.04697177252505</speed>
      </trkpt>
      <trkpt lat="42.81785" lon="12.798">
        <ele>429</ele>
        <time>2011-04-08T00:53:02Z</time>
        <course>339.915611300721</course>
        <speed>3.5217668733086</speed>
      </trkpt>
      <trkpt lat="42.81938" lon="12.79941">
        <ele>443</ele>
        <time>2011-04-08T00:54:01Z</time>
        <course>343.188069630874</course>
        <speed>3.17789660435787</speed>
      </trkpt>
      <trkpt lat="42.81984" lon="12.79976">
        <ele>447</ele>
        <time>2011-04-08T00:54:19Z</time>
        <course>350.659031538368</course>
        <speed>3.17700688569052</speed>
      </trkpt>
      <trkpt lat="42.82178" lon="12.80056">
        <ele>466</ele>
        <time>2011-04-08T00:55:30Z</time>
        <course>355.85001973359</course>
        <speed>8.33203529234344</speed>
      </trkpt>
      <trkpt lat="42.822" lon="12.8006">
        <ele>465</ele>
        <time>2011-04-08T00:55:33Z</time>
        <course>9.7993570689589</course>
        <speed>8.31077117010464</speed>
      </trkpt>
      <trkpt lat="42.82237" lon="12.80044">
        <ele>464</ele>
        <time>2011-04-08T00:55:38Z</time>
        <course>23.2807644437059</course>
        <speed>8.32962022479264</speed>
      </trkpt>
      <trkpt lat="42.8225" lon="12.8003">
        <ele>464</ele>
        <time>2011-04-08T00:55:40Z</time>
        <course>38.6410160484004</course>
        <speed>8.32185176440639</speed>
      </trkpt>
      <trkpt lat="42.82267" lon="12.79996">
        <ele>464</ele>
        <time>2011-04-08T00:55:44Z</time>
        <course>68.3083840283348</course>
        <speed>3.35725801651595</speed>
      </trkpt>
      <trkpt lat="42.82274" lon="12.79952">
        <ele>466</ele>
        <time>2011-04-08T00:55:55Z</time>
        <course>116.030555977307</course>
        <speed>3.35709843632729</speed>
      </trkpt>
      <trkpt lat="42.82266" lon="12.79911">
        <ele>469</ele>
        <time>2011-04-08T00:56:05Z</time>
        <course>134.402881105011</course>
        <speed>3.35646488792903</speed>
      </trkpt>
      <trkpt lat="42.82257" lon="12.79888">
        <ele>470</ele>
        <time>2011-04-08T00:56:12Z</time>
        <course>155.330916541884</course>
        <speed>3.35728441227635</speed>
      </trkpt>
      <trkpt lat="42.82237" lon="12.79865">
        <ele>473</ele>
        <time>2011-04-08T00:56:20Z</time>
        <course>164.690414794158</course>
        <speed>8.32145201588238</speed>
      </trkpt>
      <trkpt lat="42.82154" lon="12.79808">
        <ele>468</ele>
        <time>2011-04-08T00:56:33Z</time>
        <course>159.377108098372</course>
        <speed>7.53310572546737</speed>
      </trkpt>
      <trkpt lat="42.82136" lon="12.79791">
        <ele>468</ele>
        <time>2011-04-08T00:56:36Z</time>
        <course>151.473090925053</course>
        <speed>7.5329765536269</speed>
      </trkpt>
      <trkpt lat="42.8203" lon="12.79646">
        <ele>469</ele>
        <time>2011-04-08T00:56:58Z</time>
        <course>117.307759667751</course>
        <speed>2.64476990132607</speed>
      </trkpt>
      <trkpt lat="42.82022" lon="12.79607">
        <ele>472</ele>
        <time>2011-04-08T00:57:11Z</time>
        <course>73.348820736942</course>
        <speed>2.64431514423049</speed>
      </trkpt>
      <trkpt lat="42.82032" lon="12.79523">
        <ele>480</ele>
        <time>2011-04-08T00:57:37Z</time>
        <course>56.2568261451087</course>
        <speed>3.47650258474903</speed>
      </trkpt>
      <trkpt lat="42.82053" lon="12.79444">
        <ele>484</ele>
        <time>2011-04-08T00:57:57Z</time>
        <course>34.9480008894132</course>
        <speed>3.47760481666433</speed>
      </trkpt>
      <trkpt lat="42.82134" lon="12.79302">
        <ele>495</ele>
        <time>2011-04-08T00:58:39Z</time>
        <course>77.1631109656553</course>
        <speed>8.3186275965169</speed>
      </trkpt>
      <trkpt lat="42.82139" lon="12.79247">
        <ele>494</ele>
        <time>2011-04-08T00:58:44Z</time>
        <course>94.8146620809586</course>
        <speed>8.32040042406919</speed>
      </trkpt>
      <trkpt lat="42.82132" lon="12.79036">
        <ele>493</ele>
        <time>2011-04-08T00:59:05Z</time>
        <course>68.5968519312247</course>
        <speed>4.45927753768947</speed>
      </trkpt>
      <trkpt lat="42.82137" lon="12.79004">
        <ele>494</ele>
        <time>2011-04-08T00:59:11Z</time>
        <course>46.7456034713903</course>
        <speed>4.46528488845527</speed>
      </trkpt>
      <trkpt lat="42.82143" lon="12.78988">
        <ele>494</ele>
        <time>2011-04-08T00:59:14Z</time>
        <course>28.8405694990948</course>
        <speed>4.46429877153937</speed>
      </trkpt>
      <trkpt lat="42.82164" lon="12.78959">
        <ele>496</ele>
        <time>2011-04-08T00:59:22Z</time>
        <course>21.1508304758219</course>
        <speed>4.46247972926544</speed>
      </trkpt>
      <trkpt lat="42.82228" lon="12.78897">
        <ele>500</ele>
        <time>2011-04-08T00:59:41Z</time>
        <course>36.5775326952265</course>
        <speed>4.70548715862141</speed>
      </trkpt>
      <trkpt lat="42.82249" lon="12.78858">
        <ele>501</ele>
        <time>2011-04-08T00:59:50Z</time>
        <course>57.2451167566339</course>
        <speed>4.70110612971172</speed>
      </trkpt>
      <trkpt lat="42.82258" lon="12.78823">
        <ele>502</ele>
        <time>2011-04-08T00:59:56Z</time>
        <course>80.7010959365634</course>
        <speed>4.70239284508926</speed>
      </trkpt>
      <trkpt lat="42.82267" lon="12.78686">
        <ele>507</ele>
        <time>2011-04-08T01:00:20Z</time>
        <course>50.1797463118791</course>
        <speed>3.06689327070646</speed>
      </trkpt>
      <trkpt lat="42.82274" lon="12.78665">
        <ele>508</ele>
        <time>2011-04-08T01:00:26Z</time>
        <course>25.009617631671</course>
        <speed>3.06817311164297</speed>
      </trkpt>
      <trkpt lat="42.82286" lon="12.78651">
        <ele>510</ele>
        <time>2011-04-08T01:00:32Z</time>
        <course>6.71004260337426</course>
        <speed>3.06745191564828</speed>
      </trkpt>
      <trkpt lat="42.82303" lon="12.78646">
        <ele>511</ele>
        <time>2011-04-08T01:00:38Z</time>
        <course>349.605172863188</course>
        <speed>3.06819763867374</speed>
      </trkpt>
      <trkpt lat="42.82327" lon="12.78657">
        <ele>514</ele>
        <time>2011-04-08T01:00:47Z</time>
        <course>310.175851999108</course>
        <speed>3.06837604900108</speed>
      </trkpt>
      <trkpt lat="42.8235" lon="12.78725">
        <ele>519</ele>
        <time>2011-04-08T01:01:07Z</time>
        <course>328.240398471141</course>
        <speed>3.06914730258495</speed>
      </trkpt>
      <trkpt lat="42.82361" lon="12.78742">
        <ele>521</ele>
        <time>2011-04-08T01:01:13Z</time>
        <course>343.903837568415</course>
        <speed>6.2456508498173</speed>
      </trkpt>
      <trkpt lat="42.82386" lon="12.7876">
        <ele>521</ele>
        <time>2011-04-08T01:01:18Z</time>
        <course>351.944833278946</course>
        <speed>6.24383864830485</speed>
      </trkpt>
      <trkpt lat="42.82568" lon="12.78824">
        <ele>525</ele>
        <time>2011-04-08T01:01:52Z</time>
        <course>348.614679762496</course>
        <speed>3.46513360758179</speed>
      </trkpt>
      <trkpt lat="42.826" lon="12.7884">
        <ele>527</ele>
        <time>2011-04-08T01:02:02Z</time>
        <course>344.478325564368</course>
        <speed>3.4668275171651</speed>
      </trkpt>
      <trkpt lat="42.82645" lon="12.78871">
        <ele>531</ele>
        <time>2011-04-08T01:02:19Z</time>
        <course>336.939969983837</course>
        <speed>3.46622625670634</speed>
      </trkpt>
      <trkpt lat="42.827" lon="12.78929">
        <ele>537</ele>
        <time>2011-04-08T01:02:41Z</time>
        <course>329.228280230637</course>
        <speed>1.97383180921304</speed>
      </trkpt>
      <trkpt lat="42.82738" lon="12.78985">
        <ele>547</ele>
        <time>2011-04-08T01:03:12Z</time>
        <course>320.740846986358</course>
        <speed>1.97390865350549</speed>
      </trkpt>
      <trkpt lat="42.82788" lon="12.79086">
        <ele>563</ele>
        <time>2011-04-08T01:04:03Z</time>
        <course>335.008951746988</course>
        <speed>5.39895606569361</speed>
      </trkpt>
      <trkpt lat="42.82821" lon="12.79124">
        <ele>564</ele>
        <time>2011-04-08T01:04:12Z</time>
        <course>296.292132447269</course>
        <speed>5.41479617242005</speed>
      </trkpt>
      <trkpt lat="42.82823" lon="12.79134">
        <ele>564</ele>
        <time>2011-04-08T01:04:13Z</time>
        <course>222.321618908078</course>
        <speed>5.39385502300966</speed>
      </trkpt>
      <trkpt lat="42.82819" lon="12.79143">
        <ele>564</ele>
        <time>2011-04-08T01:04:15Z</time>
        <course>183.858044208065</course>
        <speed>5.39503783037357</speed>
      </trkpt>
      <trkpt lat="42.82807" lon="12.79145">
        <ele>565</ele>
        <time>2011-04-08T01:04:17Z</time>
        <course>151.076898103141</course>
        <speed>5.40031380613747</speed>
      </trkpt>
      <trkpt lat="42.82777" lon="12.79104">
        <ele>566</ele>
        <time>2011-04-08T01:04:26Z</time>
        <course>159.166055620009</course>
        <speed>5.40296089990303</speed>
      </trkpt>
      <trkpt lat="42.82725" lon="12.79055">
        <ele>568</ele>
        <time>2011-04-08T01:04:39Z</time>
        <course>169.850603013616</course>
        <speed>5.40059018889164</speed>
      </trkpt>
      <trkpt lat="42.82608" lon="12.79003">
        <ele>572</ele>
        <time>2011-04-08T01:05:04Z</time>
        <course>176.456010797892</course>
        <speed>3.23769857159338</speed>
      </trkpt>
      <trkpt lat="42.82582" lon="12.78999">
        <ele>574</ele>
        <time>2011-04-08T01:05:13Z</time>
        <course>183.836383564961</course>
        <speed>3.23702457134711</speed>
      </trkpt>
      <trkpt lat="42.82558" lon="12.79003">
        <ele>576</ele>
        <time>2011-04-08T01:05:22Z</time>
        <course>192.034665793838</course>
        <speed>3.23580882923521</speed>
      </trkpt>
      <trkpt lat="42.82477" lon="12.79046">
        <ele>584</ele>
        <time>2011-04-08T01:05:51Z</time>
        <course>208.39674051721</course>
        <speed>2.65850798259475</speed>
      </trkpt>
      <trkpt lat="42.82411" lon="12.79135">
        <ele>595</ele>
        <time>2011-04-08T01:06:30Z</time>
        <course>215.594531435436</course>
        <speed>3.56043094826924</speed>
      </trkpt>
      <trkpt lat="42.82397" lon="12.7916">
        <ele>596</ele>
        <time>2011-04-08T01:06:37Z</time>
        <course>235.534804286686</course>
        <speed>3.55827590763955</speed>
      </trkpt>
      <trkpt lat="42.82358" lon="12.79302">
        <ele>605</ele>
        <time>2011-04-08T01:07:12Z</time>
        <course>293.768337548834</course>
        <speed>3.19161401392617</speed>
      </trkpt>
      <trkpt lat="42.82364" lon="12.79336">
        <ele>607</ele>
        <time>2011-04-08T01:07:21Z</time>
        <course>309.9901688818</course>
        <speed>3.19222033762059</speed>
      </trkpt>
      <trkpt lat="42.82428" lon="12.79526">
        <ele>621</ele>
        <time>2011-04-08T01:08:14Z</time>
        <course>346.825743397787</course>
        <speed>3.96272113552276</speed>
      </trkpt>
      <trkpt lat="42.8244" lon="12.79533">
        <ele>621</ele>
        <time>2011-04-08T01:08:18Z</time>
        <course>40.4609860477595</course>
        <speed>3.95712292525926</speed>
      </trkpt>
      <trkpt lat="42.82448" lon="12.79516">
        <ele>622</ele>
        <time>2011-04-08T01:08:22Z</time>
        <course>121.094067013154</course>
        <speed>3.95994493722523</speed>
      </trkpt>
      <trkpt lat="42.82426" lon="12.79425">
        <ele>627</ele>
        <time>2011-04-08T01:08:42Z</time>
        <course>102.787289987095</course>
        <speed>3.95921867132697</speed>
      </trkpt>
      <trkpt lat="42.8242" lon="12.79359">
        <ele>630</ele>
        <time>2011-04-08T01:08:56Z</time>
        <course>77.6023303417134</course>
        <speed>4.02739545446989</speed>
      </trkpt>
      <trkpt lat="42.82423" lon="12.79325">
        <ele>631</ele>
        <time>2011-04-08T01:09:03Z</time>
        <course>34.1050140888065</course>
        <speed>4.02417235658721</speed>
      </trkpt>
      <trkpt lat="42.82439" lon="12.79298">
        <ele>633</ele>
        <time>2011-04-08T01:09:10Z</time>
        <course>17.9676174163877</course>
        <speed>4.02639037187223</speed>
      </trkpt>
      <trkpt lat="42.82465" lon="12.79277">
        <ele>634</ele>
        <time>2011-04-08T01:09:18Z</time>
        <course>359.147013530574</course>
        <speed>4.02595134506972</speed>
      </trkpt>
      <trkpt lat="42.82519" lon="12.79279">
        <ele>638</ele>
        <time>2011-04-08T01:09:33Z</time>
        <course>346.430414836106</course>
        <speed>3.36608323094292</speed>
      </trkpt>
      <trkpt lat="42.82549" lon="12.79297">
        <ele>640</ele>
        <time>2011-04-08T01:09:44Z</time>
        <course>325.684852980722</course>
        <speed>3.36789714887034</speed>
      </trkpt>
      <trkpt lat="42.82572" lon="12.79336">
        <ele>643</ele>
        <time>2011-04-08T01:09:56Z</time>
        <course>357.43894488993</course>
        <speed>3.36709801978587</speed>
      </trkpt>
      <trkpt lat="42.82581" lon="12.79337">
        <ele>644</ele>
        <time>2011-04-08T01:09:59Z</time>
        <course>9.90191927884541</course>
        <speed>3.36661150996179</speed>
      </trkpt>
      <trkpt lat="42.82611" lon="12.79324">
        <ele>647</ele>
        <time>2011-04-08T01:10:09Z</time>
        <course>360</course>
        <speed>3.3443883494936</speed>
      </trkpt>
      <trkpt lat="42.82642" lon="12.79324">
        <ele>649</ele>
        <time>2011-04-08T01:10:20Z</time>
        <course>346.155223347334</course>
        <speed>3.34636690009644</speed>
      </trkpt>
      <trkpt lat="42.8266" lon="12.79335">
        <ele>651</ele>
        <time>2011-04-08T01:10:26Z</time>
        <course>331.290067017817</course>
        <speed>3.34341195467035</speed>
      </trkpt>
      <trkpt lat="42.82688" lon="12.79373">
        <ele>654</ele>
        <time>2011-04-08T01:10:39Z</time>
        <course>315.38290070019</course>
        <speed>3.34362033660083</speed>
      </trkpt>
      <trkpt lat="42.82697" lon="12.79395">
        <ele>656</ele>
        <time>2011-04-08T01:10:45Z</time>
        <course>283.067596282102</course>
        <speed>2.93100090133209</speed>
      </trkpt>
      <trkpt lat="42.827" lon="12.79427">
        <ele>658</ele>
        <time>2011-04-08T01:10:54Z</time>
        <course>243.767625008888</course>
        <speed>2.92994106385619</speed>
      </trkpt>
      <trkpt lat="42.82673" lon="12.79563">
        <ele>669</ele>
        <time>2011-04-08T01:11:34Z</time>
        <course>259.196991092539</course>
        <speed>3.77086859237762</speed>
      </trkpt>
      <trkpt lat="42.82671" lon="12.79589">
        <ele>670</ele>
        <time>2011-04-08T01:11:39Z</time>
        <course>321.099654671895</course>
        <speed>3.7694481575</speed>
      </trkpt>
      <trkpt lat="42.82677" lon="12.79601">
        <ele>671</ele>
        <time>2011-04-08T01:11:42Z</time>
        <course>360</course>
        <speed>3.76677966093466</speed>
      </trkpt>
      <trkpt lat="42.82681" lon="12.79601">
        <ele>671</ele>
        <time>2011-04-08T01:11:43Z</time>
        <course>55.2576913630405</course>
        <speed>3.76657699525508</speed>
      </trkpt>
      <trkpt lat="42.82695" lon="12.79551">
        <ele>673</ele>
        <time>2011-04-08T01:11:55Z</time>
        <course>20.4866960972789</course>
        <speed>3.76883172970843</speed>
      </trkpt>
      <trkpt lat="42.82748" lon="12.79502">
        <ele>678</ele>
        <time>2011-04-08T01:12:14Z</time>
        <course>8.71141079510044</course>
        <speed>3.76798913109006</speed>
      </trkpt>
      <trkpt lat="42.8296" lon="12.79422">
        <ele>693</ele>
        <time>2011-04-08T01:13:19Z</time>
        <course>3.32276908572798</course>
        <speed>2.13980100792211</speed>
      </trkpt>
      <trkpt lat="42.83002" lon="12.79416">
        <ele>699</ele>
        <time>2011-04-08T01:13:41Z</time>
        <course>359.386201356274</course>
        <speed>2.14002852372727</speed>
      </trkpt>
      <trkpt lat="42.83078" lon="12.79418">
        <ele>712</ele>
        <time>2011-04-08T01:14:20Z</time>
        <course>7.73098550739953</course>
        <speed>8.30264397940658</speed>
      </trkpt>
      <trkpt lat="42.83096" lon="12.79412">
        <ele>711</ele>
        <time>2011-04-08T01:14:23Z</time>
        <course>22.1652576006592</course>
        <speed>8.30946590962339</speed>
      </trkpt>
      <trkpt lat="42.83108" lon="12.794">
        <ele>711</ele>
        <time>2011-04-08T01:14:25Z</time>
        <course>44.9056039157892</course>
        <speed>8.32246303768074</speed>
      </trkpt>
      <trkpt lat="42.83135" lon="12.79334">
        <ele>709</ele>
        <time>2011-04-08T01:14:32Z</time>
        <course>25.8383927056959</course>
        <speed>8.33075925062982</speed>
      </trkpt>
      <trkpt lat="42.83151" lon="12.79315">
        <ele>709</ele>
        <time>2011-04-08T01:14:35Z</time>
        <course>14.2037624421153</course>
        <speed>8.31518202141341</speed>
      </trkpt>
      <trkpt lat="42.83201" lon="12.79284">
        <ele>709</ele>
        <time>2011-04-08T01:14:42Z</time>
        <course>1.94994910673619</course>
        <speed>8.31490263688435</speed>
      </trkpt>
      <trkpt lat="42.83237" lon="12.79281">
        <ele>709</ele>
        <time>2011-04-08T01:14:47Z</time>
        <course>343.508640562011</course>
        <speed>8.31133392904393</speed>
      </trkpt>
      <trkpt lat="42.83266" lon="12.79302">
        <ele>709</ele>
        <time>2011-04-08T01:14:51Z</time>
        <course>320.720090341877</course>
        <speed>1.47605609470541</speed>
      </trkpt>
      <trkpt lat="42.83277" lon="12.79324">
        <ele>714</ele>
        <time>2011-04-08T01:15:06Z</time>
        <course>292.167593656234</course>
        <speed>1.47579460281845</speed>
      </trkpt>
      <trkpt lat="42.83281" lon="12.79348">
        <ele>718</ele>
        <time>2011-04-08T01:15:20Z</time>
        <course>245.524573851627</course>
        <speed>1.47612344241964</speed>
      </trkpt>
      <trkpt lat="42.83273" lon="12.79391">
        <ele>727</ele>
        <time>2011-04-08T01:15:44Z</time>
        <course>215.999645642155</course>
        <speed>1.47571062358118</speed>
      </trkpt>
      <trkpt lat="42.83255" lon="12.79423">
        <ele>734</ele>
        <time>2011-04-08T01:16:07Z</time>
        <course>206.269606712884</course>
        <speed>1.47608670677548</speed>
      </trkpt>
      <trkpt lat="42.83231" lon="12.79452">
        <ele>743</ele>
        <time>2011-04-08T01:16:31Z</time>
        <course>197.014199707955</course>
        <speed>4.189690705963</speed>
      </trkpt>
      <trkpt lat="42.83179" lon="12.79491">
        <ele>746</ele>
        <time>2011-04-08T01:16:46Z</time>
        <course>193.454501649691</course>
        <speed>4.19047678464081</speed>
      </trkpt>
      <trkpt lat="42.83133" lon="12.79518">
        <ele>749</ele>
        <time>2011-04-08T01:17:00Z</time>
        <course>180.295094574748</course>
        <speed>6.95079828712993</speed>
      </trkpt>
      <trkpt lat="42.83054" lon="12.79519">
        <ele>749</ele>
        <time>2011-04-08T01:17:12Z</time>
        <course>188.996597715157</course>
        <speed>6.95401621673048</speed>
      </trkpt>
      <trkpt lat="42.82954" lon="12.79558">
        <ele>751</ele>
        <time>2011-04-08T01:17:29Z</time>
        <course>269.997120098082</course>
        <speed>2.81010780706416</speed>
      </trkpt>
      <trkpt lat="42.82954" lon="12.79569">
        <ele>751</ele>
        <time>2011-04-08T01:17:32Z</time>
        <course>346.93736285979</course>
        <speed>2.81127298118978</speed>
      </trkpt>
      <trkpt lat="42.82961" lon="12.79573">
        <ele>752</ele>
        <time>2011-04-08T01:17:35Z</time>
        <course>8.34818348368685</course>
        <speed>2.80938526174675</speed>
      </trkpt>
      <trkpt lat="42.82997" lon="12.7956">
        <ele>756</ele>
        <time>2011-04-08T01:17:50Z</time>
        <course>358.364466198089</course>
        <speed>2.81002320935536</speed>
      </trkpt>
      <trkpt lat="42.83054" lon="12.79564">
        <ele>763</ele>
        <time>2011-04-08T01:18:12Z</time>
        <course>349.295638191513</course>
        <speed>2.12461025068746</speed>
      </trkpt>
      <trkpt lat="42.83082" lon="12.79577">
        <ele>767</ele>
        <time>2011-04-08T01:18:28Z</time>
        <course>343.611757586687</course>
        <speed>2.12417135135637</speed>
      </trkpt>
      <trkpt lat="42.83143" lon="12.79621">
        <ele>779</ele>
        <time>2011-04-08T01:19:04Z</time>
        <course>351.962492242863</course>
        <speed>6.42404468825558</speed>
      </trkpt>
      <trkpt lat="42.83169" lon="12.7963">
        <ele>779</ele>
        <time>2011-04-08T01:19:09Z</time>
        <course>359.541195544228</course>
        <speed>6.42597036206875</speed>
      </trkpt>
      <trkpt lat="42.8322" lon="12.79631">
        <ele>780</ele>
        <time>2011-04-08T01:19:17Z</time>
        <course>279.2671176949</course>
        <speed>6.42609741697501</speed>
      </trkpt>
      <trkpt lat="42.83221" lon="12.79646">
        <ele>780</ele>
        <time>2011-04-08T01:19:19Z</time>
        <course>187.751322610818</course>
        <speed>6.41449609364801</speed>
      </trkpt>
      <trkpt lat="42.83215" lon="12.79648">
        <ele>780</ele>
        <time>2011-04-08T01:19:20Z</time>
        <course>184.425758409448</course>
        <speed>6.42724747830602</speed>
      </trkpt>
      <trkpt lat="42.83136" lon="12.79663">
        <ele>781</ele>
        <time>2011-04-08T01:19:34Z</time>
        <course>174.891472163514</course>
        <speed>6.42698588793422</speed>
      </trkpt>
      <trkpt lat="42.83095" lon="12.79654">
        <ele>782</ele>
        <time>2011-04-08T01:19:41Z</time>
        <course>181.726884066973</course>
        <speed>6.43396921172472</speed>
      </trkpt>
      <trkpt lat="42.83068" lon="12.79656">
        <ele>782</ele>
        <time>2011-04-08T01:19:46Z</time>
        <course>188.096570781128</course>
        <speed>6.42701095286091</speed>
      </trkpt>
      <trkpt lat="42.83008" lon="12.79677">
        <ele>784</ele>
        <time>2011-04-08T01:19:57Z</time>
        <course>269.996859042905</course>
        <speed>2.34510545147273</speed>
      </trkpt>
      <trkpt lat="42.83008" lon="12.79689">
        <ele>785</ele>
        <time>2011-04-08T01:20:01Z</time>
        <course>344.837351592406</course>
        <speed>2.34854418678326</speed>
      </trkpt>
      <trkpt lat="42.83011" lon="12.79691">
        <ele>785</ele>
        <time>2011-04-08T01:20:03Z</time>
        <course>358.793943632914</course>
        <speed>2.34701425537982</speed>
      </trkpt>
      <trkpt lat="42.83069" lon="12.79694">
        <ele>793</ele>
        <time>2011-04-08T01:20:30Z</time>
        <course>345.926019306936</course>
        <speed>2.34677537717294</speed>
      </trkpt>
      <trkpt lat="42.83108" lon="12.79718">
        <ele>800</ele>
        <time>2011-04-08T01:20:50Z</time>
        <course>326.642989141856</course>
        <speed>2.48006135685382</speed>
      </trkpt>
      <trkpt lat="42.83121" lon="12.79739">
        <ele>802</ele>
        <time>2011-04-08T01:20:59Z</time>
        <course>305.790773908449</course>
        <speed>2.4802324424212</speed>
      </trkpt>
      <trkpt lat="42.83146" lon="12.79824">
        <ele>811</ele>
        <time>2011-04-08T01:21:29Z</time>
        <course>328.545255878433</course>
        <speed>2.47946833090881</speed>
      </trkpt>
      <trkpt lat="42.83154" lon="12.79836">
        <ele>813</ele>
        <time>2011-04-08T01:21:35Z</time>
        <course>350.732493804803</course>
        <speed>2.3098855379624</speed>
      </trkpt>
      <trkpt lat="42.83169" lon="12.79842">
        <ele>815</ele>
        <time>2011-04-08T01:21:42Z</time>
        <course>3.14120022217228</course>
        <speed>2.3089742954552</speed>
      </trkpt>
      <trkpt lat="42.83236" lon="12.79833">
        <ele>825</ele>
        <time>2011-04-08T01:22:15Z</time>
        <course>358.296017726391</course>
        <speed>2.30867072950547</speed>
      </trkpt>
      <trkpt lat="42.83291" lon="12.79837">
        <ele>833</ele>
        <time>2011-04-08T01:22:41Z</time>
        <course>3.74661087925298</course>
        <speed>3.68033867457406</speed>
      </trkpt>
      <trkpt lat="42.83316" lon="12.79833">
        <ele>834</ele>
        <time>2011-04-08T01:22:49Z</time>
        <course>10.4236013380013</course>
        <speed>3.68170751294484</speed>
      </trkpt>
      <trkpt lat="42.83365" lon="12.79811">
        <ele>838</ele>
        <time>2011-04-08T01:23:04Z</time>
        <course>19.0291312869289</course>
        <speed>3.68216040154902</speed>
      </trkpt>
      <trkpt lat="42.83409" lon="12.79774">
        <ele>842</ele>
        <time>2011-04-08T01:23:20Z</time>
        <course>10.3344041940532</course>
        <speed>2.08288418737061</speed>
      </trkpt>
      <trkpt lat="42.83427" lon="12.79766">
        <ele>845</ele>
        <time>2011-04-08T01:23:30Z</time>
        <course>358.676962973416</course>
        <speed>2.08248875472529</speed>
      </trkpt>
      <trkpt lat="42.83516" lon="12.79771">
        <ele>860</ele>
        <time>2011-04-08T01:24:18Z</time>
        <course>351.712817867338</course>
        <speed>2.17396629479918</speed>
      </trkpt>
      <trkpt lat="42.83598" lon="12.798">
        <ele>873</ele>
        <time>2011-04-08T01:25:01Z</time>
        <course>356.42150374259</course>
        <speed>2.17371793145809</speed>
      </trkpt>
      <trkpt lat="42.83697" lon="12.79815">
        <ele>889</ele>
        <time>2011-04-08T01:25:52Z</time>
        <course>359.495804937233</course>
        <speed>2.26311767798161</speed>
      </trkpt>
      <trkpt lat="42.83791" lon="12.79817">
        <ele>903</ele>
        <time>2011-04-08T01:26:38Z</time>
        <course>3.70023797088562</course>
        <speed>2.82263668174751</speed>
      </trkpt>
      <trkpt lat="42.83823" lon="12.79812">
        <ele>906</ele>
        <time>2011-04-08T01:26:51Z</time>
        <course>10.3222241271785</course>
        <speed>2.82344790076043</speed>
      </trkpt>
      <trkpt lat="42.83889" lon="12.79783">
        <ele>914</ele>
        <time>2011-04-08T01:27:18Z</time>
        <course>14.2015530566338</course>
        <speed>2.380207752952</speed>
      </trkpt>
      <trkpt lat="42.8406" lon="12.79679">
        <ele>940</ele>
        <time>2011-04-08T01:28:45Z</time>
        <course>6.13241267772371</course>
        <speed>8.32743119444137</speed>
      </trkpt>
      <trkpt lat="42.84091" lon="12.79671">
        <ele>936</ele>
        <time>2011-04-08T01:28:50Z</time>
        <course>94.7423102157937</course>
        <speed>8.32914609359826</speed>
      </trkpt>
      <trkpt lat="42.8409" lon="12.79642">
        <ele>934</ele>
        <time>2011-04-08T01:28:52Z</time>
        <course>138.704940864871</course>
        <speed>8.31622088506231</speed>
      </trkpt>
      <trkpt lat="42.84037" lon="12.7953">
        <ele>924</ele>
        <time>2011-04-08T01:29:05Z</time>
        <course>69.7012151206814</course>
        <speed>1.44690942443438</speed>
      </trkpt>
      <trkpt lat="42.84039" lon="12.79517">
        <ele>926</ele>
        <time>2011-04-08T01:29:13Z</time>
        <course>12.563945177044</course>
        <speed>1.44659325321116</speed>
      </trkpt>
      <trkpt lat="42.84125" lon="12.79471">
        <ele>951</ele>
        <time>2011-04-08T01:30:24Z</time>
        <course>16.578107026041</course>
        <speed>3.11924003117464</speed>
      </trkpt>
      <trkpt lat="42.84139" lon="12.79461">
        <ele>952</ele>
        <time>2011-04-08T01:30:29Z</time>
        <course>25.8080457084374</course>
        <speed>3.11784869504022</speed>
      </trkpt>
      <trkpt lat="42.84183" lon="12.7941">
        <ele>957</ele>
        <time>2011-04-08T01:30:50Z</time>
        <course>13.8492814787282</course>
        <speed>3.11765754507191</speed>
      </trkpt>
      <trkpt lat="42.84244" lon="12.79374">
        <ele>964</ele>
        <time>2011-04-08T01:31:14Z</time>
        <course>31.3804956342642</course>
        <speed>3.21480344998646</speed>
      </trkpt>
      <trkpt lat="42.84292" lon="12.79304">
        <ele>970</ele>
        <time>2011-04-08T01:31:38Z</time>
        <course>39.2953841369871</course>
        <speed>3.21568544737601</speed>
      </trkpt>
      <trkpt lat="42.84336" lon="12.79218">
        <ele>977</ele>
        <time>2011-04-08T01:32:05Z</time>
        <course>9.50658946539088</course>
        <speed>3.32760087897639</speed>
      </trkpt>
      <trkpt lat="42.84346" lon="12.79214">
        <ele>977</ele>
        <time>2011-04-08T01:32:08Z</time>
        <course>308.524933828806</course>
        <speed>3.33537203773376</speed>
      </trkpt>
      <trkpt lat="42.84348" lon="12.7922">
        <ele>978</ele>
        <time>2011-04-08T01:32:10Z</time>
        <course>230.893382376138</course>
        <speed>3.32714067133693</speed>
      </trkpt>
      <trkpt lat="42.84294" lon="12.79379">
        <ele>989</ele>
        <time>2011-04-08T01:32:53Z</time>
        <course>218.87444716507</course>
        <speed>4.67766314245953</speed>
      </trkpt>
      <trkpt lat="42.8428" lon="12.79406">
        <ele>990</ele>
        <time>2011-04-08T01:32:58Z</time>
        <course>210.762333889259</course>
        <speed>4.67501768928422</speed>
      </trkpt>
      <trkpt lat="42.84233" lon="12.79473">
        <ele>993</ele>
        <time>2011-04-08T01:33:15Z</time>
        <course>217.112584030324</course>
        <speed>3.48729736476918</speed>
      </trkpt>
      <trkpt lat="42.8419" lon="12.79551">
        <ele>998</ele>
        <time>2011-04-08T01:33:37Z</time>
        <course>269.994532611915</course>
        <speed>3.48475233832352</speed>
      </trkpt>
      <trkpt lat="42.8419" lon="12.79572">
        <ele>999</ele>
        <time>2011-04-08T01:33:42Z</time>
        <course>316.501431652948</course>
        <speed>3.48828259513656</speed>
      </trkpt>
      <trkpt lat="42.84212" lon="12.79622">
        <ele>1003</ele>
        <time>2011-04-08T01:33:56Z</time>
        <course>325.135759539631</course>
        <speed>1.59768937318589</speed>
      </trkpt>
      <trkpt lat="42.84263" lon="12.79707">
        <ele>1021</ele>
        <time>2011-04-08T01:34:52Z</time>
        <course>341.502450532325</course>
        <speed>1.59767760120497</speed>
      </trkpt>
      <trkpt lat="42.84293" lon="12.79731">
        <ele>1030</ele>
        <time>2011-04-08T01:35:16Z</time>
        <course>269.996617028718</course>
        <speed>8.34000875567983</speed>
      </trkpt>
      <trkpt lat="42.84293" lon="12.79744">
        <ele>1029</ele>
        <time>2011-04-08T01:35:17Z</time>
        <course>221.051730847278</course>
        <speed>8.30900528205065</speed>
      </trkpt>
      <trkpt lat="42.84281" lon="12.79769">
        <ele>1029</ele>
        <time>2011-04-08T01:35:20Z</time>
        <course>204.749062225453</course>
        <speed>8.32353077939514</speed>
      </trkpt>
      <trkpt lat="42.84252" lon="12.79801">
        <ele>1028</ele>
        <time>2011-04-08T01:35:25Z</time>
        <course>196.246253056535</course>
        <speed>8.31580262794628</speed>
      </trkpt>
      <trkpt lat="42.84179" lon="12.79852">
        <ele>1027</ele>
        <time>2011-04-08T01:35:36Z</time>
        <course>228.038668969888</course>
        <speed>2.7420056661084</speed>
      </trkpt>
      <trkpt lat="42.84173" lon="12.79868">
        <ele>1028</ele>
        <time>2011-04-08T01:35:42Z</time>
        <course>317.456896537961</course>
        <speed>2.74606928060355</speed>
      </trkpt>
      <trkpt lat="42.84178" lon="12.79879">
        <ele>1029</ele>
        <time>2011-04-08T01:35:45Z</time>
        <course>353.202600503357</course>
        <speed>2.74043365393576</speed>
      </trkpt>
      <trkpt lat="42.84185" lon="12.79881">
        <ele>1030</ele>
        <time>2011-04-08T01:35:48Z</time>
        <course>9.18595688968944</course>
        <speed>2.74284638160276</speed>
      </trkpt>
      <trkpt lat="42.84247" lon="12.79857">
        <ele>1037</ele>
        <time>2011-04-08T01:36:14Z</time>
        <course>359.55519940868</course>
        <speed>2.74270251904686</speed>
      </trkpt>
      <trkpt lat="42.84409" lon="12.7986">
        <ele>1056</ele>
        <time>2011-04-08T01:37:20Z</time>
        <course>4.17411130599735</course>
        <speed>2.05951577677686</speed>
      </trkpt>
      <trkpt lat="42.84455" lon="12.79852">
        <ele>1063</ele>
        <time>2011-04-08T01:37:45Z</time>
        <course>353.21918048871</course>
        <speed>2.05916515876734</speed>
      </trkpt>
      <trkpt lat="42.84508" lon="12.79867">
        <ele>1073</ele>
        <time>2011-04-08T01:38:14Z</time>
        <course>345.384672935904</course>
        <speed>2.38589289347459</speed>
      </trkpt>
      <trkpt lat="42.84558" lon="12.79898">
        <ele>1080</ele>
        <time>2011-04-08T01:38:40Z</time>
        <course>357.809894245387</course>
        <speed>2.38797696797457</speed>
      </trkpt>
      <trkpt lat="42.84569" lon="12.79899">
        <ele>1082</ele>
        <time>2011-04-08T01:38:45Z</time>
        <course>10.5615029168954</course>
        <speed>2.38577816148987</speed>
      </trkpt>
      <trkpt lat="42.8463" lon="12.79872">
        <ele>1091</ele>
        <time>2011-04-08T01:39:15Z</time>
        <course>346.338651496172</course>
        <speed>3.95182632864731</speed>
      </trkpt>
      <trkpt lat="42.84689" lon="12.79906">
        <ele>1094</ele>
        <time>2011-04-08T01:39:33Z</time>
        <course>0.73327946929339</course>
        <speed>3.95244063199169</speed>
      </trkpt>
      <trkpt lat="42.84755" lon="12.79904">
        <ele>1099</ele>
        <time>2011-04-08T01:39:51Z</time>
        <course>339.968744459888</course>
        <speed>8.31443421546881</speed>
      </trkpt>
      <trkpt lat="42.84813" lon="12.79954">
        <ele>1099</ele>
        <time>2011-04-08T01:40:01Z</time>
        <course>8.63910733960044</course>
        <speed>8.31401797434027</speed>
      </trkpt>
      <trkpt lat="42.84852" lon="12.7994">
        <ele>1099</ele>
        <time>2011-04-08T01:40:06Z</time>
        <course>357.843394235808</course>
        <speed>4.26831950986321</speed>
      </trkpt>
      <trkpt lat="42.84897" lon="12.79944">
        <ele>1101</ele>
        <time>2011-04-08T01:40:18Z</time>
        <course>4.28177286866579</course>
        <speed>4.26842468566011</speed>
      </trkpt>
      <trkpt lat="42.84965" lon="12.79932">
        <ele>1105</ele>
        <time>2011-04-08T01:40:36Z</time>
        <course>11.0944220151775</course>
        <speed>3.36054820943298</speed>
      </trkpt>
      <trkpt lat="42.8503" lon="12.79902">
        <ele>1110</ele>
        <time>2011-04-08T01:40:58Z</time>
        <course>357.243285393338</course>
        <speed>3.36155236542953</speed>
      </trkpt>
      <trkpt lat="42.85083" lon="12.79908">
        <ele>1115</ele>
        <time>2011-04-08T01:41:16Z</time>
        <course>352.423689655166</course>
        <speed>3.39978117686211</speed>
      </trkpt>
      <trkpt lat="42.85115" lon="12.79918">
        <ele>1117</ele>
        <time>2011-04-08T01:41:27Z</time>
        <course>4.86657285631799</course>
        <speed>3.40327630719747</speed>
      </trkpt>
      <trkpt lat="42.85125" lon="12.79916">
        <ele>1118</ele>
        <time>2011-04-08T01:41:30Z</time>
        <course>15.417310728502</course>
        <speed>3.39968763982204</speed>
      </trkpt>
      <trkpt lat="42.85176" lon="12.79883">
        <ele>1123</ele>
        <time>2011-04-08T01:41:48Z</time>
        <course>26.5649689131855</course>
        <speed>2.87693390773274</speed>
      </trkpt>
      <trkpt lat="42.85205" lon="12.79849">
        <ele>1127</ele>
        <time>2011-04-08T01:42:03Z</time>
        <course>353.913188954002</course>
        <speed>2.87823922180963</speed>
      </trkpt>
      <trkpt lat="42.85217" lon="12.79852">
        <ele>1128</ele>
        <time>2011-04-08T01:42:08Z</time>
        <course>336.886665749155</course>
        <speed>2.87489584089294</speed>
      </trkpt>
      <trkpt lat="42.85244" lon="12.79879">
        <ele>1131</ele>
        <time>2011-04-08T01:42:21Z</time>
        <course>360</course>
        <speed>2.87632329633934</speed>
      </trkpt>
      <trkpt lat="42.85293" lon="12.79879">
        <ele>1137</ele>
        <time>2011-04-08T01:42:40Z</time>
        <course>310.765626406545</course>
        <speed>8.3280910819702</speed>
      </trkpt>
      <trkpt lat="42.853" lon="12.79898">
        <ele>1134</ele>
        <time>2011-04-08T01:42:42Z</time>
        <course>286.555694941083</course>
        <speed>8.32101379947084</speed>
      </trkpt>
      <trkpt lat="42.85314" lon="12.80008">
        <ele>1123</ele>
        <time>2011-04-08T01:42:53Z</time>
        <course>320.255664494324</course>
        <speed>4.11676648855881</speed>
      </trkpt>
      <trkpt lat="42.85332" lon="12.80043">
        <ele>1124</ele>
        <time>2011-04-08T01:43:01Z</time>
        <course>336.242907501665</course>
        <speed>4.1139741546612</speed>
      </trkpt>
      <trkpt lat="42.85367" lon="12.80079">
        <ele>1127</ele>
        <time>2011-04-08T01:43:13Z</time>
        <course>343.232705834779</course>
        <speed>4.11700624249423</speed>
      </trkpt>
      <trkpt lat="42.85394" lon="12.80098">
        <ele>1129</ele>
        <time>2011-04-08T01:43:21Z</time>
        <course>350.940105073639</course>
        <speed>3.20773018656625</speed>
      </trkpt>
      <trkpt lat="42.85437" lon="12.80114">
        <ele>1132</ele>
        <time>2011-04-08T01:43:37Z</time>
        <course>6.12217364509692</course>
        <speed>3.20809399307839</speed>
      </trkpt>
      <trkpt lat="42.85493" lon="12.801">
        <ele>1138</ele>
        <time>2011-04-08T01:43:56Z</time>
        <course>359.440814925281</course>
        <speed>2.25655677996179</speed>
      </trkpt>
      <trkpt lat="42.85537" lon="12.80101">
        <ele>1144</ele>
        <time>2011-04-08T01:44:18Z</time>
        <course>9.54348704730537</course>
        <speed>2.2570732382797</speed>
      </trkpt>
      <trkpt lat="42.8556" lon="12.80092">
        <ele>1148</ele>
        <time>2011-04-08T01:44:30Z</time>
        <course>23.2600588456315</course>
        <speed>2.25682878700577</speed>
      </trkpt>
      <trkpt lat="42.8558" lon="12.80072">
        <ele>1151</ele>
        <time>2011-04-08T01:44:42Z</time>
        <course>352.996668178609</course>
        <speed>2.25772204093925</speed>
      </trkpt>
      <trkpt lat="42.85594" lon="12.80076">
        <ele>1154</ele>
        <time>2011-04-08T01:44:49Z</time>
        <course>335.639947105644</course>
        <speed>8.30770369456249</speed>
      </trkpt>
      <trkpt lat="42.85613" lon="12.80096">
        <ele>1148</ele>
        <time>2011-04-08T01:44:52Z</time>
        <course>297.314589038104</course>
        <speed>8.32681597361891</speed>
      </trkpt>
      <trkpt lat="42.85619" lon="12.80123">
        <ele>1144</ele>
        <time>2011-04-08T01:44:55Z</time>
        <course>240.429987675782</course>
        <speed>8.31850477913728</speed>
      </trkpt>
      <trkpt lat="42.8559" lon="12.80242">
        <ele>1124</ele>
        <time>2011-04-08T01:45:07Z</time>
        <course>264.677893840511</course>
        <speed>2.68707331526028</speed>
      </trkpt>
      <trkpt lat="42.85589" lon="12.80267">
        <ele>1126</ele>
        <time>2011-04-08T01:45:15Z</time>
        <course>300.173752159286</course>
        <speed>2.68953252189164</speed>
      </trkpt>
      <trkpt lat="42.85593" lon="12.80283">
        <ele>1127</ele>
        <time>2011-04-08T01:45:20Z</time>
        <course>323.235729542143</course>
        <speed>2.68719562441906</speed>
      </trkpt>
      <trkpt lat="42.85612" lon="12.80316">
        <ele>1131</ele>
        <time>2011-04-08T01:45:33Z</time>
        <course>332.874122309486</course>
        <speed>2.68851219747401</speed>
      </trkpt>
      <trkpt lat="42.85633" lon="12.80341">
        <ele>1134</ele>
        <time>2011-04-08T01:45:44Z</time>
        <course>352.639687717257</course>
        <speed>2.68760718723355</speed>
      </trkpt>
      <trkpt lat="42.85663" lon="12.8035">
        <ele>1138</ele>
        <time>2011-04-08T01:45:57Z</time>
        <course>336.699755605769</course>
        <speed>8.29991766041936</speed>
      </trkpt>
      <trkpt lat="42.85673" lon="12.8036">
        <ele>1137</ele>
        <time>2011-04-08T01:45:59Z</time>
        <course>232.248496942381</course>
        <speed>8.31816542220161</speed>
      </trkpt>
      <trkpt lat="42.85662" lon="12.80393">
        <ele>1136</ele>
        <time>2011-04-08T01:46:02Z</time>
        <course>214.801545480339</course>
        <speed>8.32326793204893</speed>
      </trkpt>
      <trkpt lat="42.85636" lon="12.80435">
        <ele>1135</ele>
        <time>2011-04-08T01:46:08Z</time>
        <course>269.993793689481</course>
        <speed>8.31909004429806</speed>
      </trkpt>
      <trkpt lat="42.85636" lon="12.80459">
        <ele>1135</ele>
        <time>2011-04-08T01:46:10Z</time>
        <course>343.801637062987</course>
        <speed>8.31545705652513</speed>
      </trkpt>
      <trkpt lat="42.85679" lon="12.80488">
        <ele>1134</ele>
        <time>2011-04-08T01:46:16Z</time>
        <course>331.6974503218</course>
        <speed>8.31535517430768</speed>
      </trkpt>
      <trkpt lat="42.85687" lon="12.80498">
        <ele>1133</ele>
        <time>2011-04-08T01:46:18Z</time>
        <course>284.447883221995</course>
        <speed>8.31574159739558</speed>
      </trkpt>
      <trkpt lat="42.85693" lon="12.80552">
        <ele>1132</ele>
        <time>2011-04-08T01:46:23Z</time>
        <course>319.238260004651</course>
        <speed>8.32345507103494</speed>
      </trkpt>
      <trkpt lat="42.85706" lon="12.80578">
        <ele>1131</ele>
        <time>2011-04-08T01:46:26Z</time>
        <course>340.967550877805</course>
        <speed>8.32160083142059</speed>
      </trkpt>
      <trkpt lat="42.85731" lon="12.80598">
        <ele>1131</ele>
        <time>2011-04-08T01:46:30Z</time>
        <course>352.892830942259</course>
        <speed>4.97691799727077</speed>
      </trkpt>
      <trkpt lat="42.85776" lon="12.80611">
        <ele>1132</ele>
        <time>2011-04-08T01:46:40Z</time>
        <course>325.76626165106</course>
        <speed>4.97727971711233</speed>
      </trkpt>
      <trkpt lat="42.85816" lon="12.80674">
        <ele>1135</ele>
        <time>2011-04-08T01:46:54Z</time>
        <course>347.809065301268</course>
        <speed>8.32603345107376</speed>
      </trkpt>
      <trkpt lat="42.8583" lon="12.80681">
        <ele>1134</ele>
        <time>2011-04-08T01:46:56Z</time>
        <course>358.623874026246</course>
        <speed>8.32356718416205</speed>
      </trkpt>
      <trkpt lat="42.85866" lon="12.80683">
        <ele>1133</ele>
        <time>2011-04-08T01:47:01Z</time>
        <course>336.613686235711</course>
        <speed>8.29982346237875</speed>
      </trkpt>
      <trkpt lat="42.85871" lon="12.80688">
        <ele>1132</ele>
        <time>2011-04-08T01:47:02Z</time>
        <course>294.816573200428</course>
        <speed>8.27764851032864</speed>
      </trkpt>
      <trkpt lat="42.85873" lon="12.80698">
        <ele>1132</ele>
        <time>2011-04-08T01:47:03Z</time>
        <course>235.064689133724</course>
        <speed>8.32240899270899</speed>
      </trkpt>
      <trkpt lat="42.85857" lon="12.80751">
        <ele>1131</ele>
        <time>2011-04-08T01:47:08Z</time>
        <course>258.113025541182</course>
        <speed>8.32136090276155</speed>
      </trkpt>
      <trkpt lat="42.85853" lon="12.80795">
        <ele>1130</ele>
        <time>2011-04-08T01:47:13Z</time>
        <course>289.130564234815</course>
        <speed>2.52330080261711</speed>
      </trkpt>
      <trkpt lat="42.85856" lon="12.80815">
        <ele>1131</ele>
        <time>2011-04-08T01:47:19Z</time>
        <course>349.629421226831</course>
        <speed>2.52282660756698</speed>
      </trkpt>
      <trkpt lat="42.85882" lon="12.80826">
        <ele>1135</ele>
        <time>2011-04-08T01:47:31Z</time>
        <course>359.14495060842</course>
        <speed>2.52230774036571</speed>
      </trkpt>
      <trkpt lat="42.85911" lon="12.80827">
        <ele>1139</ele>
        <time>2011-04-08T01:47:44Z</time>
        <course>7.7858799455245</course>
        <speed>2.52282582390745</speed>
      </trkpt>
      <trkpt lat="42.8593" lon="12.80821">
        <ele>1141</ele>
        <time>2011-04-08T01:47:52Z</time>
        <course>345.434072397021</course>
        <speed>2.52375395371141</speed>
      </trkpt>
      <trkpt lat="42.8594" lon="12.80827">
        <ele>1143</ele>
        <time>2011-04-08T01:47:57Z</time>
        <course>258.130008685509</course>
        <speed>8.31358911061951</speed>
      </trkpt>
      <trkpt lat="42.85935" lon="12.80882">
        <ele>1140</ele>
        <time>2011-04-08T01:48:03Z</time>
        <course>339.622196018327</course>
        <speed>8.32093713995652</speed>
      </trkpt>
      <trkpt lat="42.8597" lon="12.80912">
        <ele>1138</ele>
        <time>2011-04-08T01:48:08Z</time>
        <course>308.898093005495</course>
        <speed>8.31906673820874</speed>
      </trkpt>
      <trkpt lat="42.85998" lon="12.80992">
        <ele>1135</ele>
        <time>2011-04-08T01:48:17Z</time>
        <course>327.526633151071</course>
        <speed>8.32419831863727</speed>
      </trkpt>
      <trkpt lat="42.86028" lon="12.81036">
        <ele>1134</ele>
        <time>2011-04-08T01:48:23Z</time>
        <course>336.539917371676</course>
        <speed>8.30808715897122</speed>
      </trkpt>
      <trkpt lat="42.8604" lon="12.81048">
        <ele>1134</ele>
        <time>2011-04-08T01:48:25Z</time>
        <course>348.37916861855</course>
        <speed>8.30827649767637</speed>
      </trkpt>
      <trkpt lat="42.86059" lon="12.81057">
        <ele>1133</ele>
        <time>2011-04-08T01:48:27Z</time>
        <course>1.24508702312115</course>
        <speed>8.31879844646344</speed>
      </trkpt>
      <trkpt lat="42.86119" lon="12.81054">
        <ele>1133</ele>
        <time>2011-04-08T01:48:36Z</time>
        <course>340.991753328213</course>
        <speed>8.32220908740352</speed>
      </trkpt>
      <trkpt lat="42.86167" lon="12.81092">
        <ele>1128</ele>
        <time>2011-04-08T01:48:43Z</time>
        <course>355.995206649323</course>
        <speed>8.32104791637586</speed>
      </trkpt>
      <trkpt lat="42.86223" lon="12.81101">
        <ele>1124</ele>
        <time>2011-04-08T01:48:50Z</time>
        <course>348.183638010195</course>
        <speed>8.31900098443844</speed>
      </trkpt>
      <trkpt lat="42.86248" lon="12.81113">
        <ele>1122</ele>
        <time>2011-04-08T01:48:54Z</time>
        <course>358.296305052383</course>
        <speed>8.31134465635922</speed>
      </trkpt>
      <trkpt lat="42.86292" lon="12.81116">
        <ele>1118</ele>
        <time>2011-04-08T01:49:00Z</time>
        <course>348.781651888283</course>
        <speed>8.31210842845218</speed>
      </trkpt>
      <trkpt lat="42.86303" lon="12.81121">
        <ele>1117</ele>
        <time>2011-04-08T01:49:01Z</time>
        <course>307.374005208771</course>
        <speed>8.3018639839474</speed>
      </trkpt>
      <trkpt lat="42.86306" lon="12.8113">
        <ele>1117</ele>
        <time>2011-04-08T01:49:02Z</time>
        <course>250.575676874189</course>
        <speed>8.32236779844187</speed>
      </trkpt>
      <trkpt lat="42.86304" lon="12.81143">
        <ele>1116</ele>
        <time>2011-04-08T01:49:04Z</time>
        <course>217.795287447949</course>
        <speed>8.33855614281522</speed>
      </trkpt>
      <trkpt lat="42.86295" lon="12.81159">
        <ele>1115</ele>
        <time>2011-04-08T01:49:06Z</time>
        <course>212.989933499092</course>
        <speed>8.32013977156932</speed>
      </trkpt>
      <trkpt lat="42.86246" lon="12.81232">
        <ele>1110</ele>
        <time>2011-04-08T01:49:15Z</time>
        <course>259.722497003857</course>
        <speed>8.32350375176782</speed>
      </trkpt>
      <trkpt lat="42.86243" lon="12.8127">
        <ele>1109</ele>
        <time>2011-04-08T01:49:19Z</time>
        <course>295.078306020438</course>
        <speed>8.31895543183876</speed>
      </trkpt>
      <trkpt lat="42.86253" lon="12.81319">
        <ele>1108</ele>
        <time>2011-04-08T01:49:24Z</time>
        <course>332.738960785673</course>
        <speed>8.33589303142664</speed>
      </trkpt>
      <trkpt lat="42.86264" lon="12.81332">
        <ele>1108</ele>
        <time>2011-04-08T01:49:26Z</time>
        <course>343.573256136131</course>
        <speed>8.31167916453787</speed>
      </trkpt>
      <trkpt lat="42.86301" lon="12.81357">
        <ele>1108</ele>
        <time>2011-04-08T01:49:32Z</time>
        <course>326.785298895932</course>
        <speed>8.30935040374002</speed>
      </trkpt>
      <trkpt lat="42.86317" lon="12.81381">
        <ele>1104</ele>
        <time>2011-04-08T01:49:35Z</time>
        <course>287.126235033087</course>
        <speed>8.31306665675928</speed>
      </trkpt>
      <trkpt lat="42.86324" lon="12.81433">
        <ele>1098</ele>
        <time>2011-04-08T01:49:40Z</time>
        <course>325.903347368583</course>
        <speed>8.32589052469221</speed>
      </trkpt>
      <trkpt lat="42.86344" lon="12.81464">
        <ele>1093</ele>
        <time>2011-04-08T01:49:44Z</time>
        <course>293.743154341115</course>
        <speed>8.31390580447089</speed>
      </trkpt>
      <trkpt lat="42.86359" lon="12.81542">
        <ele>1085</ele>
        <time>2011-04-08T01:49:52Z</time>
        <course>321.30020085386</course>
        <speed>8.30322273844993</speed>
      </trkpt>
      <trkpt lat="42.86371" lon="12.81564">
        <ele>1082</ele>
        <time>2011-04-08T01:49:55Z</time>
        <course>298.579231017457</course>
        <speed>8.32585681188936</speed>
      </trkpt>
      <trkpt lat="42.86376" lon="12.81585">
        <ele>1079</ele>
        <time>2011-04-08T01:49:57Z</time>
        <course>258.739802101635</course>
        <speed>8.3103122095951</speed>
      </trkpt>
      <trkpt lat="42.86374" lon="12.81608">
        <ele>1077</ele>
        <time>2011-04-08T01:49:59Z</time>
        <course>236.128806156481</course>
        <speed>8.31321579805613</speed>
      </trkpt>
      <trkpt lat="42.86357" lon="12.81666">
        <ele>1071</ele>
        <time>2011-04-08T01:50:05Z</time>
        <course>251.072688516613</course>
        <speed>8.32037358837833</speed>
      </trkpt>
      <trkpt lat="42.86341" lon="12.81773">
        <ele>1067</ele>
        <time>2011-04-08T01:50:16Z</time>
        <course>307.351303136743</course>
        <speed>8.32327281893321</speed>
      </trkpt>
      <trkpt lat="42.86345" lon="12.81785">
        <ele>1067</ele>
        <time>2011-04-08T01:50:17Z</time>
        <course>227.49407437494</course>
        <speed>8.31427689396757</speed>
      </trkpt>
      <trkpt lat="42.86325" lon="12.81835">
        <ele>1066</ele>
        <time>2011-04-08T01:50:23Z</time>
        <course>227.49407437494</course>
        <speed>8.31427689396757</speed>
      </trkpt>
      <trkpt lat="42.86325" lon="12.81835">
        <ele>1066</ele>
        <time>2011-04-08T01:50:24Z</time>
        <course>47.5198471980935</course>
        <speed>8.31427689396757</speed>
      </trkpt>
      <trkpt lat="42.86345" lon="12.81785">
        <ele>1065</ele>
        <time>2011-04-08T01:50:29Z</time>
        <course>354.722145109293</course>
        <speed>8.31838183561001</speed>
      </trkpt>
      <trkpt lat="42.86492" lon="12.81816">
        <ele>1065</ele>
        <time>2011-04-08T01:50:49Z</time>
        <course>358.362078133206</course>
        <speed>4.67338497214167</speed>
      </trkpt>
      <trkpt lat="42.86538" lon="12.81819">
        <ele>1067</ele>
        <time>2011-04-08T01:51:00Z</time>
        <course>1.45807206334395</course>
        <speed>4.67368945520363</speed>
      </trkpt>
      <trkpt lat="42.86607" lon="12.81815">
        <ele>1070</ele>
        <time>2011-04-08T01:51:16Z</time>
        <course>351.198709109612</course>
        <speed>3.25010886942129</speed>
      </trkpt>
      <trkpt lat="42.86678" lon="12.8184">
        <ele>1076</ele>
        <time>2011-04-08T01:51:42Z</time>
        <course>354.108320740838</course>
        <speed>3.2503809868223</speed>
      </trkpt>
      <trkpt lat="42.86742" lon="12.81855">
        <ele>1082</ele>
        <time>2011-04-08T01:52:04Z</time>
        <course>4.29964201451429</course>
        <speed>8.31609655606962</speed>
      </trkpt>
      <trkpt lat="42.8683" lon="12.8184">
        <ele>1080</ele>
        <time>2011-04-08T01:52:16Z</time>
        <course>357.19220257094</course>
        <speed>8.32689324257346</speed>
      </trkpt>
      <trkpt lat="42.86866" lon="12.81844">
        <ele>1080</ele>
        <time>2011-04-08T01:52:20Z</time>
        <course>350.685638830876</course>
        <speed>8.3170358406389</speed>
      </trkpt>
      <trkpt lat="42.86982" lon="12.81887">
        <ele>1078</ele>
        <time>2011-04-08T01:52:36Z</time>
        <course>345.795644919476</course>
        <speed>5.13424220098414</speed>
      </trkpt>
      <trkpt lat="42.87038" lon="12.81919">
        <ele>1080</ele>
        <time>2011-04-08T01:52:50Z</time>
        <course>348.709145874161</course>
        <speed>5.13471050255844</speed>
      </trkpt>
      <trkpt lat="42.87118" lon="12.81955">
        <ele>1083</ele>
        <time>2011-04-08T01:53:08Z</time>
        <course>344.27341833854</course>
        <speed>8.31774168369966</speed>
      </trkpt>
      <trkpt lat="42.87159" lon="12.81981">
        <ele>1081</ele>
        <time>2011-04-08T01:53:14Z</time>
        <course>359.407344913578</course>
        <speed>8.31828362161746</speed>
      </trkpt>
      <trkpt lat="42.87245" lon="12.81983">
        <ele>1080</ele>
        <time>2011-04-08T01:53:25Z</time>
        <course>4.98957214397665</course>
        <speed>8.32170449483741</speed>
      </trkpt>
      <trkpt lat="42.87296" lon="12.81973">
        <ele>1079</ele>
        <time>2011-04-08T01:53:32Z</time>
        <course>357.570787766024</course>
        <speed>8.32454455223627</speed>
      </trkpt>
      <trkpt lat="42.87317" lon="12.81975">
        <ele>1079</ele>
        <time>2011-04-08T01:53:35Z</time>
        <course>343.172432487102</course>
        <speed>8.31304883911485</speed>
      </trkpt>
      <trkpt lat="42.87345" lon="12.81994">
        <ele>1079</ele>
        <time>2011-04-08T01:53:39Z</time>
        <course>332.764292877523</course>
        <speed>8.32166358723097</speed>
      </trkpt>
      <trkpt lat="42.87384" lon="12.82039">
        <ele>1074</ele>
        <time>2011-04-08T01:53:46Z</time>
        <course>339.220116271354</course>
        <speed>8.31211780869847</speed>
      </trkpt>
      <trkpt lat="42.87424" lon="12.82073">
        <ele>1070</ele>
        <time>2011-04-08T01:53:52Z</time>
        <course>349.741647508229</course>
        <speed>8.31965785182969</speed>
      </trkpt>
      <trkpt lat="42.87647" lon="12.82163">
        <ele>1046</ele>
        <time>2011-04-08T01:54:23Z</time>
        <course>355.809486661797</course>
        <speed>8.31926831326905</speed>
      </trkpt>
      <trkpt lat="42.87782" lon="12.82185">
        <ele>1029</ele>
        <time>2011-04-08T01:54:42Z</time>
        <course>3.81274989515124</course>
        <speed>8.3136879558568</speed>
      </trkpt>
      <trkpt lat="42.87809" lon="12.82181">
        <ele>1027</ele>
        <time>2011-04-08T01:54:45Z</time>
        <course>18.8132602768199</course>
        <speed>8.32091352503141</speed>
      </trkpt>
      <trkpt lat="42.87846" lon="12.82153">
        <ele>1023</ele>
        <time>2011-04-08T01:54:51Z</time>
        <course>7.88816060965152</course>
        <speed>8.31924262599254</speed>
      </trkpt>
      <trkpt lat="42.87859" lon="12.82149">
        <ele>1023</ele>
        <time>2011-04-08T01:54:53Z</time>
        <course>337.565656859824</course>
        <speed>8.32305954210324</speed>
      </trkpt>
      <trkpt lat="42.87871" lon="12.8216">
        <ele>1022</ele>
        <time>2011-04-08T01:54:55Z</time>
        <course>319.128730332029</course>
        <speed>8.32501736563497</speed>
      </trkpt>
      <trkpt lat="42.87896" lon="12.82208">
        <ele>1017</ele>
        <time>2011-04-08T01:55:00Z</time>
        <course>339.884633114297</course>
        <speed>8.31000525002923</speed>
      </trkpt>
      <trkpt lat="42.87912" lon="12.82221">
        <ele>1015</ele>
        <time>2011-04-08T01:55:03Z</time>
        <course>353.73822978907</course>
        <speed>8.31920880897174</speed>
      </trkpt>
      <trkpt lat="42.87949" lon="12.8223">
        <ele>1012</ele>
        <time>2011-04-08T01:55:08Z</time>
        <course>0.42420358276609</course>
        <speed>8.31755713610306</speed>
      </trkpt>
      <trkpt lat="42.8801" lon="12.82229">
        <ele>1008</ele>
        <time>2011-04-08T01:55:16Z</time>
        <course>344.51802778176</course>
        <speed>8.317598620584</speed>
      </trkpt>
      <trkpt lat="42.88041" lon="12.82248">
        <ele>1006</ele>
        <time>2011-04-08T01:55:21Z</time>
        <course>354.464225496249</course>
        <speed>8.31729806702152</speed>
      </trkpt>
      <trkpt lat="42.88083" lon="12.82257">
        <ele>1002</ele>
        <time>2011-04-08T01:55:26Z</time>
        <course>349.393485826526</course>
        <speed>8.31446727976903</speed>
      </trkpt>
      <trkpt lat="42.88112" lon="12.82269">
        <ele>1000</ele>
        <time>2011-04-08T01:55:30Z</time>
        <course>345.955665263717</course>
        <speed>8.31798712534848</speed>
      </trkpt>
      <trkpt lat="42.88539" lon="12.82503">
        <ele>963</ele>
        <time>2011-04-08T01:56:32Z</time>
        <course>338.289019165428</course>
        <speed>8.32099267873676</speed>
      </trkpt>
      <trkpt lat="42.88578" lon="12.82537">
        <ele>957</ele>
        <time>2011-04-08T01:56:38Z</time>
        <course>342.266330258544</course>
        <speed>8.31919620981048</speed>
      </trkpt>
      <trkpt lat="42.88773" lon="12.82673">
        <ele>929</ele>
        <time>2011-04-08T01:57:07Z</time>
        <course>355.397889679924</course>
        <speed>8.32093382487519</speed>
      </trkpt>
      <trkpt lat="42.8887" lon="12.8269">
        <ele>928</ele>
        <time>2011-04-08T01:57:20Z</time>
        <course>351.146984651081</course>
        <speed>8.3217049187156</speed>
      </trkpt>
      <trkpt lat="42.88932" lon="12.82711">
        <ele>928</ele>
        <time>2011-04-08T01:57:29Z</time>
        <course>2.92745287501874</course>
        <speed>8.31996998132363</speed>
      </trkpt>
      <trkpt lat="42.88977" lon="12.82706">
        <ele>928</ele>
        <time>2011-04-08T01:57:35Z</time>
        <course>351.276495584942</course>
        <speed>5.59495914411578</speed>
      </trkpt>
      <trkpt lat="42.88986" lon="12.82709">
        <ele>928</ele>
        <time>2011-04-08T01:57:37Z</time>
        <course>335.948550201441</course>
        <speed>5.59529400030641</speed>
      </trkpt>
      <trkpt lat="42.89049" lon="12.8277">
        <ele>930</ele>
        <time>2011-04-08T01:57:52Z</time>
        <course>350.237694745953</course>
        <speed>5.59368844598689</speed>
      </trkpt>
      <trkpt lat="42.89108" lon="12.82792">
        <ele>932</ele>
        <time>2011-04-08T01:58:04Z</time>
        <course>337.444346521579</course>
        <speed>8.31889983700876</speed>
      </trkpt>
      <trkpt lat="42.89118" lon="12.82801">
        <ele>931</ele>
        <time>2011-04-08T01:58:06Z</time>
        <course>315.23524491274</course>
        <speed>8.31437796369275</speed>
      </trkpt>
      <trkpt lat="42.89152" lon="12.82874">
        <ele>927</ele>
        <time>2011-04-08T01:58:14Z</time>
        <course>342.13695389503</course>
        <speed>8.31705951346943</speed>
      </trkpt>
      <trkpt lat="42.89241" lon="12.82936">
        <ele>921</ele>
        <time>2011-04-08T01:58:28Z</time>
        <course>329.150032462698</course>
        <speed>8.31627656441062</speed>
      </trkpt>
      <trkpt lat="42.89272" lon="12.82976">
        <ele>920</ele>
        <time>2011-04-08T01:58:33Z</time>
        <course>352.719109871397</course>
        <speed>8.31540275617126</speed>
      </trkpt>
      <trkpt lat="42.8937" lon="12.83003">
        <ele>919</ele>
        <time>2011-04-08T01:58:47Z</time>
        <course>328.707049525325</course>
        <speed>8.32370835916073</speed>
      </trkpt>
      <trkpt lat="42.89412" lon="12.83058">
        <ele>908</ele>
        <time>2011-04-08T01:58:54Z</time>
        <course>342.064344170353</course>
        <speed>8.31783502345324</speed>
      </trkpt>
      <trkpt lat="42.89445" lon="12.83081">
        <ele>902</ele>
        <time>2011-04-08T01:58:59Z</time>
        <course>348.233880534719</course>
        <speed>8.3132563464567</speed>
      </trkpt>
      <trkpt lat="42.89474" lon="12.83094">
        <ele>901</ele>
        <time>2011-04-08T01:59:03Z</time>
        <course>353.373069076132</course>
        <speed>8.2912552459825</speed>
      </trkpt>
      <trkpt lat="42.89482" lon="12.83096">
        <ele>901</ele>
        <time>2011-04-08T01:59:04Z</time>
        <course>8.31510731935727</course>
        <speed>8.31449726649225</speed>
      </trkpt>
      <trkpt lat="42.89517" lon="12.83085">
        <ele>901</ele>
        <time>2011-04-08T01:59:09Z</time>
        <course>20.4216767705526</course>
        <speed>8.32297209973547</speed>
      </trkpt>
      <trkpt lat="42.89557" lon="12.83053">
        <ele>901</ele>
        <time>2011-04-08T01:59:15Z</time>
        <course>24.9597810208697</course>
        <speed>8.31239566697808</speed>
      </trkpt>
      <trkpt lat="42.89564" lon="12.83046">
        <ele>900</ele>
        <time>2011-04-08T01:59:17Z</time>
        <course>45.1409119518452</course>
        <speed>8.31441123572509</speed>
      </trkpt>
      <trkpt lat="42.89583" lon="12.83005">
        <ele>897</ele>
        <time>2011-04-08T01:59:21Z</time>
        <course>357.865751878246</course>
        <speed>8.30676676195945</speed>
      </trkpt>
      <trkpt lat="42.89608" lon="12.83007">
        <ele>895</ele>
        <time>2011-04-08T01:59:25Z</time>
        <course>334.999574737926</course>
        <speed>8.32261129251965</speed>
      </trkpt>
      <trkpt lat="42.89657" lon="12.83056">
        <ele>891</ele>
        <time>2011-04-08T01:59:33Z</time>
        <course>341.776213762666</course>
        <speed>8.30729781044113</speed>
      </trkpt>
      <trkpt lat="42.89674" lon="12.83068">
        <ele>888</ele>
        <time>2011-04-08T01:59:35Z</time>
        <course>351.159280586735</course>
        <speed>8.3117198911851</speed>
      </trkpt>
      <trkpt lat="42.89695" lon="12.83075">
        <ele>886</ele>
        <time>2011-04-08T01:59:38Z</time>
        <course>359.436172448862</course>
        <speed>8.31966539008451</speed>
      </trkpt>
      <trkpt lat="42.8979" lon="12.83077">
        <ele>875</ele>
        <time>2011-04-08T01:59:51Z</time>
        <course>11.3357759610168</course>
        <speed>3.96148979702484</speed>
      </trkpt>
      <trkpt lat="42.89825" lon="12.83062">
        <ele>877</ele>
        <time>2011-04-08T02:00:01Z</time>
        <course>33.6656399101081</course>
        <speed>3.9634793498052</speed>
      </trkpt>
      <trkpt lat="42.89851" lon="12.83025">
        <ele>879</ele>
        <time>2011-04-08T02:00:12Z</time>
        <course>11.7515979904943</course>
        <speed>3.96887278221361</speed>
      </trkpt>
      <trkpt lat="42.8986" lon="12.83021">
        <ele>880</ele>
        <time>2011-04-08T02:00:14Z</time>
        <course>348.655579564247</course>
        <speed>3.95764046571784</speed>
      </trkpt>
      <trkpt lat="42.89867" lon="12.83024">
        <ele>880</ele>
        <time>2011-04-08T02:00:16Z</time>
        <course>338.686618968063</course>
        <speed>3.96515337142312</speed>
      </trkpt>
      <trkpt lat="42.89873" lon="12.83029">
        <ele>881</ele>
        <time>2011-04-08T02:00:18Z</time>
        <course>315.82034424136</course>
        <speed>8.31894000961833</speed>
      </trkpt>
      <trkpt lat="42.899" lon="12.83085">
        <ele>875</ele>
        <time>2011-04-08T02:00:25Z</time>
        <course>322.507489272136</course>
        <speed>8.32031610799848</speed>
      </trkpt>
      <trkpt lat="42.89933" lon="12.83139">
        <ele>869</ele>
        <time>2011-04-08T02:00:32Z</time>
        <course>303.444866503893</course>
        <speed>8.32258211223176</speed>
      </trkpt>
      <trkpt lat="42.89955" lon="12.8321">
        <ele>861</ele>
        <time>2011-04-08T02:00:39Z</time>
        <course>323.114445846622</course>
        <speed>8.31081594822765</speed>
      </trkpt>
      <trkpt lat="42.89965" lon="12.83226">
        <ele>859</ele>
        <time>2011-04-08T02:00:42Z</time>
        <course>349.363048925581</course>
        <speed>8.32039155012947</speed>
      </trkpt>
      <trkpt lat="42.90025" lon="12.8325">
        <ele>851</ele>
        <time>2011-04-08T02:00:50Z</time>
        <course>331.494262308143</course>
        <speed>8.31391594886457</speed>
      </trkpt>
      <trkpt lat="42.9007" lon="12.83302">
        <ele>845</ele>
        <time>2011-04-08T02:00:58Z</time>
        <course>339.584801662004</course>
        <speed>8.30965728378658</speed>
      </trkpt>
      <trkpt lat="42.90094" lon="12.83321">
        <ele>843</ele>
        <time>2011-04-08T02:01:01Z</time>
        <course>355.961660255964</course>
        <speed>8.32174600241984</speed>
      </trkpt>
      <trkpt lat="42.90154" lon="12.8333">
        <ele>838</ele>
        <time>2011-04-08T02:01:10Z</time>
        <course>341.761530611143</course>
        <speed>8.32512146393613</speed>
      </trkpt>
      <trkpt lat="42.90164" lon="12.83337">
        <ele>837</ele>
        <time>2011-04-08T02:01:11Z</time>
        <course>293.717227993929</course>
        <speed>8.31488105058039</speed>
      </trkpt>
      <trkpt lat="42.9017" lon="12.83366">
        <ele>836</ele>
        <time>2011-04-08T02:01:14Z</time>
        <course>321.869580428641</course>
        <speed>8.32418394795609</speed>
      </trkpt>
      <trkpt lat="42.90185" lon="12.83391">
        <ele>834</ele>
        <time>2011-04-08T02:01:17Z</time>
        <course>339.812435703304</course>
        <speed>8.31814238586253</speed>
      </trkpt>
      <trkpt lat="42.90325" lon="12.835">
        <ele>825</ele>
        <time>2011-04-08T02:01:39Z</time>
        <course>321.138044043224</course>
        <speed>8.32864176570356</speed>
      </trkpt>
      <trkpt lat="42.90342" lon="12.83529">
        <ele>822</ele>
        <time>2011-04-08T02:01:42Z</time>
        <course>305.195947620531</course>
        <speed>8.31879495815869</speed>
      </trkpt>
      <trkpt lat="42.90358" lon="12.83577">
        <ele>818</ele>
        <time>2011-04-08T02:01:47Z</time>
        <course>324.667645597127</course>
        <speed>8.32381319371297</speed>
      </trkpt>
      <trkpt lat="42.9037" lon="12.83595">
        <ele>816</ele>
        <time>2011-04-08T02:01:50Z</time>
        <course>341.617600423747</course>
        <speed>8.31677347427587</speed>
      </trkpt>
      <trkpt lat="42.90407" lon="12.83621">
        <ele>813</ele>
        <time>2011-04-08T02:01:55Z</time>
        <course>336.122818165625</course>
        <speed>8.31844160189989</speed>
      </trkpt>
      <trkpt lat="42.90438" lon="12.8365">
        <ele>812</ele>
        <time>2011-04-08T02:02:00Z</time>
        <course>334.177924150925</course>
        <speed>8.3175009013907</speed>
      </trkpt>
      <trkpt lat="42.90535" lon="12.83749">
        <ele>809</ele>
        <time>2011-04-08T02:02:17Z</time>
        <course>327.336213776493</course>
        <speed>8.32370465817123</speed>
      </trkpt>
      <trkpt lat="42.90572" lon="12.83799">
        <ele>806</ele>
        <time>2011-04-08T02:02:24Z</time>
        <course>349.80160224294</course>
        <speed>8.31799623102622</speed>
      </trkpt>
      <trkpt lat="42.90638" lon="12.83824">
        <ele>804</ele>
        <time>2011-04-08T02:02:33Z</time>
        <course>342.319446559574</course>
        <speed>6.37818290445165</speed>
      </trkpt>
      <trkpt lat="42.90744" lon="12.83895">
        <ele>806</ele>
        <time>2011-04-08T02:02:53Z</time>
        <course>348.687385113941</course>
        <speed>8.31610423412143</speed>
      </trkpt>
      <trkpt lat="42.90794" lon="12.83916">
        <ele>803</ele>
        <time>2011-04-08T02:03:00Z</time>
        <course>356.752169649094</course>
        <speed>8.32104524389715</speed>
      </trkpt>
      <trkpt lat="42.90836" lon="12.83921">
        <ele>801</ele>
        <time>2011-04-08T02:03:06Z</time>
        <course>347.414926692158</course>
        <speed>8.31949848498488</speed>
      </trkpt>
      <trkpt lat="42.90973" lon="12.83985">
        <ele>793</ele>
        <time>2011-04-08T02:03:25Z</time>
        <course>338.330093752553</course>
        <speed>8.32290871249961</speed>
      </trkpt>
      <trkpt lat="42.91032" lon="12.84034">
        <ele>788</ele>
        <time>2011-04-08T02:03:34Z</time>
        <course>347.17915626665</course>
        <speed>8.32201956599316</speed>
      </trkpt>
      <trkpt lat="42.91112" lon="12.84072">
        <ele>783</ele>
        <time>2011-04-08T02:03:46Z</time>
        <course>308.040313314477</course>
        <speed>8.31208079234784</speed>
      </trkpt>
      <trkpt lat="42.91124" lon="12.84104">
        <ele>782</ele>
        <time>2011-04-08T02:03:49Z</time>
        <course>290.197766555771</course>
        <speed>8.32247631860278</speed>
      </trkpt>
      <trkpt lat="42.91136" lon="12.84172">
        <ele>782</ele>
        <time>2011-04-08T02:03:56Z</time>
        <course>315.317112817468</course>
        <speed>8.32266885899979</speed>
      </trkpt>
      <trkpt lat="42.91152" lon="12.84205">
        <ele>782</ele>
        <time>2011-04-08T02:04:00Z</time>
        <course>332.163865424887</course>
        <speed>8.32044123299383</speed>
      </trkpt>
      <trkpt lat="42.91212" lon="12.84271">
        <ele>774</ele>
        <time>2011-04-08T02:04:10Z</time>
        <course>316.919581869021</course>
        <speed>8.32040621022496</speed>
      </trkpt>
      <trkpt lat="42.91231" lon="12.84308">
        <ele>771</ele>
        <time>2011-04-08T02:04:15Z</time>
        <course>309.171511236594</course>
        <speed>8.32250966784926</speed>
      </trkpt>
      <trkpt lat="42.9124" lon="12.84331">
        <ele>770</ele>
        <time>2011-04-08T02:04:17Z</time>
        <course>293.147504817547</course>
        <speed>8.32078149223998</speed>
      </trkpt>
      <trkpt lat="42.91262" lon="12.84438">
        <ele>768</ele>
        <time>2011-04-08T02:04:28Z</time>
        <course>306.608648496628</course>
        <speed>8.31223262899763</speed>
      </trkpt>
      <trkpt lat="42.91282" lon="12.84494">
        <ele>768</ele>
        <time>2011-04-08T02:04:34Z</time>
        <course>332.385026467933</course>
        <speed>8.31929091328321</speed>
      </trkpt>
      <trkpt lat="42.91351" lon="12.84569">
        <ele>768</ele>
        <time>2011-04-08T02:04:46Z</time>
        <course>314.816566353184</course>
        <speed>8.31058420788388</speed>
      </trkpt>
      <trkpt lat="42.91362" lon="12.84592">
        <ele>767</ele>
        <time>2011-04-08T02:04:49Z</time>
        <course>294.773396429357</course>
        <speed>8.3170667913082</speed>
      </trkpt>
      <trkpt lat="42.91409" lon="12.84803">
        <ele>759</ele>
        <time>2011-04-08T02:05:10Z</time>
        <course>322.926223613916</course>
        <speed>8.31675201925458</speed>
      </trkpt>
      <trkpt lat="42.91485" lon="12.84922">
        <ele>753</ele>
        <time>2011-04-08T02:05:26Z</time>
        <course>313.059251495653</course>
        <speed>8.32066923798799</speed>
      </trkpt>
      <trkpt lat="42.91522" lon="12.85004">
        <ele>750</ele>
        <time>2011-04-08T02:05:35Z</time>
        <course>290.206582404073</course>
        <speed>8.31887908203603</speed>
      </trkpt>
      <trkpt lat="42.9153" lon="12.85049">
        <ele>749</ele>
        <time>2011-04-08T02:05:40Z</time>
        <course>279.910748945311</course>
        <speed>4.12504530905214</speed>
      </trkpt>
      <trkpt lat="42.91536" lon="12.8512">
        <ele>751</ele>
        <time>2011-04-08T02:05:54Z</time>
        <course>295.70379413289</course>
        <speed>4.12722814049721</speed>
      </trkpt>
      <trkpt lat="42.91563" lon="12.85236">
        <ele>757</ele>
        <time>2011-04-08T02:06:18Z</time>
        <course>285.619366758217</course>
        <speed>8.32030491689653</speed>
      </trkpt>
      <trkpt lat="42.91568" lon="12.85273">
        <ele>756</ele>
        <time>2011-04-08T02:06:21Z</time>
        <course>267.975787099004</course>
        <speed>8.3235258007732</speed>
      </trkpt>
      <trkpt lat="42.91567" lon="12.85332">
        <ele>755</ele>
        <time>2011-04-08T02:06:27Z</time>
        <course>284.498915108121</course>
        <speed>8.30755482697581</speed>
      </trkpt>
      <trkpt lat="42.91571" lon="12.85364">
        <ele>755</ele>
        <time>2011-04-08T02:06:30Z</time>
        <course>312.974659485893</course>
        <speed>8.31565383643501</speed>
      </trkpt>
      <trkpt lat="42.91626" lon="12.85486">
        <ele>748</ele>
        <time>2011-04-08T02:06:44Z</time>
        <course>290.26273147237</course>
        <speed>8.31619532744869</speed>
      </trkpt>
      <trkpt lat="42.91648" lon="12.85609">
        <ele>735</ele>
        <time>2011-04-08T02:06:57Z</time>
        <course>303.572473297273</course>
        <speed>8.32240778362065</speed>
      </trkpt>
      <trkpt lat="42.91675" lon="12.85693">
        <ele>730</ele>
        <time>2011-04-08T02:07:06Z</time>
        <course>310.919032558118</course>
        <speed>8.3160507554013</speed>
      </trkpt>
      <trkpt lat="42.91733" lon="12.85831">
        <ele>722</ele>
        <time>2011-04-08T02:07:21Z</time>
        <course>294.288165835496</course>
        <speed>8.31119526104529</speed>
      </trkpt>
      <trkpt lat="42.9174" lon="12.85863">
        <ele>720</ele>
        <time>2011-04-08T02:07:25Z</time>
        <course>275.798150658135</course>
        <speed>8.32055344315642</speed>
      </trkpt>
      <trkpt lat="42.91744" lon="12.85944">
        <ele>715</ele>
        <time>2011-04-08T02:07:33Z</time>
        <course>260.384481612134</course>
        <speed>8.32500612215881</speed>
      </trkpt>
      <trkpt lat="42.91739" lon="12.86005">
        <ele>712</ele>
        <time>2011-04-08T02:07:39Z</time>
        <course>282.245620044174</course>
        <speed>8.3088122264734</speed>
      </trkpt>
      <trkpt lat="42.91743" lon="12.86043">
        <ele>711</ele>
        <time>2011-04-08T02:07:42Z</time>
        <course>315.891837658286</course>
        <speed>8.297685904001</speed>
      </trkpt>
      <trkpt lat="42.91747" lon="12.86051">
        <ele>711</ele>
        <time>2011-04-08T02:07:43Z</time>
        <course>218.919800704412</course>
        <speed>8.32292167669257</speed>
      </trkpt>
      <trkpt lat="42.91732" lon="12.86076">
        <ele>710</ele>
        <time>2011-04-08T02:07:46Z</time>
        <course>271.774551654776</course>
        <speed>8.31586774657124</speed>
      </trkpt>
      <trkpt lat="42.91733" lon="12.86142">
        <ele>710</ele>
        <time>2011-04-08T02:07:53Z</time>
        <course>224.093117753225</course>
        <speed>4.87261978377629</speed>
      </trkpt>
      <trkpt lat="42.91724" lon="12.8616">
        <ele>710</ele>
        <time>2011-04-08T02:07:57Z</time>
        <course>192.149058927134</course>
        <speed>4.86907783819064</speed>
      </trkpt>
      <trkpt lat="42.91715" lon="12.86164">
        <ele>711</ele>
        <time>2011-04-08T02:07:59Z</time>
        <course>192.149058927134</course>
        <speed>4.86907783819064</speed>
      </trkpt>
      <trkpt lat="42.91715" lon="12.86164">
        <ele>711</ele>
        <time>2011-04-08T02:08:00Z</time>
        <course>12.1510639090964</course>
        <speed>8.34699057975538</speed>
      </trkpt>
      <trkpt lat="42.91724" lon="12.8616">
        <ele>710</ele>
        <time>2011-04-08T02:08:01Z</time>
        <course>44.1021397223892</course>
        <speed>8.32691831593694</speed>
      </trkpt>
      <trkpt lat="42.91733" lon="12.86142">
        <ele>710</ele>
        <time>2011-04-08T02:08:03Z</time>
        <course>95.6235300273342</course>
        <speed>8.31326278941419</speed>
      </trkpt>
      <trkpt lat="42.91731" lon="12.861">
        <ele>710</ele>
        <time>2011-04-08T02:08:07Z</time>
        <course>85.0909109582421</course>
        <speed>8.32431427240273</speed>
      </trkpt>
      <trkpt lat="42.91732" lon="12.86076">
        <ele>709</ele>
        <time>2011-04-08T02:08:10Z</time>
        <course>38.9323304537123</course>
        <speed>8.32292167669257</speed>
      </trkpt>
      <trkpt lat="42.91747" lon="12.86051">
        <ele>709</ele>
        <time>2011-04-08T02:08:13Z</time>
        <course>312.695116975105</course>
        <speed>8.31115861555516</speed>
      </trkpt>
      <trkpt lat="42.91764" lon="12.86089">
        <ele>709</ele>
        <time>2011-04-08T02:08:17Z</time>
        <course>305.417091625463</course>
        <speed>8.31711371550041</speed>
      </trkpt>
      <trkpt lat="42.91821" lon="12.86254">
        <ele>707</ele>
        <time>2011-04-08T02:08:35Z</time>
        <course>313.867388108485</course>
        <speed>3.89088937194154</speed>
      </trkpt>
      <trkpt lat="42.91835" lon="12.86284">
        <ele>708</ele>
        <time>2011-04-08T02:08:42Z</time>
        <course>329.770899935598</course>
        <speed>3.88608490800885</speed>
      </trkpt>
      <trkpt lat="42.9185" lon="12.86302">
        <ele>709</ele>
        <time>2011-04-08T02:08:48Z</time>
        <course>204.26339097173</course>
        <speed>3.88696862147667</speed>
      </trkpt>
      <trkpt lat="42.91836" lon="12.86315">
        <ele>710</ele>
        <time>2011-04-08T02:08:53Z</time>
        <course>189.183520803987</course>
        <speed>3.88836974354397</speed>
      </trkpt>
      <trkpt lat="42.91788" lon="12.86331">
        <ele>714</ele>
        <time>2011-04-08T02:09:07Z</time>
        <course>176.250911805561</course>
        <speed>3.8886031274871</speed>
      </trkpt>
      <trkpt lat="42.91633" lon="12.8631">
        <ele>724</ele>
        <time>2011-04-08T02:09:52Z</time>
        <course>186.192995094856</course>
        <speed>3.78930593105672</speed>
      </trkpt>
      <trkpt lat="42.91544" lon="12.8633">
        <ele>730</ele>
        <time>2011-04-08T02:10:18Z</time>
        <course>190.550403546442</course>
        <speed>2.7420113313433</speed>
      </trkpt>
      <trkpt lat="42.91425" lon="12.86376">
        <ele>744</ele>
        <time>2011-04-08T02:11:08Z</time>
        <course>186.278012703495</course>
        <speed>4.05582579648951</speed>
      </trkpt>
      <trkpt lat="42.91307" lon="12.86403">
        <ele>751</ele>
        <time>2011-04-08T02:11:41Z</time>
        <course>183.435843102594</course>
        <speed>5.44315549049718</speed>
      </trkpt>
      <trkpt lat="42.91251" lon="12.8641">
        <ele>752</ele>
        <time>2011-04-08T02:11:52Z</time>
        <course>190.504650156064</course>
        <speed>5.44032147585784</speed>
      </trkpt>
      <trkpt lat="42.91207" lon="12.86427">
        <ele>754</ele>
        <time>2011-04-08T02:12:02Z</time>
        <course>193.830774214224</course>
        <speed>3.44575627980108</speed>
      </trkpt>
      <trkpt lat="42.911" lon="12.86482">
        <ele>763</ele>
        <time>2011-04-08T02:12:39Z</time>
        <course>187.688512922848</course>
        <speed>7.41236706218273</speed>
      </trkpt>
      <trkpt lat="42.91061" lon="12.86493">
        <ele>763</ele>
        <time>2011-04-08T02:12:45Z</time>
        <course>176.169849239431</course>
        <speed>7.41717406672396</speed>
      </trkpt>
      <trkpt lat="42.91011" lon="12.86486">
        <ele>763</ele>
        <time>2011-04-08T02:12:52Z</time>
        <course>184.313463924543</course>
        <speed>7.41401613750536</speed>
      </trkpt>
      <trkpt lat="42.90954" lon="12.86495">
        <ele>764</ele>
        <time>2011-04-08T02:13:01Z</time>
        <course>172.307826898733</course>
        <speed>4.40304707960714</speed>
      </trkpt>
      <trkpt lat="42.90901" lon="12.8648">
        <ele>766</ele>
        <time>2011-04-08T02:13:14Z</time>
        <course>168.755949580524</course>
        <speed>4.39796038714029</speed>
      </trkpt>
      <trkpt lat="42.90889" lon="12.86475">
        <ele>767</ele>
        <time>2011-04-08T02:13:17Z</time>
        <course>149.126073467145</course>
        <speed>4.40315630320436</speed>
      </trkpt>
      <trkpt lat="42.90834" lon="12.86406">
        <ele>771</ele>
        <time>2011-04-08T02:13:36Z</time>
        <course>158.516702559674</course>
        <speed>5.17709071389734</speed>
      </trkpt>
      <trkpt lat="42.90811" lon="12.86387">
        <ele>771</ele>
        <time>2011-04-08T02:13:42Z</time>
        <course>170.891124327379</course>
        <speed>5.17877074237074</speed>
      </trkpt>
      <trkpt lat="42.90722" lon="12.86357">
        <ele>775</ele>
        <time>2011-04-08T02:14:02Z</time>
        <course>181.433090685734</course>
        <speed>3.93088045944378</speed>
      </trkpt>
      <trkpt lat="42.90684" lon="12.86359">
        <ele>777</ele>
        <time>2011-04-08T02:14:13Z</time>
        <course>186.69985360207</course>
        <speed>3.92907780117249</speed>
      </trkpt>
      <trkpt lat="42.90579" lon="12.86385">
        <ele>784</ele>
        <time>2011-04-08T02:14:43Z</time>
        <course>190.080061495906</course>
        <speed>8.32026662686237</speed>
      </trkpt>
      <trkpt lat="42.90539" lon="12.864">
        <ele>781</ele>
        <time>2011-04-08T02:14:48Z</time>
        <course>209.918806927558</course>
        <speed>8.32799625873158</speed>
      </trkpt>
      <trkpt lat="42.90525" lon="12.86417">
        <ele>780</ele>
        <time>2011-04-08T02:14:51Z</time>
        <course>175.958903601669</course>
        <speed>8.32155565349886</speed>
      </trkpt>
      <trkpt lat="42.90458" lon="12.86407">
        <ele>776</ele>
        <time>2011-04-08T02:15:00Z</time>
        <course>159.516900139157</course>
        <speed>8.32382099105084</speed>
      </trkpt>
      <trkpt lat="42.90439" lon="12.86392">
        <ele>775</ele>
        <time>2011-04-08T02:15:03Z</time>
        <course>173.255149297296</course>
        <speed>8.31664674387308</speed>
      </trkpt>
      <trkpt lat="42.90427" lon="12.86389">
        <ele>774</ele>
        <time>2011-04-08T02:15:04Z</time>
        <course>198.679695056201</course>
        <speed>8.32067501352878</speed>
      </trkpt>
      <trkpt lat="42.90339" lon="12.86452">
        <ele>772</ele>
        <time>2011-04-08T02:15:18Z</time>
        <course>209.162861020543</course>
        <speed>8.33353382946258</speed>
      </trkpt>
      <trkpt lat="42.90328" lon="12.86465">
        <ele>771</ele>
        <time>2011-04-08T02:15:20Z</time>
        <course>173.877141055663</course>
        <speed>8.31639318240933</speed>
      </trkpt>
      <trkpt lat="42.90306" lon="12.8646">
        <ele>771</ele>
        <time>2011-04-08T02:15:22Z</time>
        <course>187.834962166908</course>
        <speed>8.31422693707992</speed>
      </trkpt>
      <trkpt lat="42.90282" lon="12.86467">
        <ele>771</ele>
        <time>2011-04-08T02:15:26Z</time>
        <course>180</course>
        <speed>8.31914438522436</speed>
      </trkpt>
      <trkpt lat="42.90254" lon="12.86467">
        <ele>771</ele>
        <time>2011-04-08T02:15:30Z</time>
        <course>171.622388844427</course>
        <speed>8.30937088959758</speed>
      </trkpt>
      <trkpt lat="42.90222" lon="12.86457">
        <ele>771</ele>
        <time>2011-04-08T02:15:34Z</time>
        <course>197.436512617272</course>
        <speed>8.31808329303018</speed>
      </trkpt>
      <trkpt lat="42.90207" lon="12.86467">
        <ele>770</ele>
        <time>2011-04-08T02:15:36Z</time>
        <course>180.508795264019</course>
        <speed>8.31909954657864</speed>
      </trkpt>
      <trkpt lat="42.90154" lon="12.86468">
        <ele>768</ele>
        <time>2011-04-08T02:15:43Z</time>
        <course>170.214076270663</course>
        <speed>8.31747658009338</speed>
      </trkpt>
      <trkpt lat="42.90124" lon="12.86457">
        <ele>768</ele>
        <time>2011-04-08T02:15:47Z</time>
        <course>180</course>
        <speed>8.31736526943949</speed>
      </trkpt>
      <trkpt lat="42.90024" lon="12.86457">
        <ele>768</ele>
        <time>2011-04-08T02:16:01Z</time>
        <course>168.974933820533</course>
        <speed>7.17813199527712</speed>
      </trkpt>
      <trkpt lat="42.89947" lon="12.86425">
        <ele>768</ele>
        <time>2011-04-08T02:16:13Z</time>
        <course>162.091903967741</course>
        <speed>7.17769012176512</speed>
      </trkpt>
      <trkpt lat="42.89918" lon="12.86405">
        <ele>769</ele>
        <time>2011-04-08T02:16:18Z</time>
        <course>113.832027232924</course>
        <speed>6.38797593313711</speed>
      </trkpt>
      <trkpt lat="42.89912" lon="12.86376">
        <ele>769</ele>
        <time>2011-04-08T02:16:22Z</time>
        <course>177.021490988334</course>
        <speed>6.39100234857208</speed>
      </trkpt>
      <trkpt lat="42.89885" lon="12.86373">
        <ele>769</ele>
        <time>2011-04-08T02:16:27Z</time>
        <course>199.817524756286</course>
        <speed>6.39040707546271</speed>
      </trkpt>
      <trkpt lat="42.89824" lon="12.8642">
        <ele>771</ele>
        <time>2011-04-08T02:16:39Z</time>
        <course>191.396647377325</course>
        <speed>6.95128923337001</speed>
      </trkpt>
      <trkpt lat="42.89773" lon="12.86442">
        <ele>771</ele>
        <time>2011-04-08T02:16:47Z</time>
        <course>206.479291820348</course>
        <speed>6.9583123378822</speed>
      </trkpt>
      <trkpt lat="42.89743" lon="12.86474">
        <ele>772</ele>
        <time>2011-04-08T02:16:54Z</time>
        <course>193.131558487766</course>
        <speed>2.96739660391749</speed>
      </trkpt>
      <trkpt lat="42.89693" lon="12.86499">
        <ele>777</ele>
        <time>2011-04-08T02:17:14Z</time>
        <course>203.838525185056</course>
        <speed>2.96758734146154</speed>
      </trkpt>
      <trkpt lat="42.89674" lon="12.86517">
        <ele>779</ele>
        <time>2011-04-08T02:17:22Z</time>
        <course>180</course>
        <speed>2.96319999993527</speed>
      </trkpt>
      <trkpt lat="42.89666" lon="12.86517">
        <ele>780</ele>
        <time>2011-04-08T02:17:25Z</time>
        <course>161.893405450306</course>
        <speed>2.96743204824475</speed>
      </trkpt>
      <trkpt lat="42.89555" lon="12.86439">
        <ele>793</ele>
        <time>2011-04-08T02:18:12Z</time>
        <course>155.067851029784</course>
        <speed>8.31381557135173</speed>
      </trkpt>
      <trkpt lat="42.89504" lon="12.86388">
        <ele>792</ele>
        <time>2011-04-08T02:18:20Z</time>
        <course>158.968040820825</course>
        <speed>8.31814751530765</speed>
      </trkpt>
      <trkpt lat="42.8944" lon="12.86335">
        <ele>791</ele>
        <time>2011-04-08T02:18:30Z</time>
        <course>168.938538489156</course>
        <speed>5.14829429489211</speed>
      </trkpt>
      <trkpt lat="42.89357" lon="12.863">
        <ele>793</ele>
        <time>2011-04-08T02:18:49Z</time>
        <course>181.798265501334</course>
        <speed>5.14836242019459</speed>
      </trkpt>
      <trkpt lat="42.89298" lon="12.86304">
        <ele>796</ele>
        <time>2011-04-08T02:19:02Z</time>
        <course>145.223692382431</course>
        <speed>8.31462398918179</speed>
      </trkpt>
      <trkpt lat="42.89284" lon="12.86283">
        <ele>795</ele>
        <time>2011-04-08T02:19:05Z</time>
        <course>173.116544386763</course>
        <speed>8.31315859558034</speed>
      </trkpt>
      <trkpt lat="42.89261" lon="12.86277">
        <ele>794</ele>
        <time>2011-04-08T02:19:08Z</time>
        <course>168.385873300156</course>
        <speed>8.31431858035502</speed>
      </trkpt>
      <trkpt lat="42.89225" lon="12.86261">
        <ele>792</ele>
        <time>2011-04-08T02:19:13Z</time>
        <course>176.825251808417</course>
        <speed>8.32452333344402</speed>
      </trkpt>
      <trkpt lat="42.892" lon="12.86258">
        <ele>792</ele>
        <time>2011-04-08T02:19:16Z</time>
        <course>181.129080080032</course>
        <speed>8.31675885228438</speed>
      </trkpt>
      <trkpt lat="42.89083" lon="12.86263">
        <ele>787</ele>
        <time>2011-04-08T02:19:32Z</time>
        <course>185.207854057991</course>
        <speed>8.32033707624289</speed>
      </trkpt>
      <trkpt lat="42.88982" lon="12.86283">
        <ele>782</ele>
        <time>2011-04-08T02:19:45Z</time>
        <course>171.857663701563</course>
        <speed>8.31224944930153</speed>
      </trkpt>
      <trkpt lat="42.88937" lon="12.86269">
        <ele>777</ele>
        <time>2011-04-08T02:19:52Z</time>
        <course>178.746472803448</course>
        <speed>8.32420608955241</speed>
      </trkpt>
      <trkpt lat="42.88895" lon="12.86267">
        <ele>773</ele>
        <time>2011-04-08T02:19:57Z</time>
        <course>189.605271345167</course>
        <speed>8.31500254497018</speed>
      </trkpt>
      <trkpt lat="42.88876" lon="12.86274">
        <ele>771</ele>
        <time>2011-04-08T02:20:00Z</time>
        <course>203.508809095731</course>
        <speed>5.00982714134633</speed>
      </trkpt>
      <trkpt lat="42.88857" lon="12.86292">
        <ele>771</ele>
        <time>2011-04-08T02:20:05Z</time>
        <course>215.531395368538</course>
        <speed>5.00447673008905</speed>
      </trkpt>
      <trkpt lat="42.88848" lon="12.86306">
        <ele>772</ele>
        <time>2011-04-08T02:20:08Z</time>
        <course>233.235283585392</course>
        <speed>5.00971340954064</speed>
      </trkpt>
      <trkpt lat="42.88836" lon="12.86341">
        <ele>773</ele>
        <time>2011-04-08T02:20:14Z</time>
        <course>336.547740469693</course>
        <speed>5.00996244080038</speed>
      </trkpt>
      <trkpt lat="42.88872" lon="12.86375">
        <ele>775</ele>
        <time>2011-04-08T02:20:24Z</time>
        <course>336.547740469693</course>
        <speed>5.00996244080038</speed>
      </trkpt>
      <trkpt lat="42.88872" lon="12.86375">
        <ele>775</ele>
        <time>2011-04-08T02:20:25Z</time>
        <course>156.998573662742</course>
        <speed>8.32467208416206</speed>
      </trkpt>
      <trkpt lat="42.88832" lon="12.86338">
        <ele>774</ele>
        <time>2011-04-08T02:20:31Z</time>
        <course>148.172289734372</course>
        <speed>8.31212226773005</speed>
      </trkpt>
      <trkpt lat="42.88815" lon="12.86315">
        <ele>774</ele>
        <time>2011-04-08T02:20:35Z</time>
        <course>141.53815928594</course>
        <speed>8.31567856576192</speed>
      </trkpt>
      <trkpt lat="42.8877" lon="12.86237">
        <ele>773</ele>
        <time>2011-04-08T02:20:44Z</time>
        <course>149.373700773372</course>
        <speed>8.3223582684032</speed>
      </trkpt>
      <trkpt lat="42.88729" lon="12.86184">
        <ele>773</ele>
        <time>2011-04-08T02:20:52Z</time>
        <course>158.904385409687</course>
        <speed>8.31622352141928</speed>
      </trkpt>
      <trkpt lat="42.88678" lon="12.86141">
        <ele>773</ele>
        <time>2011-04-08T02:21:00Z</time>
        <course>167.657280429012</course>
        <speed>7.19541556177217</speed>
      </trkpt>
      <trkpt lat="42.88607" lon="12.86107">
        <ele>773</ele>
        <time>2011-04-08T02:21:12Z</time>
        <course>163.069044943508</course>
        <speed>7.19234924456652</speed>
      </trkpt>
      <trkpt lat="42.88571" lon="12.86083">
        <ele>774</ele>
        <time>2011-04-08T02:21:18Z</time>
        <course>169.072245215494</course>
        <speed>4.60836397385072</speed>
      </trkpt>
      <trkpt lat="42.88486" lon="12.86047">
        <ele>777</ele>
        <time>2011-04-08T02:21:39Z</time>
        <course>163.712683181797</course>
        <speed>4.60712905881018</speed>
      </trkpt>
      <trkpt lat="42.88405" lon="12.85995">
        <ele>782</ele>
        <time>2011-04-08T02:22:01Z</time>
        <course>169.915676999671</course>
        <speed>5.27879257302377</speed>
      </trkpt>
      <trkpt lat="42.88285" lon="12.85948">
        <ele>786</ele>
        <time>2011-04-08T02:22:27Z</time>
        <course>167.013601411956</course>
        <speed>5.73941957849459</speed>
      </trkpt>
      <trkpt lat="42.88226" lon="12.85918">
        <ele>787</ele>
        <time>2011-04-08T02:22:39Z</time>
        <course>160.94402747485</course>
        <speed>5.73509653365125</speed>
      </trkpt>
      <trkpt lat="42.88205" lon="12.85902">
        <ele>788</ele>
        <time>2011-04-08T02:22:44Z</time>
        <course>171.941064556768</course>
        <speed>5.73565122989943</speed>
      </trkpt>
      <trkpt lat="42.88173" lon="12.85892">
        <ele>789</ele>
        <time>2011-04-08T02:22:50Z</time>
        <course>181.673352302077</course>
        <speed>3.21995069132841</speed>
      </trkpt>
      <trkpt lat="42.88142" lon="12.85894">
        <ele>791</ele>
        <time>2011-04-08T02:23:01Z</time>
        <course>186.45503708564</course>
        <speed>3.22111644566292</speed>
      </trkpt>
      <trkpt lat="42.88114" lon="12.85901">
        <ele>794</ele>
        <time>2011-04-08T02:23:11Z</time>
        <course>194.011632629191</course>
        <speed>3.22138137108141</speed>
      </trkpt>
      <trkpt lat="42.88085" lon="12.85917">
        <ele>797</ele>
        <time>2011-04-08T02:23:22Z</time>
        <course>188.040151569856</course>
        <speed>7.28119304838768</speed>
      </trkpt>
      <trkpt lat="42.88053" lon="12.85927">
        <ele>797</ele>
        <time>2011-04-08T02:23:27Z</time>
        <course>178.477917924207</course>
        <speed>7.28629711089255</speed>
      </trkpt>
      <trkpt lat="42.88019" lon="12.85925">
        <ele>797</ele>
        <time>2011-04-08T02:23:32Z</time>
        <course>165.290520930715</course>
        <speed>7.28495154406262</speed>
      </trkpt>
      <trkpt lat="42.87964" lon="12.85893">
        <ele>798</ele>
        <time>2011-04-08T02:23:41Z</time>
        <course>161.886851070942</course>
        <speed>3.60751404733154</speed>
      </trkpt>
      <trkpt lat="42.87891" lon="12.8584">
        <ele>804</ele>
        <time>2011-04-08T02:24:06Z</time>
        <course>156.726014744159</course>
        <speed>3.60781214061476</speed>
      </trkpt>
      <trkpt lat="42.87846" lon="12.85797">
        <ele>808</ele>
        <time>2011-04-08T02:24:23Z</time>
        <course>151.069238598668</course>
        <speed>3.6218286771016</speed>
      </trkpt>
      <trkpt lat="42.87798" lon="12.85738">
        <ele>812</ele>
        <time>2011-04-08T02:24:43Z</time>
        <course>136.644219381594</course>
        <speed>3.62227787173097</speed>
      </trkpt>
      <trkpt lat="42.87788" lon="12.85717">
        <ele>813</ele>
        <time>2011-04-08T02:24:49Z</time>
        <course>119.084644170609</course>
        <speed>3.62263841101115</speed>
      </trkpt>
      <trkpt lat="42.87779" lon="12.85681">
        <ele>816</ele>
        <time>2011-04-08T02:24:57Z</time>
        <course>145.591638699186</course>
        <speed>3.43054208760416</speed>
      </trkpt>
      <trkpt lat="42.87739" lon="12.8562">
        <ele>820</ele>
        <time>2011-04-08T02:25:17Z</time>
        <course>157.741677445103</course>
        <speed>3.42928706383759</speed>
      </trkpt>
      <trkpt lat="42.87705" lon="12.85589">
        <ele>824</ele>
        <time>2011-04-08T02:25:30Z</time>
        <course>153.057859316538</course>
        <speed>5.38086779805184</speed>
      </trkpt>
      <trkpt lat="42.8766" lon="12.85538">
        <ele>825</ele>
        <time>2011-04-08T02:25:42Z</time>
        <course>168.014708103652</course>
        <speed>5.37873500932326</speed>
      </trkpt>
      <trkpt lat="42.87622" lon="12.8552">
        <ele>827</ele>
        <time>2011-04-08T02:25:50Z</time>
        <course>157.30738807967</course>
        <speed>3.41689711745002</speed>
      </trkpt>
      <trkpt lat="42.87607" lon="12.85506">
        <ele>828</ele>
        <time>2011-04-08T02:25:56Z</time>
        <course>129.586690049614</course>
        <speed>3.41785711127429</speed>
      </trkpt>
      <trkpt lat="42.8757" lon="12.85406">
        <ele>835</ele>
        <time>2011-04-08T02:26:23Z</time>
        <course>149.177689384936</course>
        <speed>4.38514151340128</speed>
      </trkpt>
      <trkpt lat="42.87549" lon="12.85378">
        <ele>836</ele>
        <time>2011-04-08T02:26:30Z</time>
        <course>159.860665338497</course>
        <speed>4.38335003885932</speed>
      </trkpt>
      <trkpt lat="42.87437" lon="12.85286">
        <ele>843</ele>
        <time>2011-04-08T02:27:04Z</time>
        <course>164.383483930263</course>
        <speed>3.19045518227254</speed>
      </trkpt>
      <trkpt lat="42.8737" lon="12.85244">
        <ele>849</ele>
        <time>2011-04-08T02:27:29Z</time>
        <course>156.95298156851</course>
        <speed>3.19082950239685</speed>
      </trkpt>
      <trkpt lat="42.87348" lon="12.85223">
        <ele>852</ele>
        <time>2011-04-08T02:27:39Z</time>
        <course>146.41216704071</course>
        <speed>3.10519273084792</speed>
      </trkpt>
      <trkpt lat="42.87283" lon="12.85126">
        <ele>861</ele>
        <time>2011-04-08T02:28:13Z</time>
        <course>157.188694786579</course>
        <speed>2.47924923521768</speed>
      </trkpt>
      <trkpt lat="42.87189" lon="12.85037">
        <ele>876</ele>
        <time>2011-04-08T02:29:04Z</time>
        <course>161.802703746336</course>
        <speed>3.17270982900059</speed>
      </trkpt>
      <trkpt lat="42.87135" lon="12.84997">
        <ele>881</ele>
        <time>2011-04-08T02:29:26Z</time>
        <course>148.708963134952</course>
        <speed>3.17325558579592</speed>
      </trkpt>
      <trkpt lat="42.87108" lon="12.8496">
        <ele>885</ele>
        <time>2011-04-08T02:29:39Z</time>
        <course>161.342454158235</course>
        <speed>6.17245067236703</speed>
      </trkpt>
      <trkpt lat="42.87066" lon="12.84928">
        <ele>885</ele>
        <time>2011-04-08T02:29:48Z</time>
        <course>150.074862328263</course>
        <speed>6.17007535763319</speed>
      </trkpt>
      <trkpt lat="42.87026" lon="12.84876">
        <ele>887</ele>
        <time>2011-04-08T02:29:58Z</time>
        <course>162.885903335713</course>
        <speed>2.95444241432356</speed>
      </trkpt>
      <trkpt lat="42.87003" lon="12.8486">
        <ele>889</ele>
        <time>2011-04-08T02:30:08Z</time>
        <course>171.376804530539</course>
        <speed>2.95295007373694</speed>
      </trkpt>
      <trkpt lat="42.86968" lon="12.84848">
        <ele>893</ele>
        <time>2011-04-08T02:30:21Z</time>
        <course>174.57651390404</course>
        <speed>2.95336859027841</speed>
      </trkpt>
      <trkpt lat="42.86824" lon="12.84817">
        <ele>908</ele>
        <time>2011-04-08T02:31:16Z</time>
        <course>178.317440149073</course>
        <speed>4.64843596949009</speed>
      </trkpt>
      <trkpt lat="42.86779" lon="12.84814">
        <ele>909</ele>
        <time>2011-04-08T02:31:27Z</time>
        <course>173.587149966968</course>
        <speed>4.65023617695791</speed>
      </trkpt>
      <trkpt lat="42.86689" lon="12.84791">
        <ele>914</ele>
        <time>2011-04-08T02:31:49Z</time>
        <course>180</course>
        <speed>5.6553507565325</speed>
      </trkpt>
      <trkpt lat="42.86652" lon="12.84791">
        <ele>914</ele>
        <time>2011-04-08T02:31:56Z</time>
        <course>176.395410941932</course>
        <speed>5.65702162462295</speed>
      </trkpt>
      <trkpt lat="42.86499" lon="12.84769">
        <ele>919</ele>
        <time>2011-04-08T02:32:26Z</time>
        <course>172.248875652334</course>
        <speed>4.46833143334544</speed>
      </trkpt>
      <trkpt lat="42.86377" lon="12.84731">
        <ele>925</ele>
        <time>2011-04-08T02:32:57Z</time>
        <course>161.863442880408</course>
        <speed>3.62296180701601</speed>
      </trkpt>
      <trkpt lat="42.86349" lon="12.8471">
        <ele>927</ele>
        <time>2011-04-08T02:33:07Z</time>
        <course>148.781084408414</course>
        <speed>3.62215962943803</speed>
      </trkpt>
      <trkpt lat="42.86313" lon="12.8466">
        <ele>931</ele>
        <time>2011-04-08T02:33:23Z</time>
        <course>155.689548049618</course>
        <speed>3.6219853288028</speed>
      </trkpt>
      <trkpt lat="42.86258" lon="12.84603">
        <ele>936</ele>
        <time>2011-04-08T02:33:44Z</time>
        <course>169.892866597503</course>
        <speed>6.06218540053215</speed>
      </trkpt>
      <trkpt lat="42.86236" lon="12.84594">
        <ele>936</ele>
        <time>2011-04-08T02:33:48Z</time>
        <course>175.414436347856</course>
        <speed>6.06099345205177</speed>
      </trkpt>
      <trkpt lat="42.86198" lon="12.84587">
        <ele>937</ele>
        <time>2011-04-08T02:33:55Z</time>
        <course>183.556613224707</course>
        <speed>6.06273544751705</speed>
      </trkpt>
      <trkpt lat="42.86163" lon="12.84592">
        <ele>938</ele>
        <time>2011-04-08T02:34:02Z</time>
        <course>190.923927815854</course>
        <speed>5.30147370899275</speed>
      </trkpt>
      <trkpt lat="42.86073" lon="12.84632">
        <ele>941</ele>
        <time>2011-04-08T02:34:22Z</time>
        <course>178.726279498702</course>
        <speed>8.31589790238153</speed>
      </trkpt>
      <trkpt lat="42.85995" lon="12.84628">
        <ele>939</ele>
        <time>2011-04-08T02:34:32Z</time>
        <course>174.432883975065</course>
        <speed>8.31152709818012</speed>
      </trkpt>
      <trkpt lat="42.85955" lon="12.84619">
        <ele>939</ele>
        <time>2011-04-08T02:34:37Z</time>
        <course>169.111951767577</course>
        <speed>8.32132449356403</speed>
      </trkpt>
      <trkpt lat="42.8591" lon="12.84599">
        <ele>936</ele>
        <time>2011-04-08T02:34:44Z</time>
        <course>166.440886061785</course>
        <speed>8.31970372879611</speed>
      </trkpt>
      <trkpt lat="42.85799" lon="12.84537">
        <ele>929</ele>
        <time>2011-04-08T02:35:00Z</time>
        <course>163.674428795228</course>
        <speed>8.31875670358408</speed>
      </trkpt>
      <trkpt lat="42.85721" lon="12.84484">
        <ele>918</ele>
        <time>2011-04-08T02:35:11Z</time>
        <course>168.469077455332</course>
        <speed>8.317324552665</speed>
      </trkpt>
      <trkpt lat="42.85624" lon="12.84438">
        <ele>907</ele>
        <time>2011-04-08T02:35:25Z</time>
        <course>144.362355457494</course>
        <speed>8.28852048611812</speed>
      </trkpt>
      <trkpt lat="42.85618" lon="12.84428">
        <ele>906</ele>
        <time>2011-04-08T02:35:26Z</time>
        <course>59.8414027607785</course>
        <speed>8.2953907118478</speed>
      </trkpt>
      <trkpt lat="42.85622" lon="12.84412">
        <ele>905</ele>
        <time>2011-04-08T02:35:28Z</time>
        <course>9.16590741900981</course>
        <speed>8.3057413685769</speed>
      </trkpt>
      <trkpt lat="42.8563" lon="12.84409">
        <ele>904</ele>
        <time>2011-04-08T02:35:29Z</time>
        <course>357.26079181394</course>
        <speed>8.32690390705473</speed>
      </trkpt>
      <trkpt lat="42.85666" lon="12.84413">
        <ele>901</ele>
        <time>2011-04-08T02:35:34Z</time>
        <course>350.221113199468</course>
        <speed>8.31089864895274</speed>
      </trkpt>
      <trkpt lat="42.85696" lon="12.84425">
        <ele>899</ele>
        <time>2011-04-08T02:35:38Z</time>
        <course>26.2205424711372</course>
        <speed>8.31751067713919</speed>
      </trkpt>
      <trkpt lat="42.85703" lon="12.84417">
        <ele>898</ele>
        <time>2011-04-08T02:35:39Z</time>
        <course>151.694604621556</course>
        <speed>8.31534534062516</speed>
      </trkpt>
      <trkpt lat="42.85695" lon="12.84407">
        <ele>897</ele>
        <time>2011-04-08T02:35:41Z</time>
        <course>168.286661359437</course>
        <speed>8.32888707833615</speed>
      </trkpt>
      <trkpt lat="42.85668" lon="12.84394">
        <ele>895</ele>
        <time>2011-04-08T02:35:45Z</time>
        <course>172.231692091183</course>
        <speed>8.32272044714706</speed>
      </trkpt>
      <trkpt lat="42.85627" lon="12.84381">
        <ele>891</ele>
        <time>2011-04-08T02:35:50Z</time>
        <course>171.740490927287</course>
        <speed>8.32064076191924</speed>
      </trkpt>
      <trkpt lat="42.85494" lon="12.84336">
        <ele>881</ele>
        <time>2011-04-08T02:36:09Z</time>
        <course>35.5721349633843</course>
        <speed>8.28862015212823</speed>
      </trkpt>
      <trkpt lat="42.855" lon="12.84326">
        <ele>880</ele>
        <time>2011-04-08T02:36:10Z</time>
        <course>16.725737282904</course>
        <speed>8.32642820097923</speed>
      </trkpt>
      <trkpt lat="42.8552" lon="12.84312">
        <ele>879</ele>
        <time>2011-04-08T02:36:13Z</time>
        <course>353.111038338256</course>
        <speed>8.32713491400106</speed>
      </trkpt>
      <trkpt lat="42.85552" lon="12.84321">
        <ele>878</ele>
        <time>2011-04-08T02:36:17Z</time>
        <course>20.219791648287</course>
        <speed>8.31355683315438</speed>
      </trkpt>
      <trkpt lat="42.85566" lon="12.84309">
        <ele>878</ele>
        <time>2011-04-08T02:36:19Z</time>
        <course>20.219791648287</course>
        <speed>8.31355683315438</speed>
      </trkpt>
      <trkpt lat="42.85566" lon="12.84309">
        <ele>878</ele>
        <time>2011-04-08T02:36:20Z</time>
        <course>200.21358306136</course>
        <speed>8.31355683315438</speed>
      </trkpt>
      <trkpt lat="42.85552" lon="12.84321">
        <ele>877</ele>
        <time>2011-04-08T02:36:23Z</time>
        <course>173.115695287933</course>
        <speed>8.32713491400106</speed>
      </trkpt>
      <trkpt lat="42.8552" lon="12.84312">
        <ele>877</ele>
        <time>2011-04-08T02:36:27Z</time>
        <course>196.718492243664</course>
        <speed>8.32642820097923</speed>
      </trkpt>
      <trkpt lat="42.855" lon="12.84326">
        <ele>877</ele>
        <time>2011-04-08T02:36:30Z</time>
        <course>215.566959615734</course>
        <speed>8.28862015212823</speed>
      </trkpt>
      <trkpt lat="42.85494" lon="12.84336">
        <ele>877</ele>
        <time>2011-04-08T02:36:31Z</time>
        <course>175.234690059854</course>
        <speed>8.31431297102191</speed>
      </trkpt>
      <trkpt lat="42.85458" lon="12.84329">
        <ele>877</ele>
        <time>2011-04-08T02:36:36Z</time>
        <course>178.793664254412</course>
        <speed>8.32236069008177</speed>
      </trkpt>
      <trkpt lat="42.85397" lon="12.84326">
        <ele>873</ele>
        <time>2011-04-08T02:36:44Z</time>
        <course>166.553248269286</course>
        <speed>8.31532443937245</speed>
      </trkpt>
      <trkpt lat="42.85363" lon="12.84307">
        <ele>871</ele>
        <time>2011-04-08T02:36:49Z</time>
        <course>181.360126486162</course>
        <speed>2.5403784044123</speed>
      </trkpt>
      <trkpt lat="42.85309" lon="12.8431">
        <ele>877</ele>
        <time>2011-04-08T02:37:13Z</time>
        <course>174.41193406583</course>
        <speed>2.54039863575941</speed>
      </trkpt>
      <trkpt lat="42.85261" lon="12.84299">
        <ele>884</ele>
        <time>2011-04-08T02:37:34Z</time>
        <course>167.733853927406</course>
        <speed>8.32185233304882</speed>
      </trkpt>
      <trkpt lat="42.8521" lon="12.84273">
        <ele>883</ele>
        <time>2011-04-08T02:37:41Z</time>
        <course>160.389986565047</course>
        <speed>8.31874347595033</speed>
      </trkpt>
      <trkpt lat="42.85093" lon="12.84175">
        <ele>883</ele>
        <time>2011-04-08T02:38:00Z</time>
        <course>169.776398339592</course>
        <speed>4.54465036608345</speed>
      </trkpt>
      <trkpt lat="42.8506" lon="12.84161">
        <ele>884</ele>
        <time>2011-04-08T02:38:08Z</time>
        <course>179.304614916802</course>
        <speed>4.5444545801763</speed>
      </trkpt>
      <trkpt lat="42.85025" lon="12.8416">
        <ele>886</ele>
        <time>2011-04-08T02:38:17Z</time>
        <course>192.805577048031</course>
        <speed>4.54174937432447</speed>
      </trkpt>
      <trkpt lat="42.84969" lon="12.8419">
        <ele>889</ele>
        <time>2011-04-08T02:38:31Z</time>
        <course>189.629392343058</course>
        <speed>8.31097531498705</speed>
      </trkpt>
      <trkpt lat="42.84954" lon="12.84196">
        <ele>886</ele>
        <time>2011-04-08T02:38:34Z</time>
        <course>178.380760922933</course>
        <speed>8.30243635547723</speed>
      </trkpt>
      <trkpt lat="42.84939" lon="12.84195">
        <ele>883</ele>
        <time>2011-04-08T02:38:36Z</time>
        <course>151.067597805334</course>
        <speed>8.32060318975538</speed>
      </trkpt>
      <trkpt lat="42.84916" lon="12.84165">
        <ele>878</ele>
        <time>2011-04-08T02:38:40Z</time>
        <course>171.965520645811</course>
        <speed>8.32315991220951</speed>
      </trkpt>
      <trkpt lat="42.84877" lon="12.84152">
        <ele>872</ele>
        <time>2011-04-08T02:38:45Z</time>
        <course>160.212125581704</course>
        <speed>8.31307297971632</speed>
      </trkpt>
      <trkpt lat="42.84857" lon="12.84135">
        <ele>868</ele>
        <time>2011-04-08T02:38:48Z</time>
        <course>152.820994205392</course>
        <speed>8.32030031566917</speed>
      </trkpt>
      <trkpt lat="42.84815" lon="12.84084">
        <ele>858</ele>
        <time>2011-04-08T02:38:56Z</time>
        <course>167.757106479029</course>
        <speed>8.32040089070908</speed>
      </trkpt>
      <trkpt lat="42.84778" lon="12.84065">
        <ele>852</ele>
        <time>2011-04-08T02:39:01Z</time>
        <course>180</course>
        <speed>8.32176211443337</speed>
      </trkpt>
      <trkpt lat="42.84761" lon="12.84065">
        <ele>850</ele>
        <time>2011-04-08T02:39:03Z</time>
        <course>187.727509634676</course>
        <speed>8.32445020280943</speed>
      </trkpt>
      <trkpt lat="42.84733" lon="12.84074">
        <ele>848</ele>
        <time>2011-04-08T02:39:07Z</time>
        <course>162.432572206644</course>
        <speed>8.31550439476412</speed>
      </trkpt>
      <trkpt lat="42.84729" lon="12.84071">
        <ele>847</ele>
        <time>2011-04-08T02:39:08Z</time>
        <course>122.642204244541</course>
        <speed>8.32298582306957</speed>
      </trkpt>
      <trkpt lat="42.84719" lon="12.84034">
        <ele>845</ele>
        <time>2011-04-08T02:39:12Z</time>
        <course>151.523284991564</course>
        <speed>8.31870055809386</speed>
      </trkpt>
      <trkpt lat="42.84705" lon="12.84016">
        <ele>844</ele>
        <time>2011-04-08T02:39:14Z</time>
        <course>154.566336936032</course>
        <speed>8.31971465418683</speed>
      </trkpt>
      <trkpt lat="42.84666" lon="12.83972">
        <ele>840</ele>
        <time>2011-04-08T02:39:21Z</time>
        <course>162.474157435694</course>
        <speed>8.31553283557683</speed>
      </trkpt>
      <trkpt lat="42.84614" lon="12.83933">
        <ele>839</ele>
        <time>2011-04-08T02:39:29Z</time>
        <course>175.988126446633</course>
        <speed>8.31286327797132</speed>
      </trkpt>
      <trkpt lat="42.84584" lon="12.83928">
        <ele>839</ele>
        <time>2011-04-08T02:39:33Z</time>
        <course>181.72115465602</course>
        <speed>8.33054490013992</speed>
      </trkpt>
      <trkpt lat="42.8457" lon="12.83929">
        <ele>839</ele>
        <time>2011-04-08T02:39:35Z</time>
        <course>195.128536448433</course>
        <speed>8.30832443541073</speed>
      </trkpt>
      <trkpt lat="42.84556" lon="12.83938">
        <ele>837</ele>
        <time>2011-04-08T02:39:37Z</time>
        <course>177.811027507858</course>
        <speed>8.33355235354123</speed>
      </trkpt>
      <trkpt lat="42.84545" lon="12.83937">
        <ele>836</ele>
        <time>2011-04-08T02:39:38Z</time>
        <course>144.221719981549</course>
        <speed>8.32897616445067</speed>
      </trkpt>
      <trkpt lat="42.84538" lon="12.83925">
        <ele>835</ele>
        <time>2011-04-08T02:39:40Z</time>
        <course>101.604236003214</course>
        <speed>8.3180816578139</speed>
      </trkpt>
      <trkpt lat="42.84533" lon="12.83867">
        <ele>831</ele>
        <time>2011-04-08T02:39:46Z</time>
        <course>138.760713797124</course>
        <speed>8.31273440050748</speed>
      </trkpt>
      <trkpt lat="42.8451" lon="12.83819">
        <ele>828</ele>
        <time>2011-04-08T02:39:51Z</time>
        <course>26.7585623554331</course>
        <speed>8.31499740434287</speed>
      </trkpt>
      <trkpt lat="42.84515" lon="12.83813">
        <ele>827</ele>
        <time>2011-04-08T02:39:52Z</time>
        <course>356.564341874466</course>
        <speed>8.32016123581041</speed>
      </trkpt>
      <trkpt lat="42.84522" lon="12.83814">
        <ele>826</ele>
        <time>2011-04-08T02:39:53Z</time>
        <course>333.582279997371</course>
        <speed>8.33689490763456</speed>
      </trkpt>
      <trkpt lat="42.84533" lon="12.83827">
        <ele>825</ele>
        <time>2011-04-08T02:39:55Z</time>
        <course>330.287755747385</course>
        <speed>8.31295519956532</speed>
      </trkpt>
      <trkpt lat="42.84547" lon="12.83846">
        <ele>823</ele>
        <time>2011-04-08T02:39:58Z</time>
        <course>306.181968228779</course>
        <speed>8.32334837340862</speed>
      </trkpt>
      <trkpt lat="42.84559" lon="12.83885">
        <ele>821</ele>
        <time>2011-04-08T02:40:02Z</time>
        <course>331.593493847958</course>
        <speed>8.28655189075354</speed>
      </trkpt>
      <trkpt lat="42.84566" lon="12.83894">
        <ele>820</ele>
        <time>2011-04-08T02:40:03Z</time>
        <course>3.77927892006075</course>
        <speed>8.31556392784016</speed>
      </trkpt>
      <trkpt lat="42.84617" lon="12.83886">
        <ele>816</ele>
        <time>2011-04-08T02:40:10Z</time>
        <course>357.931238376636</course>
        <speed>8.32665037352667</speed>
      </trkpt>
      <trkpt lat="42.84652" lon="12.83889">
        <ele>814</ele>
        <time>2011-04-08T02:40:15Z</time>
        <course>352.900936243019</course>
        <speed>8.31683109182406</speed>
      </trkpt>
      <trkpt lat="42.84815" lon="12.83937">
        <ele>809</ele>
        <time>2011-04-08T02:40:37Z</time>
        <course>349.827808640046</course>
        <speed>8.32139988641685</speed>
      </trkpt>
      <trkpt lat="42.84874" lon="12.83962">
        <ele>805</ele>
        <time>2011-04-08T02:40:45Z</time>
        <course>360</course>
        <speed>8.29253731298833</speed>
      </trkpt>
      <trkpt lat="42.84884" lon="12.83962">
        <ele>805</ele>
        <time>2011-04-08T02:40:46Z</time>
        <course>40.268281779776</course>
        <speed>8.39232382842307</speed>
      </trkpt>
      <trkpt lat="42.84886" lon="12.83958">
        <ele>805</ele>
        <time>2011-04-08T02:40:47Z</time>
        <course>126.00154367409</course>
        <speed>8.32296916963495</speed>
      </trkpt>
      <trkpt lat="42.84882" lon="12.83945">
        <ele>804</ele>
        <time>2011-04-08T02:40:48Z</time>
        <course>168.071820305209</course>
        <speed>8.31859213708991</speed>
      </trkpt>
      <trkpt lat="42.84772" lon="12.8389">
        <ele>798</ele>
        <time>2011-04-08T02:41:04Z</time>
        <course>159.18874249704</course>
        <speed>8.32067791704048</speed>
      </trkpt>
      <trkpt lat="42.84752" lon="12.83872">
        <ele>797</ele>
        <time>2011-04-08T02:41:07Z</time>
        <course>143.95528003635</course>
        <speed>8.31362316468982</speed>
      </trkpt>
      <trkpt lat="42.84712" lon="12.83803">
        <ele>794</ele>
        <time>2011-04-08T02:41:16Z</time>
        <course>149.892193766631</course>
        <speed>8.32278213940899</speed>
      </trkpt>
      <trkpt lat="42.84688" lon="12.8377">
        <ele>790</ele>
        <time>2011-04-08T02:41:20Z</time>
        <course>160.587385452073</course>
        <speed>8.31827112863178</speed>
      </trkpt>
      <trkpt lat="42.84602" lon="12.83698">
        <ele>779</ele>
        <time>2011-04-08T02:41:34Z</time>
        <course>150.609708398627</course>
        <speed>8.31588187178041</speed>
      </trkpt>
      <trkpt lat="42.84514" lon="12.8358">
        <ele>776</ele>
        <time>2011-04-08T02:41:50Z</time>
        <course>154.236235122885</course>
        <speed>8.31745687877098</speed>
      </trkpt>
      <trkpt lat="42.84441" lon="12.83496">
        <ele>765</ele>
        <time>2011-04-08T02:42:03Z</time>
        <course>149.15448628075</course>
        <speed>8.31604079024818</speed>
      </trkpt>
      <trkpt lat="42.84401" lon="12.83439">
        <ele>758</ele>
        <time>2011-04-08T02:42:11Z</time>
        <course>163.822778791535</course>
        <speed>8.30774668700402</speed>
      </trkpt>
      <trkpt lat="42.84388" lon="12.8343">
        <ele>756</ele>
        <time>2011-04-08T02:42:13Z</time>
        <course>174.421227880769</course>
        <speed>8.31697362883781</speed>
      </trkpt>
      <trkpt lat="42.84183" lon="12.83382">
        <ele>732</ele>
        <time>2011-04-08T02:42:41Z</time>
        <course>167.918387083791</course>
        <speed>8.32050657515097</speed>
      </trkpt>
      <trkpt lat="42.84146" lon="12.83363">
        <ele>726</ele>
        <time>2011-04-08T02:42:46Z</time>
        <course>159.074772271825</course>
        <speed>8.31976132193319</speed>
      </trkpt>
      <trkpt lat="42.84097" lon="12.83318">
        <ele>718</ele>
        <time>2011-04-08T02:42:54Z</time>
        <course>174.161600902332</course>
        <speed>8.31838418748022</speed>
      </trkpt>
      <trkpt lat="42.84036" lon="12.83303">
        <ele>712</ele>
        <time>2011-04-08T02:43:02Z</time>
        <course>181.904296385953</course>
        <speed>8.30679245272073</speed>
      </trkpt>
      <trkpt lat="42.84011" lon="12.83305">
        <ele>709</ele>
        <time>2011-04-08T02:43:05Z</time>
        <course>187.882645195075</course>
        <speed>8.32495391854845</speed>
      </trkpt>
      <trkpt lat="42.83984" lon="12.83314">
        <ele>707</ele>
        <time>2011-04-08T02:43:09Z</time>
        <course>181.251306172552</course>
        <speed>8.3183136764199</speed>
      </trkpt>
      <trkpt lat="42.83946" lon="12.83316">
        <ele>701</ele>
        <time>2011-04-08T02:43:14Z</time>
        <course>176.311804601161</course>
        <speed>8.31996976016742</speed>
      </trkpt>
      <trkpt lat="42.83824" lon="12.83297">
        <ele>685</ele>
        <time>2011-04-08T02:43:31Z</time>
        <course>182.242394588529</course>
        <speed>8.31621173422884</speed>
      </trkpt>
      <trkpt lat="42.83687" lon="12.8331">
        <ele>678</ele>
        <time>2011-04-08T02:43:49Z</time>
        <course>175.270521588749</course>
        <speed>8.3202341148794</speed>
      </trkpt>
      <trkpt lat="42.83523" lon="12.83277">
        <ele>666</ele>
        <time>2011-04-08T02:44:11Z</time>
        <course>182.031356409479</course>
        <speed>8.31990404284427</speed>
      </trkpt>
      <trkpt lat="42.83442" lon="12.83284">
        <ele>661</ele>
        <time>2011-04-08T02:44:22Z</time>
        <course>174.057684234973</course>
        <speed>8.31913295997918</speed>
      </trkpt>
      <trkpt lat="42.83277" lon="12.83242">
        <ele>652</ele>
        <time>2011-04-08T02:44:44Z</time>
        <course>169.354708516423</course>
        <speed>8.32057883381732</speed>
      </trkpt>
      <trkpt lat="42.83214" lon="12.83213">
        <ele>645</ele>
        <time>2011-04-08T02:44:53Z</time>
        <course>161.835613496894</course>
        <speed>8.32332394354494</speed>
      </trkpt>
      <trkpt lat="42.83168" lon="12.83176">
        <ele>641</ele>
        <time>2011-04-08T02:45:00Z</time>
        <course>150.366118449167</course>
        <speed>8.32035373465856</speed>
      </trkpt>
      <trkpt lat="42.8308" lon="12.83053">
        <ele>635</ele>
        <time>2011-04-08T02:45:17Z</time>
        <course>156.912034376906</course>
        <speed>8.31272094758166</speed>
      </trkpt>
      <trkpt lat="42.83059" lon="12.83031">
        <ele>632</ele>
        <time>2011-04-08T02:45:21Z</time>
        <course>165.961223169022</course>
        <speed>8.31714535893846</speed>
      </trkpt>
      <trkpt lat="42.82947" lon="12.82962">
        <ele>623</ele>
        <time>2011-04-08T02:45:37Z</time>
        <course>160.05683834719</course>
        <speed>8.32037503032148</speed>
      </trkpt>
      <trkpt lat="42.82909" lon="12.82928">
        <ele>619</ele>
        <time>2011-04-08T02:45:43Z</time>
        <course>154.648597996531</course>
        <speed>8.3169836614602</speed>
      </trkpt>
      <trkpt lat="42.82856" lon="12.82866">
        <ele>614</ele>
        <time>2011-04-08T02:45:52Z</time>
        <course>148.158860316542</course>
        <speed>8.31732995945148</speed>
      </trkpt>
      <trkpt lat="42.82813" lon="12.828">
        <ele>607</ele>
        <time>2011-04-08T02:46:01Z</time>
        <course>165.397273922208</course>
        <speed>8.31707259136732</speed>
      </trkpt>
      <trkpt lat="42.82703" lon="12.82729">
        <ele>596</ele>
        <time>2011-04-08T02:46:17Z</time>
        <course>158.626426303316</course>
        <speed>8.31711563883463</speed>
      </trkpt>
      <trkpt lat="42.8251" lon="12.82541">
        <ele>594</ele>
        <time>2011-04-08T02:46:49Z</time>
        <course>156.643268330045</course>
        <speed>8.31875113890407</speed>
      </trkpt>
      <trkpt lat="42.82419" lon="12.82443">
        <ele>582</ele>
        <time>2011-04-08T02:47:05Z</time>
        <course>165.043474757251</course>
        <speed>8.31724414454396</speed>
      </trkpt>
      <trkpt lat="42.8238" lon="12.82417">
        <ele>579</ele>
        <time>2011-04-08T02:47:10Z</time>
        <course>170.333472506797</course>
        <speed>8.31474147476153</speed>
      </trkpt>
      <trkpt lat="42.82333" lon="12.82397">
        <ele>576</ele>
        <time>2011-04-08T02:47:17Z</time>
        <course>185.229698476496</course>
        <speed>8.32089355325633</speed>
      </trkpt>
      <trkpt lat="42.82237" lon="12.82419">
        <ele>573</ele>
        <time>2011-04-08T02:47:30Z</time>
        <course>178.614394036321</course>
        <speed>8.32331341568333</speed>
      </trkpt>
      <trkpt lat="42.82204" lon="12.82417">
        <ele>568</ele>
        <time>2011-04-08T02:47:34Z</time>
        <course>169.299270293105</course>
        <speed>8.30883455303873</speed>
      </trkpt>
      <trkpt lat="42.82185" lon="12.82408">
        <ele>565</ele>
        <time>2011-04-08T02:47:37Z</time>
        <course>161.544261969666</course>
        <speed>8.31764988149996</speed>
      </trkpt>
      <trkpt lat="42.82067" lon="12.82309">
        <ele>546</ele>
        <time>2011-04-08T02:47:56Z</time>
        <course>157.591560377937</course>
        <speed>8.31706053535152</speed>
      </trkpt>
      <trkpt lat="42.81989" lon="12.82228">
        <ele>538</ele>
        <time>2011-04-08T02:48:09Z</time>
        <course>160.417036841102</course>
        <speed>8.31610777923761</speed>
      </trkpt>
      <trkpt lat="42.81891" lon="12.8214">
        <ele>538</ele>
        <time>2011-04-08T02:48:24Z</time>
        <course>164.920101505422</course>
        <speed>8.3180885040195</speed>
      </trkpt>
      <trkpt lat="42.81781" lon="12.82065">
        <ele>530</ele>
        <time>2011-04-08T02:48:41Z</time>
        <course>162.191966756127</course>
        <speed>7.5531008926314</speed>
      </trkpt>
      <trkpt lat="42.81629" lon="12.81941">
        <ele>531</ele>
        <time>2011-04-08T02:49:07Z</time>
        <course>155.198227249498</course>
        <speed>8.3173892198926</speed>
      </trkpt>
      <trkpt lat="42.81527" lon="12.81821">
        <ele>529</ele>
        <time>2011-04-08T02:49:25Z</time>
        <course>148.707992046924</course>
        <speed>8.31404639662198</speed>
      </trkpt>
      <trkpt lat="42.81496" lon="12.81773">
        <ele>524</ele>
        <time>2011-04-08T02:49:31Z</time>
        <course>143.860242155316</course>
        <speed>8.31770137385746</speed>
      </trkpt>
      <trkpt lat="42.81368" lon="12.81534">
        <ele>506</ele>
        <time>2011-04-08T02:50:00Z</time>
        <course>153.583497864411</course>
        <speed>8.31821106363073</speed>
      </trkpt>
      <trkpt lat="42.8105" lon="12.81127">
        <ele>481</ele>
        <time>2011-04-08T02:50:58Z</time>
        <course>141.295578969209</course>
        <speed>8.31356961702539</speed>
      </trkpt>
      <trkpt lat="42.81019" lon="12.81063">
        <ele>478</ele>
        <time>2011-04-08T02:51:06Z</time>
        <course>149.802291924234</course>
        <speed>8.31800972477519</speed>
      </trkpt>
      <trkpt lat="42.80997" lon="12.8103">
        <ele>477</ele>
        <time>2011-04-08T02:51:10Z</time>
        <course>157.712964459875</course>
        <speed>8.3175472681361</speed>
      </trkpt>
      <trkpt lat="42.80848" lon="12.80872">
        <ele>470</ele>
        <time>2011-04-08T02:51:35Z</time>
        <course>147.601689210921</course>
        <speed>8.31732085995991</speed>
      </trkpt>
      <trkpt lat="42.80789" lon="12.80775">
        <ele>464</ele>
        <time>2011-04-08T02:51:48Z</time>
        <course>156.673605027577</course>
        <speed>8.32036953563593</speed>
      </trkpt>
      <trkpt lat="42.80697" lon="12.80672">
        <ele>459</ele>
        <time>2011-04-08T02:52:04Z</time>
        <course>151.592376701869</course>
        <speed>8.3175871283198</speed>
      </trkpt>
      <trkpt lat="42.8066" lon="12.8062">
        <ele>456</ele>
        <time>2011-04-08T02:52:11Z</time>
        <course>147.15793610807</course>
        <speed>8.31764002556828</speed>
      </trkpt>
      <trkpt lat="42.80588" lon="12.80499">
        <ele>450</ele>
        <time>2011-04-08T02:52:26Z</time>
        <course>154.832257911166</course>
        <speed>8.3174736788078</speed>
      </trkpt>
      <trkpt lat="42.80539" lon="12.80439">
        <ele>446</ele>
        <time>2011-04-08T02:52:35Z</time>
        <course>163.433053782032</course>
        <speed>8.31972431805997</speed>
      </trkpt>
      <trkpt lat="42.80404" lon="12.80334">
        <ele>437</ele>
        <time>2011-04-08T02:52:56Z</time>
        <course>164.720204907446</course>
        <speed>8.31792936511912</speed>
      </trkpt>
      <trkpt lat="42.79939" lon="12.79998">
        <ele>420</ele>
        <time>2011-04-08T02:54:06Z</time>
        <course>169.266754330273</course>
        <speed>8.31875545159405</speed>
      </trkpt>
      <trkpt lat="42.7978" lon="12.79918">
        <ele>409</ele>
        <time>2011-04-08T02:54:29Z</time>
        <course>168.083201120147</course>
        <speed>8.31947254166829</speed>
      </trkpt>
      <trkpt lat="42.79514" lon="12.79768">
        <ele>395</ele>
        <time>2011-04-08T02:55:07Z</time>
        <course>160.678891212519</course>
        <speed>8.31595711237441</speed>
      </trkpt>
      <trkpt lat="42.79482" lon="12.79738">
        <ele>393</ele>
        <time>2011-04-08T02:55:12Z</time>
        <course>153.4227019628</course>
        <speed>8.31701926081936</speed>
      </trkpt>
      <trkpt lat="42.79342" lon="12.7955">
        <ele>388</ele>
        <time>2011-04-08T02:55:39Z</time>
        <course>147.991088877859</course>
        <speed>8.32444902012256</speed>
      </trkpt>
      <trkpt lat="42.79314" lon="12.79503">
        <ele>386</ele>
        <time>2011-04-08T02:55:44Z</time>
        <course>134.937839271844</course>
        <speed>8.31479536715959</speed>
      </trkpt>
      <trkpt lat="42.79278" lon="12.79406">
        <ele>384</ele>
        <time>2011-04-08T02:55:55Z</time>
        <course>130.668586466669</course>
        <speed>8.31984008822268</speed>
      </trkpt>
      <trkpt lat="42.79219" lon="12.79221">
        <ele>375</ele>
        <time>2011-04-08T02:56:15Z</time>
        <course>127.408130725432</course>
        <speed>8.31841880167191</speed>
      </trkpt>
      <trkpt lat="42.7912" lon="12.78871">
        <ele>366</ele>
        <time>2011-04-08T02:56:52Z</time>
        <course>141.518957099195</course>
        <speed>8.31418652350775</speed>
      </trkpt>
      <trkpt lat="42.79086" lon="12.78798">
        <ele>363</ele>
        <time>2011-04-08T02:57:00Z</time>
        <course>144.960125108933</course>
        <speed>8.31853933574898</speed>
      </trkpt>
      <trkpt lat="42.78943" lon="12.78526">
        <ele>354</ele>
        <time>2011-04-08T02:57:33Z</time>
        <course>150.790156478607</course>
        <speed>8.31859211786938</speed>
      </trkpt>
      <trkpt lat="42.78578" lon="12.77967">
        <ele>325</ele>
        <time>2011-04-08T02:58:46Z</time>
        <course>162.667460259959</course>
        <speed>8.318900887057</speed>
      </trkpt>
      <trkpt lat="42.78366" lon="12.77785">
        <ele>308</ele>
        <time>2011-04-08T02:59:20Z</time>
        <course>162.255878945653</course>
        <speed>8.31886409693963</speed>
      </trkpt>
      <trkpt lat="42.77897" lon="12.77367">
        <ele>287</ele>
        <time>2011-04-08T03:00:35Z</time>
        <course>161.53358195604</course>
        <speed>8.3186053407133</speed>
      </trkpt>
      <trkpt lat="42.77457" lon="12.76953">
        <ele>277</ele>
        <time>2011-04-08T03:01:46Z</time>
        <course>158.550926789708</course>
        <speed>8.31794112095529</speed>
      </trkpt>
      <trkpt lat="42.77429" lon="12.76922">
        <ele>275</ele>
        <time>2011-04-08T03:01:51Z</time>
        <course>152.603534789719</course>
        <speed>8.32458690719212</speed>
      </trkpt>
      <trkpt lat="42.77403" lon="12.76884">
        <ele>273</ele>
        <time>2011-04-08T03:01:56Z</time>
        <course>161.891969634605</course>
        <speed>8.32242683024744</speed>
      </trkpt>
      <trkpt lat="42.77364" lon="12.76848">
        <ele>272</ele>
        <time>2011-04-08T03:02:02Z</time>
        <course>161.891969634605</course>
        <speed>8.32242683024744</speed>
      </trkpt>
      <trkpt lat="42.77364" lon="12.76848">
        <ele>272</ele>
        <time>2011-04-08T03:02:03Z</time>
        <course>161.710995976898</course>
        <speed>8.31837323475518</speed>
      </trkpt>
      <trkpt lat="42.77188" lon="12.76683">
        <ele>268</ele>
        <time>2011-04-08T03:02:32Z</time>
        <course>1.91424638251262</course>
        <speed>8.31753786855157</speed>
      </trkpt>
      <trkpt lat="42.77262" lon="12.76676">
        <ele>267</ele>
        <time>2011-04-08T03:02:42Z</time>
        <course>349.224521729433</course>
        <speed>8.30646301954325</speed>
      </trkpt>
      <trkpt lat="42.77275" lon="12.76683">
        <ele>267</ele>
        <time>2011-04-08T03:02:44Z</time>
        <course>1.67040879629224</course>
        <speed>8.31781984619284</speed>
      </trkpt>
      <trkpt lat="42.77421" lon="12.76671">
        <ele>267</ele>
        <time>2011-04-08T03:03:03Z</time>
        <course>3.13192930796997</course>
        <speed>8.32068089475053</speed>
      </trkpt>
      <trkpt lat="42.77512" lon="12.76657">
        <ele>267</ele>
        <time>2011-04-08T03:03:15Z</time>
        <course>19.584962657026</course>
        <speed>8.33464276408344</speed>
      </trkpt>
      <trkpt lat="42.77525" lon="12.76644">
        <ele>266</ele>
        <time>2011-04-08T03:03:17Z</time>
        <course>6.15998128816128</course>
        <speed>8.31908663984732</speed>
      </trkpt>
      <trkpt lat="42.77654" lon="12.76605">
        <ele>266</ele>
        <time>2011-04-08T03:03:35Z</time>
        <course>10.6463520289296</course>
        <speed>8.32113951964054</speed>
      </trkpt>
      <trkpt lat="42.77673" lon="12.76595">
        <ele>265</ele>
        <time>2011-04-08T03:03:38Z</time>
        <course>13.1461516278479</course>
        <speed>8.31695917688053</speed>
      </trkpt>
      <trkpt lat="42.77722" lon="12.76563">
        <ele>265</ele>
        <time>2011-04-08T03:03:45Z</time>
        <course>6.2815336052523</course>
        <speed>8.31990288364916</speed>
      </trkpt>
      <trkpt lat="42.77735" lon="12.76559">
        <ele>265</ele>
        <time>2011-04-08T03:03:47Z</time>
        <course>15.440578263428</course>
        <speed>8.3206779768139</speed>
      </trkpt>
      <trkpt lat="42.77835" lon="12.76482">
        <ele>264</ele>
        <time>2011-04-08T03:04:02Z</time>
        <course>39.9322709296999</course>
        <speed>8.31600569977327</speed>
      </trkpt>
      <trkpt lat="42.77841" lon="12.76468">
        <ele>263</ele>
        <time>2011-04-08T03:04:04Z</time>
        <course>17.3955194995294</course>
        <speed>8.32019705375631</speed>
      </trkpt>
      <trkpt lat="42.77972" lon="12.76354">
        <ele>260</ele>
        <time>2011-04-08T03:04:25Z</time>
        <course>4.75005277087362</course>
        <speed>8.32462954172528</speed>
      </trkpt>
      <trkpt lat="42.77985" lon="12.76351">
        <ele>260</ele>
        <time>2011-04-08T03:04:26Z</time>
        <course>17.2012055662162</course>
        <speed>8.31642094105243</speed>
      </trkpt>
      <trkpt lat="42.78097" lon="12.76255">
        <ele>260</ele>
        <time>2011-04-08T03:04:44Z</time>
        <course>18.4479456354504</course>
        <speed>8.31678622323703</speed>
      </trkpt>
      <trkpt lat="42.78235" lon="12.76128">
        <ele>258</ele>
        <time>2011-04-08T03:05:06Z</time>
        <course>16.5083682246925</course>
        <speed>8.31603623199978</speed>
      </trkpt>
      <trkpt lat="42.78338" lon="12.76044">
        <ele>257</ele>
        <time>2011-04-08T03:05:22Z</time>
        <course>34.2738409397912</course>
        <speed>8.30876391991006</speed>
      </trkpt>
      <trkpt lat="42.78346" lon="12.76029">
        <ele>257</ele>
        <time>2011-04-08T03:05:24Z</time>
        <course>17.6977889841625</course>
        <speed>8.31714149742362</speed>
      </trkpt>
      <trkpt lat="42.78551" lon="12.7585">
        <ele>257</ele>
        <time>2011-04-08T03:05:57Z</time>
        <course>17.0712744376196</course>
        <speed>8.31449147253341</speed>
      </trkpt>
      <trkpt lat="42.78607" lon="12.75803">
        <ele>255</ele>
        <time>2011-04-08T03:06:05Z</time>
        <course>14.3503813589801</course>
        <speed>8.3164391668275</speed>
      </trkpt>
      <trkpt lat="42.78716" lon="12.75727">
        <ele>254</ele>
        <time>2011-04-08T03:06:22Z</time>
        <course>10.6007198655034</course>
        <speed>8.08435687428971</speed>
      </trkpt>
      <trkpt lat="42.79299" lon="12.75434">
        <ele>255</ele>
        <time>2011-04-08T03:07:47Z</time>
        <course>1.9390088295951</course>
        <speed>8.33358365334479</speed>
      </trkpt>
      <trkpt lat="42.7931" lon="12.75433">
        <ele>254</ele>
        <time>2011-04-08T03:07:49Z</time>
        <course>9.84775382874515</course>
        <speed>8.31762417238758</speed>
      </trkpt>
      <trkpt lat="42.79396" lon="12.75393">
        <ele>254</ele>
        <time>2011-04-08T03:08:01Z</time>
        <course>29.2445179481032</course>
        <speed>8.33190550086428</speed>
      </trkpt>
      <trkpt lat="42.79402" lon="12.75384">
        <ele>253</ele>
        <time>2011-04-08T03:08:02Z</time>
        <course>10.7530320815493</course>
        <speed>8.31994796496969</speed>
      </trkpt>
      <trkpt lat="42.79546" lon="12.75311">
        <ele>251</ele>
        <time>2011-04-08T03:08:23Z</time>
        <course>10.1685092214061</course>
        <speed>8.32126784314659</speed>
      </trkpt>
      <trkpt lat="42.79592" lon="12.75289">
        <ele>250</ele>
        <time>2011-04-08T03:08:29Z</time>
        <course>1.34322933652638</course>
        <speed>8.31676968730696</speed>
      </trkpt>
      <trkpt lat="42.79608" lon="12.75288">
        <ele>250</ele>
        <time>2011-04-08T03:08:31Z</time>
        <course>11.1351255816028</course>
        <speed>8.31469227915031</speed>
      </trkpt>
      <trkpt lat="42.79671" lon="12.75255">
        <ele>249</ele>
        <time>2011-04-08T03:08:40Z</time>
        <course>25.790025318533</course>
        <speed>8.28963619086178</speed>
      </trkpt>
      <trkpt lat="42.79678" lon="12.75246">
        <ele>249</ele>
        <time>2011-04-08T03:08:41Z</time>
        <course>6.95336949421125</course>
        <speed>8.31727000524645</speed>
      </trkpt>
      <trkpt lat="42.79749" lon="12.75223">
        <ele>249</ele>
        <time>2011-04-08T03:08:51Z</time>
        <course>3.318009760588</course>
        <speed>8.32291038804985</speed>
      </trkpt>
      <trkpt lat="42.79788" lon="12.75217">
        <ele>249</ele>
        <time>2011-04-08T03:08:56Z</time>
        <course>0.376554474728762</course>
        <speed>8.32020859443835</speed>
      </trkpt>
      <trkpt lat="42.79903" lon="12.75215">
        <ele>249</ele>
        <time>2011-04-08T03:09:12Z</time>
        <course>354.589243012331</course>
        <speed>8.32103216995917</speed>
      </trkpt>
      <trkpt lat="42.80007" lon="12.75241">
        <ele>248</ele>
        <time>2011-04-08T03:09:26Z</time>
        <course>350.90299510901</course>
        <speed>8.31981860697586</speed>
      </trkpt>
      <trkpt lat="42.80109" lon="12.75284">
        <ele>247</ele>
        <time>2011-04-08T03:09:40Z</time>
        <course>328.70955547653</course>
        <speed>8.31849379169707</speed>
      </trkpt>
      <trkpt lat="42.80114" lon="12.75292">
        <ele>247</ele>
        <time>2011-04-08T03:09:41Z</time>
        <course>349.242926878011</course>
        <speed>8.30607449199987</speed>
      </trkpt>
      <trkpt lat="42.80126" lon="12.75298">
        <ele>247</ele>
        <time>2011-04-08T03:09:43Z</time>
        <course>349.912882576301</course>
        <speed>8.31842290672981</speed>
      </trkpt>
      <trkpt lat="42.80475" lon="12.7546">
        <ele>247</ele>
        <time>2011-04-08T03:10:32Z</time>
        <course>352.434765709549</course>
        <speed>8.31473989097526</speed>
      </trkpt>
      <trkpt lat="42.80527" lon="12.75478">
        <ele>245</ele>
        <time>2011-04-08T03:10:39Z</time>
        <course>349.414028522393</course>
        <speed>8.31792267773902</speed>
      </trkpt>
      <trkpt lat="42.80752" lon="12.75587">
        <ele>241</ele>
        <time>2011-04-08T03:11:11Z</time>
        <course>346.948308874411</course>
        <speed>8.31568325906449</speed>
      </trkpt>
      <trkpt lat="42.80817" lon="12.75626">
        <ele>240</ele>
        <time>2011-04-08T03:11:21Z</time>
        <course>345.373336725611</course>
        <speed>8.31853907161636</speed>
      </trkpt>
      <trkpt lat="42.81189" lon="12.75875">
        <ele>237</ele>
        <time>2011-04-08T03:12:16Z</time>
        <course>339.952230360607</course>
        <speed>8.32241439807892</speed>
      </trkpt>
      <trkpt lat="42.8122" lon="12.75904">
        <ele>236</ele>
        <time>2011-04-08T03:12:21Z</time>
        <course>346.542594415858</course>
        <speed>8.31878413335759</speed>
      </trkpt>
      <trkpt lat="42.81864" lon="12.76293">
        <ele>230</ele>
        <time>2011-04-08T03:13:55Z</time>
        <course>333.014095084636</course>
        <speed>8.28825261191395</speed>
      </trkpt>
      <trkpt lat="42.81871" lon="12.76302">
        <ele>230</ele>
        <time>2011-04-08T03:13:57Z</time>
        <course>346.519007527415</course>
        <speed>8.31641965760507</speed>
      </trkpt>
      <trkpt lat="42.81977" lon="12.76366">
        <ele>230</ele>
        <time>2011-04-08T03:14:12Z</time>
        <course>347.02175965607</course>
        <speed>7.43824049514701</speed>
      </trkpt>
      <trkpt lat="42.82117" lon="12.76447">
        <ele>231</ele>
        <time>2011-04-08T03:14:35Z</time>
        <course>348.242370860416</course>
        <speed>8.31860961492272</speed>
      </trkpt>
      <trkpt lat="42.82288" lon="12.76536">
        <ele>231</ele>
        <time>2011-04-08T03:14:59Z</time>
        <course>357.455472692179</course>
        <speed>8.29252490970068</speed>
      </trkpt>
      <trkpt lat="42.82297" lon="12.76537">
        <ele>230</ele>
        <time>2011-04-08T03:15:00Z</time>
        <course>347.278004416449</course>
        <speed>8.31639326644665</speed>
      </trkpt>
      <trkpt lat="42.824" lon="12.76595">
        <ele>230</ele>
        <time>2011-04-08T03:15:15Z</time>
        <course>324.944383418556</course>
        <speed>8.31278438335981</speed>
      </trkpt>
      <trkpt lat="42.82404" lon="12.76602">
        <ele>229</ele>
        <time>2011-04-08T03:15:16Z</time>
        <course>346.599913563455</course>
        <speed>8.32271181151449</speed>
      </trkpt>
      <trkpt lat="42.82436" lon="12.76621">
        <ele>229</ele>
        <time>2011-04-08T03:15:21Z</time>
        <course>348.912611658616</course>
        <speed>8.31783898842869</speed>
      </trkpt>
      <trkpt lat="42.82516" lon="12.7666">
        <ele>228</ele>
        <time>2011-04-08T03:15:32Z</time>
        <course>2.30236082742975</course>
        <speed>8.31481104088103</speed>
      </trkpt>
      <trkpt lat="42.82526" lon="12.76659">
        <ele>227</ele>
        <time>2011-04-08T03:15:34Z</time>
        <course>347.51137759592</course>
        <speed>8.31823397815318</speed>
      </trkpt>
      <trkpt lat="42.82789" lon="12.76803">
        <ele>226</ele>
        <time>2011-04-08T03:16:11Z</time>
        <course>349.172359351135</course>
        <speed>8.31894812223812</speed>
      </trkpt>
      <trkpt lat="42.82878" lon="12.76845">
        <ele>226</ele>
        <time>2011-04-08T03:16:24Z</time>
        <course>352.734770841026</course>
        <speed>8.3175229228615</speed>
      </trkpt>
      <trkpt lat="42.82964" lon="12.76872">
        <ele>226</ele>
        <time>2011-04-08T03:16:36Z</time>
        <course>357.673675003599</course>
        <speed>8.31480778113799</speed>
      </trkpt>
      <trkpt lat="42.82984" lon="12.76874">
        <ele>226</ele>
        <time>2011-04-08T03:16:38Z</time>
        <course>360</course>
        <speed>5.0443579766131</speed>
      </trkpt>
      <trkpt lat="42.83019" lon="12.76874">
        <ele>227</ele>
        <time>2011-04-08T03:16:46Z</time>
        <course>2.52484105139062</course>
        <speed>5.04705495970664</speed>
      </trkpt>
      <trkpt lat="42.83288" lon="12.76845">
        <ele>237</ele>
        <time>2011-04-08T03:17:46Z</time>
        <course>7.22207390856464</course>
        <speed>8.32305824785979</speed>
      </trkpt>
      <trkpt lat="42.8333" lon="12.76832">
        <ele>236</ele>
        <time>2011-04-08T03:17:51Z</time>
        <course>18.142722401721</course>
        <speed>8.31168241497512</speed>
      </trkpt>
      <trkpt lat="42.8335" lon="12.76816">
        <ele>235</ele>
        <time>2011-04-08T03:17:54Z</time>
        <course>27.0073919537078</course>
        <speed>8.31643261322071</speed>
      </trkpt>
      <trkpt lat="42.83387" lon="12.7677">
        <ele>235</ele>
        <time>2011-04-08T03:18:01Z</time>
        <course>36.9399003046012</course>
        <speed>8.31609716036336</speed>
      </trkpt>
      <trkpt lat="42.83405" lon="12.76737">
        <ele>234</ele>
        <time>2011-04-08T03:18:05Z</time>
        <course>46.54056381556</course>
        <speed>8.31512313436758</speed>
      </trkpt>
      <trkpt lat="42.83426" lon="12.76683">
        <ele>234</ele>
        <time>2011-04-08T03:18:11Z</time>
        <course>52.9296120672139</course>
        <speed>8.31849797742267</speed>
      </trkpt>
      <trkpt lat="42.8355" lon="12.76285">
        <ele>231</ele>
        <time>2011-04-08T03:18:53Z</time>
        <course>50.2047451284169</course>
        <speed>8.32017753479763</speed>
      </trkpt>
      <trkpt lat="42.83617" lon="12.7609">
        <ele>230</ele>
        <time>2011-04-08T03:19:15Z</time>
        <course>37.7001238005684</course>
        <speed>8.32699870164108</speed>
      </trkpt>
      <trkpt lat="42.83633" lon="12.7606">
        <ele>230</ele>
        <time>2011-04-08T03:19:18Z</time>
        <course>28.8151454538662</course>
        <speed>8.31397246023329</speed>
      </trkpt>
      <trkpt lat="42.83672" lon="12.76008">
        <ele>230</ele>
        <time>2011-04-08T03:19:25Z</time>
        <course>13.8619303928749</course>
        <speed>8.31830989923522</speed>
      </trkpt>
      <trkpt lat="42.83744" lon="12.75965">
        <ele>230</ele>
        <time>2011-04-08T03:19:36Z</time>
        <course>7.49307032077541</course>
        <speed>5.31842783567623</speed>
      </trkpt>
      <trkpt lat="42.83766" lon="12.75958">
        <ele>230</ele>
        <time>2011-04-08T03:19:41Z</time>
        <course>5.18333576641949</course>
        <speed>5.31570728324596</speed>
      </trkpt>
      <trkpt lat="42.83995" lon="12.75908">
        <ele>238</ele>
        <time>2011-04-08T03:20:29Z</time>
        <course>14.8627625369944</course>
        <speed>8.3218711026388</speed>
      </trkpt>
      <trkpt lat="42.84053" lon="12.75871">
        <ele>236</ele>
        <time>2011-04-08T03:20:38Z</time>
        <course>20.052419486239</course>
        <speed>8.31842876690547</speed>
      </trkpt>
      <trkpt lat="42.84281" lon="12.75672">
        <ele>232</ele>
        <time>2011-04-08T03:21:14Z</time>
        <course>18.5556790961841</course>
        <speed>8.31803890392794</speed>
      </trkpt>
      <trkpt lat="42.84441" lon="12.75544">
        <ele>228</ele>
        <time>2011-04-08T03:21:39Z</time>
        <course>12.7538719352125</course>
        <speed>8.31786344741063</speed>
      </trkpt>
      <trkpt lat="42.84532" lon="12.75495">
        <ele>227</ele>
        <time>2011-04-08T03:21:52Z</time>
        <course>7.43211104538143</course>
        <speed>8.31506637765164</speed>
      </trkpt>
      <trkpt lat="42.84603" lon="12.75473">
        <ele>225</ele>
        <time>2011-04-08T03:22:01Z</time>
        <course>10.6462869148444</course>
        <speed>8.3173246104335</speed>
      </trkpt>
      <trkpt lat="42.84713" lon="12.75424">
        <ele>222</ele>
        <time>2011-04-08T03:22:17Z</time>
        <course>15.7223937376323</course>
        <speed>8.31950844320727</speed>
      </trkpt>
      <trkpt lat="42.84743" lon="12.75404">
        <ele>221</ele>
        <time>2011-04-08T03:22:21Z</time>
        <course>21.4223488954858</course>
        <speed>8.3273306210444</speed>
      </trkpt>
      <trkpt lat="42.84771" lon="12.75378">
        <ele>221</ele>
        <time>2011-04-08T03:22:26Z</time>
        <course>27.8585329947372</course>
        <speed>8.31590583882142</speed>
      </trkpt>
      <trkpt lat="42.84803" lon="12.75338">
        <ele>221</ele>
        <time>2011-04-08T03:22:32Z</time>
        <course>32.7923401436565</course>
        <speed>6.13527553539268</speed>
      </trkpt>
      <trkpt lat="42.84938" lon="12.75133">
        <ele>225</ele>
        <time>2011-04-08T03:23:08Z</time>
        <course>28.7024112116171</course>
        <speed>8.31901418140389</speed>
      </trkpt>
      <trkpt lat="42.84969" lon="12.75093">
        <ele>224</ele>
        <time>2011-04-08T03:23:14Z</time>
        <course>20.4849708455481</course>
        <speed>8.31680457900534</speed>
      </trkpt>
      <trkpt lat="42.85027" lon="12.75042">
        <ele>224</ele>
        <time>2011-04-08T03:23:23Z</time>
        <course>17.3318109379121</course>
        <speed>8.31874972156978</speed>
      </trkpt>
      <trkpt lat="42.85239" lon="12.74887">
        <ele>224</ele>
        <time>2011-04-08T03:23:55Z</time>
        <course>20.3975205466083</course>
        <speed>8.31777454550432</speed>
      </trkpt>
      <trkpt lat="42.85628" lon="12.74551">
        <ele>218</ele>
        <time>2011-04-08T03:24:57Z</time>
        <course>22.2944568132399</course>
        <speed>6.07383538712356</speed>
      </trkpt>
      <trkpt lat="42.8569" lon="12.74492">
        <ele>219</ele>
        <time>2011-04-08T03:25:11Z</time>
        <course>25.2009609369454</course>
        <speed>6.07569339155805</speed>
      </trkpt>
      <trkpt lat="42.85745" lon="12.74432">
        <ele>221</ele>
        <time>2011-04-08T03:25:24Z</time>
        <course>152.799425709373</course>
        <speed>8.32344614222296</speed>
      </trkpt>
      <trkpt lat="42.85719" lon="12.74401">
        <ele>219</ele>
        <time>2011-04-08T03:25:28Z</time>
        <course>31.6348566743242</course>
        <speed>8.31217924031456</speed>
      </trkpt>
      <trkpt lat="42.85733" lon="12.74381">
        <ele>219</ele>
        <time>2011-04-08T03:25:31Z</time>
        <course>151.007984650959</course>
        <speed>8.32886292944608</speed>
      </trkpt>
      <trkpt lat="42.85712" lon="12.74354">
        <ele>217</ele>
        <time>2011-04-08T03:25:35Z</time>
        <course>124.845884201198</course>
        <speed>8.30322573874926</speed>
      </trkpt>
      <trkpt lat="42.85706" lon="12.74334">
        <ele>217</ele>
        <time>2011-04-08T03:25:37Z</time>
        <course>139.271233015773</course>
        <speed>8.31981578749649</speed>
      </trkpt>
      <trkpt lat="42.85669" lon="12.7426">
        <ele>215</ele>
        <time>2011-04-08T03:25:46Z</time>
        <course>143.162615994153</course>
        <speed>7.18269687636986</speed>
      </trkpt>
      <trkpt lat="42.85599" lon="12.74138">
        <ele>216</ele>
        <time>2011-04-08T03:26:03Z</time>
        <course>156.760117236357</course>
        <speed>7.91992572029875</speed>
      </trkpt>
      <trkpt lat="42.85541" lon="12.7408">
        <ele>216</ele>
        <time>2011-04-08T03:26:13Z</time>
        <course>23.9458319088996</course>
        <speed>7.92057161895972</speed>
      </trkpt>
      <trkpt lat="42.85571" lon="12.74049">
        <ele>216</ele>
        <time>2011-04-08T03:26:19Z</time>
        <course>19.3256812637292</course>
        <speed>7.92009937869369</speed>
      </trkpt>
      <trkpt lat="42.85784" lon="12.73876">
        <ele>217</ele>
        <time>2011-04-08T03:26:53Z</time>
        <course>20.1985612640665</course>
        <speed>8.31848285708951</speed>
      </trkpt>
      <trkpt lat="42.86046" lon="12.73654">
        <ele>217</ele>
        <time>2011-04-08T03:27:35Z</time>
        <course>8.23373918760281</course>
        <speed>8.30241948980632</speed>
      </trkpt>
      <trkpt lat="42.86055" lon="12.73651">
        <ele>217</ele>
        <time>2011-04-08T03:27:36Z</time>
        <course>20.7176851815512</course>
        <speed>8.31668561881474</speed>
      </trkpt>
      <trkpt lat="42.86192" lon="12.73532">
        <ele>217</ele>
        <time>2011-04-08T03:27:57Z</time>
        <course>18.4762871225878</course>
        <speed>8.31642709717956</speed>
      </trkpt>
      <trkpt lat="42.86269" lon="12.73473">
        <ele>216</ele>
        <time>2011-04-08T03:28:09Z</time>
        <course>20.0222770421545</course>
        <speed>8.31833258767247</speed>
      </trkpt>
      <trkpt lat="42.86699" lon="12.73117">
        <ele>214</ele>
        <time>2011-04-08T03:29:16Z</time>
        <course>19.1843313808393</course>
        <speed>8.31884764106054</speed>
      </trkpt>
      <trkpt lat="42.86975" lon="12.729">
        <ele>213</ele>
        <time>2011-04-08T03:29:59Z</time>
        <course>24.1211553406591</course>
        <speed>7.27611711957424</speed>
      </trkpt>
      <trkpt lat="42.87076" lon="12.72798">
        <ele>214</ele>
        <time>2011-04-08T03:30:18Z</time>
        <course>13.7072522044489</course>
        <speed>7.2831492077635</speed>
      </trkpt>
      <trkpt lat="42.87096" lon="12.72787">
        <ele>214</ele>
        <time>2011-04-08T03:30:21Z</time>
        <course>118.552662703647</course>
        <speed>7.29004118569886</speed>
      </trkpt>
      <trkpt lat="42.87063" lon="12.7265">
        <ele>215</ele>
        <time>2011-04-08T03:30:38Z</time>
        <course>100.814917958411</course>
        <speed>8.3149691980382</speed>
      </trkpt>
      <trkpt lat="42.87057" lon="12.72579">
        <ele>214</ele>
        <time>2011-04-08T03:30:45Z</time>
        <course>93.9315027689688</course>
        <speed>8.31609913447521</speed>
      </trkpt>
      <trkpt lat="42.87052" lon="12.72413">
        <ele>213</ele>
        <time>2011-04-08T03:31:01Z</time>
        <course>111.085503188852</course>
        <speed>8.32137910077205</speed>
      </trkpt>
      <trkpt lat="42.87045" lon="12.72372">
        <ele>212</ele>
        <time>2011-04-08T03:31:05Z</time>
        <course>120.875051738287</course>
        <speed>8.31928830850165</speed>
      </trkpt>
      <trkpt lat="42.86989" lon="12.7216">
        <ele>212</ele>
        <time>2011-04-08T03:31:27Z</time>
        <course>114.882448779917</course>
        <speed>7.26479409663325</speed>
      </trkpt>
      <trkpt lat="42.86981" lon="12.72121">
        <ele>212</ele>
        <time>2011-04-08T03:31:32Z</time>
        <course>101.487214035099</course>
        <speed>7.27246647717204</speed>
      </trkpt>
      <trkpt lat="42.86974" lon="12.72043">
        <ele>212</ele>
        <time>2011-04-08T03:31:40Z</time>
        <course>92.5510783012843</course>
        <speed>7.27658817157361</speed>
      </trkpt>
      <trkpt lat="42.86973" lon="12.71992">
        <ele>213</ele>
        <time>2011-04-08T03:31:46Z</time>
        <course>77.1570878643174</course>
        <speed>8.31791844948612</speed>
      </trkpt>
      <trkpt lat="42.8701" lon="12.71628">
        <ele>213</ele>
        <time>2011-04-08T03:32:22Z</time>
        <course>90.0184952189566</course>
        <speed>7.35715600898233</speed>
      </trkpt>
      <trkpt lat="42.8701" lon="12.71556">
        <ele>213</ele>
        <time>2011-04-08T03:32:30Z</time>
        <course>101.238339534321</course>
        <speed>7.35093364368276</speed>
      </trkpt>
      <trkpt lat="42.87" lon="12.71442">
        <ele>214</ele>
        <time>2011-04-08T03:32:43Z</time>
        <course>90.0102756288211</course>
        <speed>8.31017976079424</speed>
      </trkpt>
      <trkpt lat="42.87" lon="12.71402">
        <ele>214</ele>
        <time>2011-04-08T03:32:47Z</time>
        <course>70.7592497808456</course>
        <speed>8.31955736473694</speed>
      </trkpt>
      <trkpt lat="42.8705" lon="12.7108">
        <ele>214</ele>
        <time>2011-04-08T03:33:19Z</time>
        <course>72.3845504733744</course>
        <speed>8.31635171315441</speed>
      </trkpt>
      <trkpt lat="42.8706" lon="12.71009">
        <ele>214</ele>
        <time>2011-04-08T03:33:26Z</time>
        <course>90.0079612524919</course>
        <speed>8.33203983294801</speed>
      </trkpt>
      <trkpt lat="42.8706" lon="12.70978">
        <ele>214</ele>
        <time>2011-04-08T03:33:29Z</time>
        <course>120.009063242658</course>
        <speed>8.31865131366757</speed>
      </trkpt>
      <trkpt lat="42.87012" lon="12.7079">
        <ele>214</ele>
        <time>2011-04-08T03:33:49Z</time>
        <course>90.0156694057435</course>
        <speed>7.66638241144661</speed>
      </trkpt>
      <trkpt lat="42.87012" lon="12.70729">
        <ele>214</ele>
        <time>2011-04-08T03:33:55Z</time>
        <course>70.3712479650194</course>
        <speed>7.66399313706662</speed>
      </trkpt>
      <trkpt lat="42.87137" lon="12.69947">
        <ele>217</ele>
        <time>2011-04-08T03:35:20Z</time>
        <course>166.049208400509</course>
        <speed>4.9964449735726</speed>
      </trkpt>
      <trkpt lat="42.87112" lon="12.69933">
        <ele>218</ele>
        <time>2011-04-08T03:35:26Z</time>
        <course>166.049208400509</course>
        <speed>4.9964449735726</speed>
      </trkpt>
      <trkpt lat="42.87112" lon="12.69933">
        <ele>218</ele>
        <time>2011-04-08T03:35:27Z</time>
        <course>346.04201988599</course>
        <speed>8.31818124409178</speed>
      </trkpt>
      <trkpt lat="42.87137" lon="12.69947">
        <ele>217</ele>
        <time>2011-04-08T03:35:31Z</time>
        <course>68.3267689472631</course>
        <speed>8.32756666621219</speed>
      </trkpt>
      <trkpt lat="42.87143" lon="12.69913">
        <ele>217</ele>
        <time>2011-04-08T03:35:34Z</time>
        <course>84.4176752891601</course>
        <speed>8.32090475112499</speed>
      </trkpt>
      <trkpt lat="42.87145" lon="12.69867">
        <ele>217</ele>
        <time>2011-04-08T03:35:39Z</time>
        <course>128.089123180064</course>
        <speed>8.32657836131933</speed>
      </trkpt>
      <trkpt lat="42.87137" lon="12.69844">
        <ele>217</ele>
        <time>2011-04-08T03:35:41Z</time>
        <course>162.744376946946</course>
        <speed>8.32597233206616</speed>
      </trkpt>
      <trkpt lat="42.87127" lon="12.69837">
        <ele>217</ele>
        <time>2011-04-08T03:35:43Z</time>
        <course>168.598927155666</course>
        <speed>8.31199758178217</speed>
      </trkpt>
      <trkpt lat="42.87116" lon="12.69832">
        <ele>217</ele>
        <time>2011-04-08T03:35:44Z</time>
        <course>182.557849773896</course>
        <speed>8.31860497060143</speed>
      </trkpt>
      <trkpt lat="42.87007" lon="12.69843">
        <ele>217</ele>
        <time>2011-04-08T03:35:59Z</time>
        <course>177.972845022967</course>
        <speed>7.64497495294343</speed>
      </trkpt>
      <trkpt lat="42.86982" lon="12.69841">
        <ele>217</ele>
        <time>2011-04-08T03:36:02Z</time>
        <course>169.038271824639</course>
        <speed>7.64585803920871</speed>
      </trkpt>
      <trkpt lat="42.86617" lon="12.6968">
        <ele>219</ele>
        <time>2011-04-08T03:36:58Z</time>
        <course>164.244019282343</course>
        <speed>7.98582516698211</speed>
      </trkpt>
      <trkpt lat="42.86228" lon="12.69428">
        <ele>220</ele>
        <time>2011-04-08T03:37:58Z</time>
        <course>161.406215728287</course>
        <speed>8.31822064301315</speed>
      </trkpt>
      <trkpt lat="42.86095" lon="12.69325">
        <ele>219</ele>
        <time>2011-04-08T03:38:18Z</time>
        <course>162.555101809052</course>
        <speed>7.34211590320635</speed>
      </trkpt>
      <trkpt lat="42.855" lon="12.68889">
        <ele>224</ele>
        <time>2011-04-08T03:40:01Z</time>
        <course>159.634488639658</course>
        <speed>7.81974409022156</speed>
      </trkpt>
      <trkpt lat="42.85262" lon="12.68682">
        <ele>225</ele>
        <time>2011-04-08T03:40:41Z</time>
        <course>160.839487830151</course>
        <speed>7.52532014228735</speed>
      </trkpt>
      <trkpt lat="42.84824" lon="12.68322">
        <ele>228</ele>
        <time>2011-04-08T03:41:56Z</time>
        <course>161.430803336233</course>
        <speed>7.96644399311732</speed>
      </trkpt>
      <trkpt lat="42.84473" lon="12.68041">
        <ele>229</ele>
        <time>2011-04-08T03:42:53Z</time>
        <course>162.299049831842</course>
        <speed>6.60677801250324</speed>
      </trkpt>
      <trkpt lat="42.84231" lon="12.67856">
        <ele>233</ele>
        <time>2011-04-08T03:43:40Z</time>
        <course>165.942456964285</course>
        <speed>7.00373323343788</speed>
      </trkpt>
      <trkpt lat="42.84201" lon="12.67838">
        <ele>233</ele>
        <time>2011-04-08T03:43:45Z</time>
        <course>169.475051714038</course>
        <speed>6.99887599991445</speed>
      </trkpt>
      <trkpt lat="42.84051" lon="12.67771">
        <ele>235</ele>
        <time>2011-04-08T03:44:10Z</time>
        <course>172.960695560179</course>
        <speed>7.3360543069947</speed>
      </trkpt>
      <trkpt lat="42.8392" lon="12.67732">
        <ele>236</ele>
        <time>2011-04-08T03:44:30Z</time>
        <course>170.603455879864</course>
        <speed>8.31801399834104</speed>
      </trkpt>
      <trkpt lat="42.83805" lon="12.67686">
        <ele>235</ele>
        <time>2011-04-08T03:44:46Z</time>
        <course>135.731646440012</course>
        <speed>6.37885443248917</speed>
      </trkpt>
      <trkpt lat="42.83791" lon="12.67653">
        <ele>235</ele>
        <time>2011-04-08T03:44:51Z</time>
        <course>165.820686891659</course>
        <speed>6.37152103000665</speed>
      </trkpt>
      <trkpt lat="42.83773" lon="12.67642">
        <ele>235</ele>
        <time>2011-04-08T03:44:55Z</time>
        <course>29.6224197181033</course>
        <speed>6.37567518885286</speed>
      </trkpt>
      <trkpt lat="42.83781" lon="12.67631">
        <ele>236</ele>
        <time>2011-04-08T03:44:57Z</time>
        <course>29.6224197181033</course>
        <speed>6.37567518885286</speed>
      </trkpt>
      <trkpt lat="42.83781" lon="12.67631">
        <ele>236</ele>
        <time>2011-04-08T03:44:58Z</time>
        <course>24.0517946558394</course>
        <speed>4.74057205722015</speed>
      </trkpt>
      <trkpt lat="42.84043" lon="12.6735">
        <ele>250</ele>
        <time>2011-04-08T03:46:16Z</time>
        <course>14.2133172131968</course>
        <speed>8.32966919400254</speed>
      </trkpt>
      <trkpt lat="42.84066" lon="12.67336">
        <ele>249</ele>
        <time>2011-04-08T03:46:19Z</time>
        <course>3.81085805318148</course>
        <speed>8.32099361547898</speed>
      </trkpt>
      <trkpt lat="42.84185" lon="12.67317">
        <ele>249</ele>
        <time>2011-04-08T03:46:35Z</time>
        <course>11.7938226776819</course>
        <speed>8.31869104673248</speed>
      </trkpt>
      <trkpt lat="42.84229" lon="12.67295">
        <ele>247</ele>
        <time>2011-04-08T03:46:41Z</time>
        <course>29.1248843787046</course>
        <speed>8.32500424681163</speed>
      </trkpt>
      <trkpt lat="42.84256" lon="12.67259">
        <ele>246</ele>
        <time>2011-04-08T03:46:46Z</time>
        <course>42.6034996025117</course>
        <speed>8.32484016203747</speed>
      </trkpt>
      <trkpt lat="42.84271" lon="12.67226">
        <ele>246</ele>
        <time>2011-04-08T03:46:50Z</time>
        <course>48.3295037063054</course>
        <speed>8.31817892190024</speed>
      </trkpt>
      <trkpt lat="42.84337" lon="12.67049">
        <ele>242</ele>
        <time>2011-04-08T03:47:10Z</time>
        <course>38.5812297010919</course>
        <speed>8.31593961929948</speed>
      </trkpt>
      <trkpt lat="42.84358" lon="12.67009">
        <ele>241</ele>
        <time>2011-04-08T03:47:14Z</time>
        <course>16.3118008555559</course>
        <speed>8.3181960728821</speed>
      </trkpt>
      <trkpt lat="42.84503" lon="12.66908">
        <ele>240</ele>
        <time>2011-04-08T03:47:36Z</time>
        <course>27.0416355458672</course>
        <speed>5.09888879087079</speed>
      </trkpt>
      <trkpt lat="42.84531" lon="12.66874">
        <ele>241</ele>
        <time>2011-04-08T03:47:44Z</time>
        <course>54.7889939640764</course>
        <speed>5.10012939728962</speed>
      </trkpt>
      <trkpt lat="42.8455" lon="12.6681">
        <ele>243</ele>
        <time>2011-04-08T03:47:55Z</time>
        <course>90.0090971938643</course>
        <speed>5.1011141825489</speed>
      </trkpt>
      <trkpt lat="42.8455" lon="12.66775">
        <ele>244</ele>
        <time>2011-04-08T03:48:01Z</time>
        <course>104.400786870672</course>
        <speed>4.76414031599698</speed>
      </trkpt>
      <trkpt lat="42.84536" lon="12.66645">
        <ele>248</ele>
        <time>2011-04-08T03:48:23Z</time>
        <course>62.1577751626021</course>
        <speed>4.23308821139399</speed>
      </trkpt>
      <trkpt lat="42.8455" lon="12.66582">
        <ele>250</ele>
        <time>2011-04-08T03:48:36Z</time>
        <course>54.5225300056321</course>
        <speed>4.23212474414466</speed>
      </trkpt>
      <trkpt lat="42.84574" lon="12.66502">
        <ele>254</ele>
        <time>2011-04-08T03:48:53Z</time>
        <course>48.5481116465973</course>
        <speed>3.93025963355658</speed>
      </trkpt>
      <trkpt lat="42.84625" lon="12.66365">
        <ele>261</ele>
        <time>2011-04-08T03:49:25Z</time>
        <course>42.115708396778</course>
        <speed>4.0906710970068</speed>
      </trkpt>
      <trkpt lat="42.84681" lon="12.66245">
        <ele>267</ele>
        <time>2011-04-08T03:49:53Z</time>
        <course>37.5432574982115</course>
        <speed>3.20377233402395</speed>
      </trkpt>
      <trkpt lat="42.8472" lon="12.66174">
        <ele>272</ele>
        <time>2011-04-08T03:50:16Z</time>
        <course>51.7142717448764</course>
        <speed>3.20386329701946</speed>
      </trkpt>
      <trkpt lat="42.84735" lon="12.66129">
        <ele>276</ele>
        <time>2011-04-08T03:50:28Z</time>
        <course>79.2969712536888</course>
        <speed>5.73098950404096</speed>
      </trkpt>
      <trkpt lat="42.84743" lon="12.66029">
        <ele>277</ele>
        <time>2011-04-08T03:50:42Z</time>
        <course>109.484068257961</course>
        <speed>5.73017153919787</speed>
      </trkpt>
      <trkpt lat="42.84726" lon="12.65915">
        <ele>280</ele>
        <time>2011-04-08T03:50:59Z</time>
        <course>76.9967811059914</course>
        <speed>3.7070431495686</speed>
      </trkpt>
      <trkpt lat="42.8473" lon="12.65874">
        <ele>282</ele>
        <time>2011-04-08T03:51:08Z</time>
        <course>43.392188183492</course>
        <speed>3.70892725158257</speed>
      </trkpt>
      <trkpt lat="42.84751" lon="12.65827">
        <ele>284</ele>
        <time>2011-04-08T03:51:20Z</time>
        <course>27.1455698316808</course>
        <speed>3.70802892590093</speed>
      </trkpt>
      <trkpt lat="42.84817" lon="12.65747">
        <ele>291</ele>
        <time>2011-04-08T03:51:47Z</time>
        <course>43.6178675960371</course>
        <speed>3.80613377749329</speed>
      </trkpt>
      <trkpt lat="42.84861" lon="12.65648">
        <ele>296</ele>
        <time>2011-04-08T03:52:11Z</time>
        <course>65.7162358201052</course>
        <speed>3.80655650052815</speed>
      </trkpt>
      <trkpt lat="42.84874" lon="12.6558">
        <ele>300</ele>
        <time>2011-04-08T03:52:26Z</time>
        <course>84.6101483334665</course>
        <speed>8.32540436684658</speed>
      </trkpt>
      <trkpt lat="42.84875" lon="12.65555">
        <ele>299</ele>
        <time>2011-04-08T03:52:29Z</time>
        <course>104.71513166949</course>
        <speed>8.31370976070767</speed>
      </trkpt>
      <trkpt lat="42.8487" lon="12.6551">
        <ele>299</ele>
        <time>2011-04-08T03:52:33Z</time>
        <course>135.950119316199</course>
        <speed>8.31967674481499</speed>
      </trkpt>
      <trkpt lat="42.84774" lon="12.6529">
        <ele>298</ele>
        <time>2011-04-08T03:52:58Z</time>
        <course>122.838435208086</course>
        <speed>4.12200110514088</speed>
      </trkpt>
      <trkpt lat="42.84731" lon="12.65132">
        <ele>305</ele>
        <time>2011-04-08T03:53:32Z</time>
        <course>118.860763942705</course>
        <speed>5.86944034396974</speed>
      </trkpt>
      <trkpt lat="42.84692" lon="12.64964">
        <ele>308</ele>
        <time>2011-04-08T03:53:56Z</time>
        <course>129.52720333237</course>
        <speed>4.28068425042434</speed>
      </trkpt>
      <trkpt lat="42.84676" lon="12.64918">
        <ele>309</ele>
        <time>2011-04-08T03:54:06Z</time>
        <course>144.381818059871</course>
        <speed>4.28387382720487</speed>
      </trkpt>
      <trkpt lat="42.84656" lon="12.64884">
        <ele>311</ele>
        <time>2011-04-08T03:54:14Z</time>
        <course>150.827188026591</course>
        <speed>4.28181704533249</speed>
      </trkpt>
      <trkpt lat="42.8461" lon="12.64823">
        <ele>315</ele>
        <time>2011-04-08T03:54:31Z</time>
        <course>137.351693551077</course>
        <speed>4.42587059998668</speed>
      </trkpt>
      <trkpt lat="42.84568" lon="12.64731">
        <ele>318</ele>
        <time>2011-04-08T03:54:51Z</time>
        <course>149.964245057376</course>
        <speed>4.42913348824317</speed>
      </trkpt>
      <trkpt lat="42.84552" lon="12.64709">
        <ele>320</ele>
        <time>2011-04-08T03:54:56Z</time>
        <course>163.926707803028</course>
        <speed>3.11155764605138</speed>
      </trkpt>
      <trkpt lat="42.84517" lon="12.64685">
        <ele>323</ele>
        <time>2011-04-08T03:55:10Z</time>
        <course>177.879749151613</course>
        <speed>3.11091039919556</speed>
      </trkpt>
      <trkpt lat="42.84449" lon="12.64679">
        <ele>330</ele>
        <time>2011-04-08T03:55:35Z</time>
        <course>167.398395589461</course>
        <speed>3.82143895693717</speed>
      </trkpt>
      <trkpt lat="42.84404" lon="12.64655">
        <ele>333</ele>
        <time>2011-04-08T03:55:49Z</time>
        <course>160.754786362586</course>
        <speed>3.82065323100081</speed>
      </trkpt>
      <trkpt lat="42.8438" lon="12.64635">
        <ele>335</ele>
        <time>2011-04-08T03:55:57Z</time>
        <course>154.43326137451</course>
        <speed>3.82088443702303</speed>
      </trkpt>
      <trkpt lat="42.84345" lon="12.64595">
        <ele>338</ele>
        <time>2011-04-08T03:56:10Z</time>
        <course>139.951705245583</course>
        <speed>5.53087617442021</speed>
      </trkpt>
      <trkpt lat="42.84265" lon="12.64434">
        <ele>342</ele>
        <time>2011-04-08T03:56:39Z</time>
        <course>142.629961672712</course>
        <speed>8.31937020865814</speed>
      </trkpt>
      <trkpt lat="42.84206" lon="12.64326">
        <ele>342</ele>
        <time>2011-04-08T03:56:52Z</time>
        <course>136.54113908232</course>
        <speed>8.31571889708695</speed>
      </trkpt>
      <trkpt lat="42.84173" lon="12.64251">
        <ele>340</ele>
        <time>2011-04-08T03:57:01Z</time>
        <course>114.357302751762</course>
        <speed>8.3189648984186</speed>
      </trkpt>
      <trkpt lat="42.84163" lon="12.64198">
        <ele>339</ele>
        <time>2011-04-08T03:57:06Z</time>
        <course>87.3344081597802</course>
        <speed>8.32196442962769</speed>
      </trkpt>
      <trkpt lat="42.84165" lon="12.64096">
        <ele>337</ele>
        <time>2011-04-08T03:57:16Z</time>
        <course>70.0606704684059</course>
        <speed>8.31984033902038</speed>
      </trkpt>
      <trkpt lat="42.8418" lon="12.63997">
        <ele>337</ele>
        <time>2011-04-08T03:57:26Z</time>
        <course>57.2797857671385</course>
        <speed>7.50454195433644</speed>
      </trkpt>
      <trkpt lat="42.84202" lon="12.63915">
        <ele>337</ele>
        <time>2011-04-08T03:57:35Z</time>
        <course>53.0038913824487</course>
        <speed>7.50283337417339</speed>
      </trkpt>
      <trkpt lat="42.84242" lon="12.63788">
        <ele>338</ele>
        <time>2011-04-08T03:57:50Z</time>
        <course>40.4983697661781</course>
        <speed>8.32084607729478</speed>
      </trkpt>
      <trkpt lat="42.8429" lon="12.6369">
        <ele>337</ele>
        <time>2011-04-08T03:58:02Z</time>
        <course>24.851136516704</course>
        <speed>8.32302518437164</speed>
      </trkpt>
      <trkpt lat="42.84337" lon="12.63638">
        <ele>337</ele>
        <time>2011-04-08T03:58:10Z</time>
        <course>18.0113971895758</course>
        <speed>8.31879783720543</speed>
      </trkpt>
      <trkpt lat="42.8447" lon="12.63535">
        <ele>334</ele>
        <time>2011-04-08T03:58:30Z</time>
        <course>6.84329886667648</course>
        <speed>8.321718572384</speed>
      </trkpt>
      <trkpt lat="42.84498" lon="12.63527">
        <ele>334</ele>
        <time>2011-04-08T03:58:34Z</time>
        <course>359.10769929383</course>
        <speed>8.31397783909789</speed>
      </trkpt>
      <trkpt lat="42.84552" lon="12.63529">
        <ele>334</ele>
        <time>2011-04-08T03:58:42Z</time>
        <course>10.6821506027233</course>
        <speed>8.31389841880046</speed>
      </trkpt>
      <trkpt lat="42.84581" lon="12.63516">
        <ele>334</ele>
        <time>2011-04-08T03:58:46Z</time>
        <course>29.7965294001958</course>
        <speed>5.94402206020525</speed>
      </trkpt>
      <trkpt lat="42.84606" lon="12.63482">
        <ele>334</ele>
        <time>2011-04-08T03:58:52Z</time>
        <course>44.5010891065116</course>
        <speed>5.95119655250479</speed>
      </trkpt>
      <trkpt lat="42.84618" lon="12.63454">
        <ele>335</ele>
        <time>2011-04-08T03:58:57Z</time>
        <course>59.0241859979767</course>
        <speed>5.94571529915245</speed>
      </trkpt>
      <trkpt lat="42.84776" lon="12.62834">
        <ele>346</ele>
        <time>2011-04-08T04:00:27Z</time>
        <course>75.7795790382004</course>
        <speed>8.32261307999687</speed>
      </trkpt>
      <trkpt lat="42.84779" lon="12.62806">
        <ele>345</ele>
        <time>2011-04-08T04:00:29Z</time>
        <course>102.907244733616</course>
        <speed>8.3249917971461</speed>
      </trkpt>
      <trkpt lat="42.84776" lon="12.62775">
        <ele>344</ele>
        <time>2011-04-08T04:00:32Z</time>
        <course>126.235479029478</course>
        <speed>8.31898396936242</speed>
      </trkpt>
      <trkpt lat="42.84746" lon="12.62678">
        <ele>342</ele>
        <time>2011-04-08T04:00:43Z</time>
        <course>75.7707910526145</course>
        <speed>8.32265265501253</speed>
      </trkpt>
      <trkpt lat="42.84749" lon="12.6265">
        <ele>341</ele>
        <time>2011-04-08T04:00:45Z</time>
        <course>40.1898558977883</course>
        <speed>8.33334542579726</speed>
      </trkpt>
      <trkpt lat="42.84755" lon="12.62638">
        <ele>340</ele>
        <time>2011-04-08T04:00:47Z</time>
        <course>14.2294227113046</course>
        <speed>8.31481352475109</speed>
      </trkpt>
      <trkpt lat="42.84785" lon="12.6262">
        <ele>339</ele>
        <time>2011-04-08T04:00:51Z</time>
        <course>6.01628333020576</course>
        <speed>8.31989703803954</speed>
      </trkpt>
      <trkpt lat="42.8495" lon="12.62579">
        <ele>333</ele>
        <time>2011-04-08T04:01:14Z</time>
        <course>10.9170269696062</course>
        <speed>8.31228820973211</speed>
      </trkpt>
      <trkpt lat="42.84972" lon="12.62569">
        <ele>332</ele>
        <time>2011-04-08T04:01:17Z</time>
        <course>23.0096240318748</course>
        <speed>8.31454717176304</speed>
      </trkpt>
      <trkpt lat="42.85007" lon="12.62534">
        <ele>330</ele>
        <time>2011-04-08T04:01:23Z</time>
        <course>40.3572786557566</course>
        <speed>8.32138115047162</speed>
      </trkpt>
      <trkpt lat="42.85027" lon="12.62494">
        <ele>329</ele>
        <time>2011-04-08T04:01:27Z</time>
        <course>68.117576922417</course>
        <speed>4.40240208825738</speed>
      </trkpt>
      <trkpt lat="42.85034" lon="12.62453">
        <ele>330</ele>
        <time>2011-04-08T04:01:35Z</time>
        <course>94.349719107086</course>
        <speed>4.40397264086996</speed>
      </trkpt>
      <trkpt lat="42.85033" lon="12.62422">
        <ele>331</ele>
        <time>2011-04-08T04:01:41Z</time>
        <course>117.611028641841</course>
        <speed>4.40408224809096</speed>
      </trkpt>
      <trkpt lat="42.8499" lon="12.62228">
        <ele>339</ele>
        <time>2011-04-08T04:02:18Z</time>
        <course>102.837354733706</course>
        <speed>5.60913516670705</speed>
      </trkpt>
      <trkpt lat="42.84979" lon="12.62114">
        <ele>341</ele>
        <time>2011-04-08T04:02:35Z</time>
        <course>93.0883066452372</course>
        <speed>5.60788916871806</speed>
      </trkpt>
      <trkpt lat="42.84977" lon="12.62026">
        <ele>343</ele>
        <time>2011-04-08T04:02:48Z</time>
        <course>76.7651786247592</course>
        <speed>7.19131789794934</speed>
      </trkpt>
      <trkpt lat="42.84986" lon="12.61936">
        <ele>343</ele>
        <time>2011-04-08T04:02:58Z</time>
        <course>51.8781736092465</course>
        <speed>7.19769632800912</speed>
      </trkpt>
      <trkpt lat="42.85006" lon="12.61876">
        <ele>344</ele>
        <time>2011-04-08T04:03:06Z</time>
        <course>43.1903804744979</course>
        <speed>7.58562773206534</speed>
      </trkpt>
      <trkpt lat="42.85104" lon="12.6166">
        <ele>345</ele>
        <time>2011-04-08T04:03:33Z</time>
        <course>63.990359671543</course>
        <speed>8.31743399622678</speed>
      </trkpt>
      <trkpt lat="42.85135" lon="12.61511">
        <ele>341</ele>
        <time>2011-04-08T04:03:48Z</time>
        <course>30.2401756186893</course>
        <speed>7.08674427948578</speed>
      </trkpt>
      <trkpt lat="42.85154" lon="12.61485">
        <ele>341</ele>
        <time>2011-04-08T04:03:52Z</time>
        <course>18.3198919345869</course>
        <speed>7.09090984947754</speed>
      </trkpt>
      <trkpt lat="42.85221" lon="12.61433">
        <ele>342</ele>
        <time>2011-04-08T04:04:04Z</time>
        <course>26.4683132421486</course>
        <speed>5.96816663391339</speed>
      </trkpt>
      <trkpt lat="42.85239" lon="12.61412">
        <ele>342</ele>
        <time>2011-04-08T04:04:09Z</time>
        <course>38.4085482468127</course>
        <speed>5.97265390698753</speed>
      </trkpt>
      <trkpt lat="42.85253" lon="12.61386">
        <ele>343</ele>
        <time>2011-04-08T04:04:13Z</time>
        <course>50.5222810579232</course>
        <speed>5.9650400648447</speed>
      </trkpt>
      <trkpt lat="42.85272" lon="12.61332">
        <ele>344</ele>
        <time>2011-04-08T04:04:21Z</time>
        <course>70.3023164788007</course>
        <speed>8.32211229630179</speed>
      </trkpt>
      <trkpt lat="42.85289" lon="12.61221">
        <ele>342</ele>
        <time>2011-04-08T04:04:32Z</time>
        <course>320.017328280332</course>
        <speed>8.32299713538544</speed>
      </trkpt>
      <trkpt lat="42.85315" lon="12.61272">
        <ele>341</ele>
        <time>2011-04-08T04:04:39Z</time>
        <course>95.8141647718867</course>
        <speed>8.30494766741727</speed>
      </trkpt>
      <trkpt lat="42.85314" lon="12.61249">
        <ele>340</ele>
        <time>2011-04-08T04:04:41Z</time>
        <course>139.483715495308</course>
        <speed>8.31154859814368</speed>
      </trkpt>
      <trkpt lat="42.85303" lon="12.61227">
        <ele>340</ele>
        <time>2011-04-08T04:04:43Z</time>
        <course>101.675871125455</course>
        <speed>8.32747179838054</speed>
      </trkpt>
      <trkpt lat="42.853" lon="12.61193">
        <ele>340</ele>
        <time>2011-04-08T04:04:47Z</time>
        <course>6.96253250670065</course>
        <speed>8.3216719653842</speed>
      </trkpt>
      <trkpt lat="42.85314" lon="12.61189">
        <ele>340</ele>
        <time>2011-04-08T04:04:49Z</time>
        <course>6.96253250670065</course>
        <speed>8.3216719653842</speed>
      </trkpt>
      <trkpt lat="42.85314" lon="12.61189">
        <ele>340</ele>
        <time>2011-04-08T04:04:50Z</time>
        <course>186.960460502977</course>
        <speed>8.3216719653842</speed>
      </trkpt>
      <trkpt lat="42.853" lon="12.61193">
        <ele>339</ele>
        <time>2011-04-08T04:04:52Z</time>
        <course>281.658258635946</course>
        <speed>8.32747179838054</speed>
      </trkpt>
      <trkpt lat="42.85303" lon="12.61227">
        <ele>339</ele>
        <time>2011-04-08T04:04:55Z</time>
        <course>319.472319555622</course>
        <speed>8.31154859814368</speed>
      </trkpt>
      <trkpt lat="42.85314" lon="12.61249">
        <ele>338</ele>
        <time>2011-04-08T04:04:58Z</time>
        <course>275.802251172907</course>
        <speed>8.30494766741727</speed>
      </trkpt>
      <trkpt lat="42.85315" lon="12.61272">
        <ele>338</ele>
        <time>2011-04-08T04:05:00Z</time>
        <course>139.490472659411</course>
        <speed>8.32111631455131</speed>
      </trkpt>
      <trkpt lat="42.85295" lon="12.61232">
        <ele>337</ele>
        <time>2011-04-08T04:05:05Z</time>
        <course>141.933302098105</course>
        <speed>8.3351371023711</speed>
      </trkpt>
      <trkpt lat="42.85289" lon="12.61221">
        <ele>337</ele>
        <time>2011-04-08T04:05:06Z</time>
        <course>81.1460788613847</course>
        <speed>8.31848618056984</speed>
      </trkpt>
      <trkpt lat="42.85293" lon="12.61161">
        <ele>336</ele>
        <time>2011-04-08T04:05:12Z</time>
        <course>111.043718627577</course>
        <speed>8.31841660493626</speed>
      </trkpt>
      <trkpt lat="42.85255" lon="12.60929">
        <ele>333</ele>
        <time>2011-04-08T04:05:35Z</time>
        <course>65.5723390344602</course>
        <speed>7.19733319881436</speed>
      </trkpt>
      <trkpt lat="42.85275" lon="12.60826">
        <ele>333</ele>
        <time>2011-04-08T04:05:47Z</time>
        <course>52.652915115612</course>
        <speed>7.19517819442747</speed>
      </trkpt>
      <trkpt lat="42.8529" lon="12.6078">
        <ele>334</ele>
        <time>2011-04-08T04:05:53Z</time>
        <course>36.2274956180957</course>
        <speed>5.18362180289887</speed>
      </trkpt>
      <trkpt lat="42.85304" lon="12.60756">
        <ele>334</ele>
        <time>2011-04-08T04:05:58Z</time>
        <course>27.5625242790086</course>
        <speed>5.17847714271534</speed>
      </trkpt>
      <trkpt lat="42.85442" lon="12.60588">
        <ele>341</ele>
        <time>2011-04-08T04:06:37Z</time>
        <course>34.2485406931557</course>
        <speed>8.31754959718806</speed>
      </trkpt>
      <trkpt lat="42.85512" lon="12.60477">
        <ele>337</ele>
        <time>2011-04-08T04:06:52Z</time>
        <course>19.4321758304769</course>
        <speed>8.31101459365906</speed>
      </trkpt>
      <trkpt lat="42.8554" lon="12.60454">
        <ele>337</ele>
        <time>2011-04-08T04:06:56Z</time>
        <course>7.82915569550052</course>
        <speed>8.31898484792616</speed>
      </trkpt>
      <trkpt lat="42.85565" lon="12.60446">
        <ele>337</ele>
        <time>2011-04-08T04:06:59Z</time>
        <course>360</course>
        <speed>8.31510204075718</speed>
      </trkpt>
      <trkpt lat="42.85587" lon="12.60446">
        <ele>337</ele>
        <time>2011-04-08T04:07:02Z</time>
        <course>354.038029507019</course>
        <speed>8.31961410484155</speed>
      </trkpt>
      <trkpt lat="42.85686" lon="12.6047">
        <ele>337</ele>
        <time>2011-04-08T04:07:16Z</time>
        <course>357.9980203617</course>
        <speed>8.32059775976843</speed>
      </trkpt>
      <trkpt lat="42.85723" lon="12.60473">
        <ele>337</ele>
        <time>2011-04-08T04:07:21Z</time>
        <course>9.33485259161015</course>
        <speed>8.31149534560843</speed>
      </trkpt>
      <trkpt lat="42.85765" lon="12.60457">
        <ele>337</ele>
        <time>2011-04-08T04:07:27Z</time>
        <course>18.3383578498832</course>
        <speed>8.31922522275419</speed>
      </trkpt>
      <trkpt lat="42.85808" lon="12.60424">
        <ele>337</ele>
        <time>2011-04-08T04:07:33Z</time>
        <course>28.9131114723195</course>
        <speed>8.31725375651918</speed>
      </trkpt>
      <trkpt lat="42.85844" lon="12.60378">
        <ele>336</ele>
        <time>2011-04-08T04:07:40Z</time>
        <course>35.4727112855624</course>
        <speed>8.3188425872359</speed>
      </trkpt>
      <trkpt lat="42.86269" lon="12.59685">
        <ele>327</ele>
        <time>2011-04-08T04:09:08Z</time>
        <course>31.7955926811556</course>
        <speed>6.72969871834609</speed>
      </trkpt>
      <trkpt lat="42.86288" lon="12.59658">
        <ele>327</ele>
        <time>2011-04-08T04:09:13Z</time>
        <course>25.9783959396107</course>
        <speed>6.72272856672121</speed>
      </trkpt>
      <trkpt lat="42.86384" lon="12.59551">
        <ele>329</ele>
        <time>2011-04-08T04:09:33Z</time>
        <course>39.2213545089655</course>
        <speed>8.30801732956709</speed>
      </trkpt>
      <trkpt lat="42.86399" lon="12.59523">
        <ele>328</ele>
        <time>2011-04-08T04:09:37Z</time>
        <course>49.6759844857889</course>
        <speed>8.32235368622302</speed>
      </trkpt>
      <trkpt lat="42.86425" lon="12.59453">
        <ele>327</ele>
        <time>2011-04-08T04:09:44Z</time>
        <course>52.2417152193913</course>
        <speed>8.31817707826652</speed>
      </trkpt>
      <trkpt lat="42.86624" lon="12.5887">
        <ele>322</ele>
        <time>2011-04-08T04:10:47Z</time>
        <course>57.1745113783204</course>
        <speed>8.32288212168014</speed>
      </trkpt>
      <trkpt lat="42.86643" lon="12.58803">
        <ele>320</ele>
        <time>2011-04-08T04:10:54Z</time>
        <course>62.7755661191339</course>
        <speed>8.31872716786304</speed>
      </trkpt>
      <trkpt lat="42.86749" lon="12.58337">
        <ele>308</ele>
        <time>2011-04-08T04:11:42Z</time>
        <course>82.8235416205009</course>
        <speed>8.3217755487114</speed>
      </trkpt>
      <trkpt lat="42.86752" lon="12.58283">
        <ele>306</ele>
        <time>2011-04-08T04:11:47Z</time>
        <course>99.7593853729603</course>
        <speed>8.31788772646502</speed>
      </trkpt>
      <trkpt lat="42.86723" lon="12.57896">
        <ele>299</ele>
        <time>2011-04-08T04:12:25Z</time>
        <course>94.6827268314426</course>
        <speed>8.31738611149573</speed>
      </trkpt>
      <trkpt lat="42.86717" lon="12.57728">
        <ele>298</ele>
        <time>2011-04-08T04:12:42Z</time>
        <course>73.768213715559</course>
        <speed>8.31062348248058</speed>
      </trkpt>
      <trkpt lat="42.86722" lon="12.57689">
        <ele>297</ele>
        <time>2011-04-08T04:12:46Z</time>
        <course>64.0260971663943</course>
        <speed>8.31798362141587</speed>
      </trkpt>
      <trkpt lat="42.86813" lon="12.57267">
        <ele>293</ele>
        <time>2011-04-08T04:13:29Z</time>
        <course>81.1179745374767</course>
        <speed>8.32370963680309</speed>
      </trkpt>
      <trkpt lat="42.86815" lon="12.57238">
        <ele>292</ele>
        <time>2011-04-08T04:13:32Z</time>
        <course>108.717373313623</course>
        <speed>8.31839361986333</speed>
      </trkpt>
      <trkpt lat="42.86798" lon="12.57124">
        <ele>291</ele>
        <time>2011-04-08T04:13:43Z</time>
        <course>87.694546902711</course>
        <speed>7.66744372336842</speed>
      </trkpt>
      <trkpt lat="42.86799" lon="12.57068">
        <ele>291</ele>
        <time>2011-04-08T04:13:49Z</time>
        <course>55.0907535936321</course>
        <speed>7.66136983962507</speed>
      </trkpt>
      <trkpt lat="42.86946" lon="12.56593">
        <ele>293</ele>
        <time>2011-04-08T04:14:44Z</time>
        <course>29.1507817392202</course>
        <speed>8.32517448842732</speed>
      </trkpt>
      <trkpt lat="42.86969" lon="12.56564">
        <ele>292</ele>
        <time>2011-04-08T04:14:48Z</time>
        <course>23.3332226447483</course>
        <speed>8.32066883770494</speed>
      </trkpt>
      <trkpt lat="42.87008" lon="12.56526">
        <ele>292</ele>
        <time>2011-04-08T04:14:54Z</time>
        <course>18.2961261666999</course>
        <speed>8.31919654850746</speed>
      </trkpt>
      <trkpt lat="42.87257" lon="12.56341">
        <ele>291</ele>
        <time>2011-04-08T04:15:32Z</time>
        <course>19.9238950185968</course>
        <speed>8.31644979915658</speed>
      </trkpt>
      <trkpt lat="42.873" lon="12.56306">
        <ele>290</ele>
        <time>2011-04-08T04:15:39Z</time>
        <course>29.9200388196007</course>
        <speed>8.32708340132653</speed>
      </trkpt>
      <trkpt lat="42.87324" lon="12.56275">
        <ele>289</ele>
        <time>2011-04-08T04:15:43Z</time>
        <course>85.5815352146938</course>
        <speed>8.3247947039818</speed>
      </trkpt>
      <trkpt lat="42.87325" lon="12.56246">
        <ele>289</ele>
        <time>2011-04-08T04:15:46Z</time>
        <course>115.695364912311</course>
        <speed>8.30653399687282</speed>
      </trkpt>
      <trkpt lat="42.87319" lon="12.56218">
        <ele>288</ele>
        <time>2011-04-08T04:15:49Z</time>
        <course>135.586827594564</course>
        <speed>8.33283446285954</speed>
      </trkpt>
      <trkpt lat="42.87309" lon="12.56196">
        <ele>288</ele>
        <time>2011-04-08T04:15:52Z</time>
        <course>155.807868804862</course>
        <speed>8.31719130033302</speed>
      </trkpt>
      <trkpt lat="42.87147" lon="12.56032">
        <ele>288</ele>
        <time>2011-04-08T04:16:19Z</time>
        <course>345.229152168313</course>
        <speed>8.3223256546391</speed>
      </trkpt>
      <trkpt lat="42.87206" lon="12.56067">
        <ele>286</ele>
        <time>2011-04-08T04:16:27Z</time>
        <course>340.966615804258</course>
        <speed>8.3191767215458</speed>
      </trkpt>
      <trkpt lat="42.87469" lon="12.5627">
        <ele>282</ele>
        <time>2011-04-08T04:17:08Z</time>
        <course>327.882732620704</course>
        <speed>8.31905511221423</speed>
      </trkpt>
      <trkpt lat="42.8776" lon="12.56676">
        <ele>280</ele>
        <time>2011-04-08T04:18:03Z</time>
        <course>338.9273563501</course>
        <speed>5.46758956940851</speed>
      </trkpt>
      <trkpt lat="42.87774" lon="12.56688">
        <ele>280</ele>
        <time>2011-04-08T04:18:07Z</time>
        <course>349.388667491638</course>
        <speed>5.46750379692051</speed>
      </trkpt>
      <trkpt lat="42.87786" lon="12.56693">
        <ele>280</ele>
        <time>2011-04-08T04:18:09Z</time>
        <course>360</course>
        <speed>5.46899328862983</speed>
      </trkpt>
      <trkpt lat="42.8783" lon="12.56693">
        <ele>282</ele>
        <time>2011-04-08T04:18:18Z</time>
        <course>1.85759309472853</course>
        <speed>5.46905749616821</speed>
      </trkpt>
      <trkpt lat="42.88067" lon="12.56676">
        <ele>289</ele>
        <time>2011-04-08T04:19:06Z</time>
        <course>346.392915462325</course>
        <speed>4.88768487767222</speed>
      </trkpt>
      <trkpt lat="42.8811" lon="12.56699">
        <ele>290</ele>
        <time>2011-04-08T04:19:17Z</time>
        <course>343.570824446711</course>
        <speed>4.88737699848164</speed>
      </trkpt>
      <trkpt lat="42.8823" lon="12.56777">
        <ele>296</ele>
        <time>2011-04-08T04:19:47Z</time>
        <course>8.85509168428825</course>
        <speed>8.31751688484392</speed>
      </trkpt>
      <trkpt lat="42.88376" lon="12.56727">
        <ele>281</ele>
        <time>2011-04-08T04:20:07Z</time>
        <course>18.0052941179108</course>
        <speed>8.32166828890855</speed>
      </trkpt>
      <trkpt lat="42.8839" lon="12.56717">
        <ele>279</ele>
        <time>2011-04-08T04:20:09Z</time>
        <course>32.7266114098904</course>
        <speed>8.31164494152387</speed>
      </trkpt>
      <trkpt lat="42.88407" lon="12.56693">
        <ele>277</ele>
        <time>2011-04-08T04:20:12Z</time>
        <course>46.2687864313656</course>
        <speed>8.3216836484811</speed>
      </trkpt>
      <trkpt lat="42.88441" lon="12.56615">
        <ele>272</ele>
        <time>2011-04-08T04:20:21Z</time>
        <course>35.8142155286219</course>
        <speed>8.31919482386874</speed>
      </trkpt>
      <trkpt lat="42.88465" lon="12.56577">
        <ele>271</ele>
        <time>2011-04-08T04:20:26Z</time>
        <course>28.9627349746192</course>
        <speed>8.3183992595096</speed>
      </trkpt>
      <trkpt lat="42.88941" lon="12.56005">
        <ele>268</ele>
        <time>2011-04-08T04:21:51Z</time>
        <course>42.6250013881332</course>
        <speed>8.31776266536719</speed>
      </trkpt>
      <trkpt lat="42.88961" lon="12.55965">
        <ele>267</ele>
        <time>2011-04-08T04:21:56Z</time>
        <course>54.1056261168077</course>
        <speed>8.31873475354272</speed>
      </trkpt>
      <trkpt lat="42.8907" lon="12.55639">
        <ele>265</ele>
        <time>2011-04-08T04:22:31Z</time>
        <course>47.6051147777162</course>
        <speed>8.31958731805998</speed>
      </trkpt>
      <trkpt lat="42.89176" lon="12.55388">
        <ele>262</ele>
        <time>2011-04-08T04:22:59Z</time>
        <course>42.8041885766087</course>
        <speed>7.42201383273117</speed>
      </trkpt>
      <trkpt lat="42.8926" lon="12.5522">
        <ele>263</ele>
        <time>2011-04-08T04:23:21Z</time>
        <course>46.9140039027406</course>
        <speed>8.32118128326174</speed>
      </trkpt>
      <trkpt lat="42.89299" lon="12.5513">
        <ele>261</ele>
        <time>2011-04-08T04:23:32Z</time>
        <course>66.2320340771188</course>
        <speed>8.3151328493841</speed>
      </trkpt>
      <trkpt lat="42.89309" lon="12.55081">
        <ele>261</ele>
        <time>2011-04-08T04:23:37Z</time>
        <course>85.2623911817421</course>
        <speed>8.31865378517791</speed>
      </trkpt>
      <trkpt lat="42.89315" lon="12.54926">
        <ele>260</ele>
        <time>2011-04-08T04:23:52Z</time>
        <course>58.0116134609372</course>
        <speed>8.31568567398062</speed>
      </trkpt>
      <trkpt lat="42.89326" lon="12.54888">
        <ele>259</ele>
        <time>2011-04-08T04:23:56Z</time>
        <course>48.4659479322382</course>
        <speed>8.32232548868453</speed>
      </trkpt>
      <trkpt lat="42.89349" lon="12.54832">
        <ele>259</ele>
        <time>2011-04-08T04:24:02Z</time>
        <course>64.4222021493026</course>
        <speed>8.31523584730883</speed>
      </trkpt>
      <trkpt lat="42.89375" lon="12.54715">
        <ele>259</ele>
        <time>2011-04-08T04:24:14Z</time>
        <course>42.8645084897027</course>
        <speed>8.32374812487129</speed>
      </trkpt>
      <trkpt lat="42.89397" lon="12.54671">
        <ele>259</ele>
        <time>2011-04-08T04:24:19Z</time>
        <course>30.6919561108629</course>
        <speed>8.31919646330745</speed>
      </trkpt>
      <trkpt lat="42.89451" lon="12.54602">
        <ele>259</ele>
        <time>2011-04-08T04:24:29Z</time>
        <course>40.4227034214256</course>
        <speed>8.33151794981112</speed>
      </trkpt>
      <trkpt lat="42.89463" lon="12.5458">
        <ele>259</ele>
        <time>2011-04-08T04:24:32Z</time>
        <course>53.0189665791123</course>
        <speed>8.31524085542906</speed>
      </trkpt>
      <trkpt lat="42.89477" lon="12.5454">
        <ele>259</ele>
        <time>2011-04-08T04:24:36Z</time>
        <course>65.264064112914</course>
        <speed>8.31548217951631</speed>
      </trkpt>
      <trkpt lat="42.89492" lon="12.5447">
        <ele>259</ele>
        <time>2011-04-08T04:24:43Z</time>
        <course>43.4970172088722</course>
        <speed>8.31185119068368</speed>
      </trkpt>
      <trkpt lat="42.89517" lon="12.54419">
        <ele>258</ele>
        <time>2011-04-08T04:24:49Z</time>
        <course>39.191793508601</course>
        <speed>8.31860477359571</speed>
      </trkpt>
      <trkpt lat="42.89667" lon="12.54157">
        <ele>257</ele>
        <time>2011-04-08T04:25:22Z</time>
        <course>37.7226533977159</course>
        <speed>8.31763573695109</speed>
      </trkpt>
      <trkpt lat="42.89811" lon="12.53919">
        <ele>256</ele>
        <time>2011-04-08T04:25:52Z</time>
        <course>30.3167984845518</course>
        <speed>8.31281262816227</speed>
      </trkpt>
      <trkpt lat="42.89827" lon="12.53899">
        <ele>256</ele>
        <time>2011-04-08T04:25:55Z</time>
        <course>23.8602034398814</course>
        <speed>8.32064994295437</speed>
      </trkpt>
      <trkpt lat="42.89916" lon="12.53815">
        <ele>256</ele>
        <time>2011-04-08T04:26:09Z</time>
        <course>31.0780050052818</course>
        <speed>8.32619489012241</speed>
      </trkpt>
      <trkpt lat="42.89937" lon="12.53788">
        <ele>255</ele>
        <time>2011-04-08T04:26:13Z</time>
        <course>44.4418501280548</course>
        <speed>8.31191562090504</speed>
      </trkpt>
      <trkpt lat="42.89959" lon="12.53742">
        <ele>255</ele>
        <time>2011-04-08T04:26:19Z</time>
        <course>54.6404897960652</course>
        <speed>8.31640335418146</speed>
      </trkpt>
      <trkpt lat="42.90005" lon="12.53604">
        <ele>255</ele>
        <time>2011-04-08T04:26:34Z</time>
        <course>41.28305494505</course>
        <speed>8.31856000207113</speed>
      </trkpt>
      <trkpt lat="42.90028" lon="12.53561">
        <ele>254</ele>
        <time>2011-04-08T04:26:39Z</time>
        <course>29.3169517266086</course>
        <speed>8.31941930414883</speed>
      </trkpt>
      <trkpt lat="42.90121" lon="12.5345">
        <ele>252</ele>
        <time>2011-04-08T04:26:55Z</time>
        <course>20.0725941485106</course>
        <speed>8.31839714487421</speed>
      </trkpt>
      <trkpt lat="42.90263" lon="12.5334">
        <ele>251</ele>
        <time>2011-04-08T04:27:17Z</time>
        <course>17.1901375505793</course>
        <speed>7.24894255992909</speed>
      </trkpt>
      <trkpt lat="42.90373" lon="12.53268">
        <ele>252</ele>
        <time>2011-04-08T04:27:36Z</time>
        <course>354.934685043187</course>
        <speed>3.93554884975489</speed>
      </trkpt>
      <trkpt lat="42.90389" lon="12.53271">
        <ele>253</ele>
        <time>2011-04-08T04:27:40Z</time>
        <course>354.934685043187</course>
        <speed>3.93554884975489</speed>
      </trkpt>
      <trkpt lat="42.90389" lon="12.53271">
        <ele>253</ele>
        <time>2011-04-08T04:27:41Z</time>
        <course>174.936199789618</course>
        <speed>8.3083809050381</speed>
      </trkpt>
      <trkpt lat="42.90373" lon="12.53268">
        <ele>252</ele>
        <time>2011-04-08T04:27:43Z</time>
        <course>197.153771353532</course>
        <speed>8.31627152580821</speed>
      </trkpt>
      <trkpt lat="42.90263" lon="12.5334">
        <ele>251</ele>
        <time>2011-04-08T04:28:00Z</time>
        <course>293.918645909168</course>
        <speed>4.64895288923648</speed>
      </trkpt>
      <trkpt lat="42.90272" lon="12.53383">
        <ele>252</ele>
        <time>2011-04-08T04:28:08Z</time>
        <course>259.08272840595</course>
        <speed>4.64270090111004</speed>
      </trkpt>
      <trkpt lat="42.90269" lon="12.53416">
        <ele>253</ele>
        <time>2011-04-08T04:28:13Z</time>
        <course>218.943903871814</course>
        <speed>4.64753651419051</speed>
      </trkpt>
      <trkpt lat="42.90248" lon="12.53452">
        <ele>254</ele>
        <time>2011-04-08T04:28:21Z</time>
        <course>195.061161524803</course>
        <speed>4.6473393308621</speed>
      </trkpt>
      <trkpt lat="42.90185" lon="12.53488">
        <ele>258</ele>
        <time>2011-04-08T04:28:38Z</time>
        <course>212.69495338338</course>
        <speed>5.08852974507868</speed>
      </trkpt>
      <trkpt lat="42.90065" lon="12.53652">
        <ele>264</ele>
        <time>2011-04-08T04:29:15Z</time>
        <course>248.241308207434</course>
        <speed>3.49188555762634</speed>
      </trkpt>
      <trkpt lat="42.90062" lon="12.53668">
        <ele>264</ele>
        <time>2011-04-08T04:29:19Z</time>
        <course>324.008376489953</course>
        <speed>3.4902268839149</speed>
      </trkpt>
      <trkpt lat="42.90073" lon="12.53685">
        <ele>266</ele>
        <time>2011-04-08T04:29:24Z</time>
        <course>357.009937749002</course>
        <speed>3.49004233806424</speed>
      </trkpt>
      <trkpt lat="42.90091" lon="12.53687">
        <ele>267</ele>
        <time>2011-04-08T04:29:30Z</time>
        <course>44.4713657262847</course>
        <speed>3.48677978907805</speed>
      </trkpt>
      <trkpt lat="42.90114" lon="12.53639">
        <ele>270</ele>
        <time>2011-04-08T04:29:43Z</time>
        <course>25.1962299828846</course>
        <speed>3.48718690285351</speed>
      </trkpt>
      <trkpt lat="42.90132" lon="12.53621">
        <ele>272</ele>
        <time>2011-04-08T04:29:50Z</time>
        <course>8.9146527479373</course>
        <speed>3.48379565922893</speed>
      </trkpt>
      <trkpt lat="42.90144" lon="12.53617">
        <ele>273</ele>
        <time>2011-04-08T04:29:54Z</time>
        <course>358.886291134176</course>
        <speed>3.48756676479444</speed>
      </trkpt>
      <trkpt lat="42.90241" lon="12.53621">
        <ele>281</ele>
        <time>2011-04-08T04:30:25Z</time>
        <course>13.6459977759407</course>
        <speed>4.34957639568828</speed>
      </trkpt>
      <trkpt lat="42.90311" lon="12.53585">
        <ele>284</ele>
        <time>2011-04-08T04:30:44Z</time>
        <course>342.527522512075</course>
        <speed>4.35173404319816</speed>
      </trkpt>
      <trkpt lat="42.90323" lon="12.53593">
        <ele>285</ele>
        <time>2011-04-08T04:30:48Z</time>
        <course>319.636141992674</course>
        <speed>4.35745755602386</speed>
      </trkpt>
      <trkpt lat="42.90328" lon="12.53602">
        <ele>285</ele>
        <time>2011-04-08T04:30:50Z</time>
        <course>269.994696881148</course>
        <speed>4.34939584539064</speed>
      </trkpt>
      <trkpt lat="42.90328" lon="12.53623">
        <ele>286</ele>
        <time>2011-04-08T04:30:54Z</time>
        <course>219.565506953287</course>
        <speed>4.35322358285944</speed>
      </trkpt>
      <trkpt lat="42.90324" lon="12.5363">
        <ele>287</ele>
        <time>2011-04-08T04:30:55Z</time>
        <course>198.608273560033</course>
        <speed>4.34951886796193</speed>
      </trkpt>
      <trkpt lat="42.9024" lon="12.5369">
        <ele>291</ele>
        <time>2011-04-08T04:31:20Z</time>
        <course>219.513601609283</course>
        <speed>4.34453999212761</speed>
      </trkpt>
      <trkpt lat="42.90228" lon="12.53711">
        <ele>292</ele>
        <time>2011-04-08T04:31:25Z</time>
        <course>251.099645332481</course>
        <speed>4.34975894506094</speed>
      </trkpt>
      <trkpt lat="42.90223" lon="12.53742">
        <ele>294</ele>
        <time>2011-04-08T04:31:31Z</time>
        <course>292.981123820694</course>
        <speed>3.66217693769563</speed>
      </trkpt>
      <trkpt lat="42.90233" lon="12.53792">
        <ele>296</ele>
        <time>2011-04-08T04:31:42Z</time>
        <course>326.032157507156</course>
        <speed>3.65937983700336</speed>
      </trkpt>
      <trkpt lat="42.90254" lon="12.53822">
        <ele>298</ele>
        <time>2011-04-08T04:31:51Z</time>
        <course>349.444445144195</course>
        <speed>3.66133699898667</speed>
      </trkpt>
      <trkpt lat="42.90419" lon="12.53887">
        <ele>311</ele>
        <time>2011-04-08T04:32:43Z</time>
        <course>336.671583116297</course>
        <speed>4.26954137618181</speed>
      </trkpt>
      <trkpt lat="42.90475" lon="12.53938">
        <ele>314</ele>
        <time>2011-04-08T04:33:01Z</time>
        <course>346.858809685313</course>
        <speed>4.27031390500747</speed>
      </trkpt>
      <trkpt lat="42.90697" lon="12.54047">
        <ele>327</ele>
        <time>2011-04-08T04:34:02Z</time>
        <course>342.194292035702</course>
        <speed>3.85266010112404</speed>
      </trkpt>
      <trkpt lat="42.90737" lon="12.54074">
        <ele>329</ele>
        <time>2011-04-08T04:34:15Z</time>
        <course>336.581635040976</course>
        <speed>3.85096792537602</speed>
      </trkpt>
      <trkpt lat="42.90803" lon="12.54134">
        <ele>335</ele>
        <time>2011-04-08T04:34:38Z</time>
        <course>327.570652586383</course>
        <speed>5.37127384914522</speed>
      </trkpt>
      <trkpt lat="42.90815" lon="12.5415">
        <ele>335</ele>
        <time>2011-04-08T04:34:42Z</time>
        <course>293.826364212398</course>
        <speed>5.37231555173824</speed>
      </trkpt>
      <trkpt lat="42.90823" lon="12.54188">
        <ele>336</ele>
        <time>2011-04-08T04:34:48Z</time>
        <course>247.886911247465</course>
        <speed>5.3696984643885</speed>
      </trkpt>
      <trkpt lat="42.90817" lon="12.54219">
        <ele>337</ele>
        <time>2011-04-08T04:34:52Z</time>
        <course>216.82078804294</course>
        <speed>5.36646232759839</speed>
      </trkpt>
      <trkpt lat="42.9081" lon="12.5423">
        <ele>337</ele>
        <time>2011-04-08T04:34:55Z</time>
        <course>202.948967217858</course>
        <speed>5.37550360122869</speed>
      </trkpt>
      <trkpt lat="42.90801" lon="12.54238">
        <ele>337</ele>
        <time>2011-04-08T04:34:57Z</time>
        <course>191.443218770914</course>
        <speed>5.37055397972795</speed>
      </trkpt>
      <trkpt lat="42.907" lon="12.54281">
        <ele>341</ele>
        <time>2011-04-08T04:35:19Z</time>
        <course>202.903446736052</course>
        <speed>3.49449018611275</speed>
      </trkpt>
      <trkpt lat="42.90682" lon="12.54297">
        <ele>342</ele>
        <time>2011-04-08T04:35:26Z</time>
        <course>236.515054080468</course>
        <speed>3.49476657367463</speed>
      </trkpt>
      <trkpt lat="42.90671" lon="12.54332">
        <ele>344</ele>
        <time>2011-04-08T04:35:34Z</time>
        <course>257.495260936342</course>
        <speed>3.49252571502941</speed>
      </trkpt>
      <trkpt lat="42.90665" lon="12.54389">
        <ele>348</ele>
        <time>2011-04-08T04:35:48Z</time>
        <course>227.625192146712</course>
        <speed>3.49390731873266</speed>
      </trkpt>
      <trkpt lat="42.90652" lon="12.54419">
        <ele>350</ele>
        <time>2011-04-08T04:35:56Z</time>
        <course>212.331079727245</course>
        <speed>4.44931293128548</speed>
      </trkpt>
      <trkpt lat="42.90619" lon="12.54463">
        <ele>352</ele>
        <time>2011-04-08T04:36:07Z</time>
        <course>250.651035635525</course>
        <speed>4.44527855251445</speed>
      </trkpt>
      <trkpt lat="42.90616" lon="12.54481">
        <ele>352</ele>
        <time>2011-04-08T04:36:11Z</time>
        <course>289.341566276361</course>
        <speed>4.45186449368096</speed>
      </trkpt>
      <trkpt lat="42.90618" lon="12.54493">
        <ele>353</ele>
        <time>2011-04-08T04:36:13Z</time>
        <course>314.502451443722</course>
        <speed>4.45419196377938</speed>
      </trkpt>
      <trkpt lat="42.90625" lon="12.54508">
        <ele>353</ele>
        <time>2011-04-08T04:36:16Z</time>
        <course>345.785663722161</course>
        <speed>4.45141480669185</speed>
      </trkpt>
      <trkpt lat="42.9064" lon="12.54516">
        <ele>354</ele>
        <time>2011-04-08T04:36:20Z</time>
        <course>359.484559531402</course>
        <speed>4.44858185485902</speed>
      </trkpt>
      <trkpt lat="42.90852" lon="12.5452">
        <ele>365</ele>
        <time>2011-04-08T04:37:13Z</time>
        <course>350.598575306121</course>
        <speed>3.77548739646446</speed>
      </trkpt>
      <trkpt lat="42.90901" lon="12.54537">
        <ele>368</ele>
        <time>2011-04-08T04:37:28Z</time>
        <course>339.092303128774</course>
        <speed>3.77685129733809</speed>
      </trkpt>
      <trkpt lat="42.90931" lon="12.54561">
        <ele>370</ele>
        <time>2011-04-08T04:37:38Z</time>
        <course>328.445131933086</course>
        <speed>3.77542734928836</speed>
      </trkpt>
      <trkpt lat="42.90945" lon="12.54579">
        <ele>372</ele>
        <time>2011-04-08T04:37:44Z</time>
        <course>325.332263114024</course>
        <speed>2.62320868838222</speed>
      </trkpt>
      <trkpt lat="42.91053" lon="12.54735">
        <ele>391</ele>
        <time>2011-04-08T04:38:51Z</time>
        <course>281.797147192966</course>
        <speed>8.33922147232747</speed>
      </trkpt>
      <trkpt lat="42.91055" lon="12.54755">
        <ele>390</ele>
        <time>2011-04-08T04:38:53Z</time>
        <course>251.507537026393</course>
        <speed>8.33056054462213</speed>
      </trkpt>
      <trkpt lat="42.91051" lon="12.5478">
        <ele>389</ele>
        <time>2011-04-08T04:38:55Z</time>
        <course>213.12108480674</course>
        <speed>8.3054992002102</speed>
      </trkpt>
      <trkpt lat="42.9104" lon="12.54795">
        <ele>389</ele>
        <time>2011-04-08T04:38:57Z</time>
        <course>189.99361129629</course>
        <speed>8.31480615582745</speed>
      </trkpt>
      <trkpt lat="42.91021" lon="12.54802">
        <ele>388</ele>
        <time>2011-04-08T04:39:00Z</time>
        <course>179.625109528333</course>
        <speed>8.32017259276174</speed>
      </trkpt>
      <trkpt lat="42.90948" lon="12.54801">
        <ele>386</ele>
        <time>2011-04-08T04:39:10Z</time>
        <course>187.927618384976</course>
        <speed>4.0763139590893</speed>
      </trkpt>
      <trkpt lat="42.90924" lon="12.54808">
        <ele>387</ele>
        <time>2011-04-08T04:39:16Z</time>
        <course>203.631669680595</course>
        <speed>4.07640441774531</speed>
      </trkpt>
      <trkpt lat="42.90912" lon="12.54819">
        <ele>388</ele>
        <time>2011-04-08T04:39:20Z</time>
        <course>223.663833577989</course>
        <speed>4.07207270194298</speed>
      </trkpt>
      <trkpt lat="42.90902" lon="12.54839">
        <ele>389</ele>
        <time>2011-04-08T04:39:25Z</time>
        <course>266.24554574659</course>
        <speed>4.07311546214487</speed>
      </trkpt>
      <trkpt lat="42.90901" lon="12.54871">
        <ele>390</ele>
        <time>2011-04-08T04:39:31Z</time>
        <course>287.864062943325</course>
        <speed>4.07975807684399</speed>
      </trkpt>
      <trkpt lat="42.90903" lon="12.54884">
        <ele>391</ele>
        <time>2011-04-08T04:39:34Z</time>
        <course>315.489969546006</course>
        <speed>4.07392931978072</speed>
      </trkpt>
      <trkpt lat="42.9092" lon="12.54919">
        <ele>393</ele>
        <time>2011-04-08T04:39:43Z</time>
        <course>321.547210635475</course>
        <speed>3.75706211706906</speed>
      </trkpt>
      <trkpt lat="42.91014" lon="12.55075">
        <ele>403</ele>
        <time>2011-04-08T04:40:26Z</time>
        <course>327.52953740035</course>
        <speed>2.01545219927494</speed>
      </trkpt>
      <trkpt lat="42.91084" lon="12.55168">
        <ele>420</ele>
        <time>2011-04-08T04:41:20Z</time>
        <course>288.244231538658</course>
        <speed>4.48117812310307</speed>
      </trkpt>
      <trkpt lat="42.91087" lon="12.55187">
        <ele>420</ele>
        <time>2011-04-08T04:41:24Z</time>
        <course>266.191305462461</course>
        <speed>4.47829087231897</speed>
      </trkpt>
      <trkpt lat="42.91085" lon="12.5525">
        <ele>422</ele>
        <time>2011-04-08T04:41:35Z</time>
        <course>299.429274983433</course>
        <speed>4.47664737378189</speed>
      </trkpt>
      <trkpt lat="42.91095" lon="12.55287">
        <ele>424</ele>
        <time>2011-04-08T04:41:42Z</time>
        <course>302.364154224756</course>
        <speed>4.4775209696838</speed>
      </trkpt>
      <trkpt lat="42.91133" lon="12.55412">
        <ele>429</ele>
        <time>2011-04-08T04:42:07Z</time>
        <course>306.673347603817</course>
        <speed>2.87446011640242</speed>
      </trkpt>
      <trkpt lat="42.91153" lon="12.55468">
        <ele>433</ele>
        <time>2011-04-08T04:42:25Z</time>
        <course>334.377265289121</course>
        <speed>2.87323669529161</speed>
      </trkpt>
      <trkpt lat="42.91169" lon="12.55484">
        <ele>435</ele>
        <time>2011-04-08T04:42:32Z</time>
        <course>350.604661385833</course>
        <speed>2.87265418126908</speed>
      </trkpt>
      <trkpt lat="42.91198" lon="12.55494">
        <ele>439</ele>
        <time>2011-04-08T04:42:44Z</time>
        <course>357.072713835652</course>
        <speed>2.87354274085461</speed>
      </trkpt>
      <trkpt lat="42.91292" lon="12.55504">
        <ele>449</ele>
        <time>2011-04-08T04:43:20Z</time>
        <course>336.602359192207</course>
        <speed>8.31800710376228</speed>
      </trkpt>
      <trkpt lat="42.91302" lon="12.55513">
        <ele>448</ele>
        <time>2011-04-08T04:43:22Z</time>
        <course>298.689585565113</course>
        <speed>8.29830495739118</speed>
      </trkpt>
      <trkpt lat="42.91307" lon="12.55532">
        <ele>447</ele>
        <time>2011-04-08T04:43:24Z</time>
        <course>250.876476774838</course>
        <speed>8.30024698373247</speed>
      </trkpt>
      <trkpt lat="42.91304" lon="12.5555">
        <ele>447</ele>
        <time>2011-04-08T04:43:26Z</time>
        <course>214.958765727262</course>
        <speed>8.30672729436882</speed>
      </trkpt>
      <trkpt lat="42.91293" lon="12.55566">
        <ele>446</ele>
        <time>2011-04-08T04:43:28Z</time>
        <course>193.888049958201</course>
        <speed>8.31717236650502</speed>
      </trkpt>
      <trkpt lat="42.91165" lon="12.55632">
        <ele>441</ele>
        <time>2011-04-08T04:43:46Z</time>
        <course>216.318249190057</course>
        <speed>8.32691853749469</speed>
      </trkpt>
      <trkpt lat="42.9115" lon="12.55655">
        <ele>441</ele>
        <time>2011-04-08T04:43:49Z</time>
        <course>250.827223070433</course>
        <speed>8.34656097358675</speed>
      </trkpt>
      <trkpt lat="42.91148" lon="12.55667">
        <ele>441</ele>
        <time>2011-04-08T04:43:50Z</time>
        <course>160.701833112105</course>
        <speed>8.3170211417927</speed>
      </trkpt>
      <trkpt lat="42.91122" lon="12.55648">
        <ele>441</ele>
        <time>2011-04-08T04:43:54Z</time>
        <course>48.198598448387</course>
        <speed>8.32012622306459</speed>
      </trkpt>
      <trkpt lat="42.91131" lon="12.55627">
        <ele>441</ele>
        <time>2011-04-08T04:43:57Z</time>
        <course>140.598797903912</course>
        <speed>8.32353625576555</speed>
      </trkpt>
      <trkpt lat="42.91124" lon="12.55615">
        <ele>441</ele>
        <time>2011-04-08T04:43:58Z</time>
        <course>167.714415169184</course>
        <speed>8.31145984122545</speed>
      </trkpt>
      <trkpt lat="42.91113" lon="12.5561">
        <ele>441</ele>
        <time>2011-04-08T04:44:00Z</time>
        <course>167.714415169184</course>
        <speed>8.31145984122545</speed>
      </trkpt>
      <trkpt lat="42.91113" lon="12.5561">
        <ele>441</ele>
        <time>2011-04-08T04:44:01Z</time>
        <course>347.71190064669</course>
        <speed>7.15709041883302</speed>
      </trkpt>
      <trkpt lat="42.91124" lon="12.55615">
        <ele>441</ele>
        <time>2011-04-08T04:44:02Z</time>
        <course>320.592763346445</course>
        <speed>7.17546228945306</speed>
      </trkpt>
      <trkpt lat="42.91131" lon="12.55627">
        <ele>441</ele>
        <time>2011-04-08T04:44:04Z</time>
        <course>228.188037915149</course>
        <speed>7.14870050934791</speed>
      </trkpt>
      <trkpt lat="42.91122" lon="12.55648">
        <ele>441</ele>
        <time>2011-04-08T04:44:07Z</time>
        <course>340.692278787333</course>
        <speed>7.15481731411861</speed>
      </trkpt>
      <trkpt lat="42.91148" lon="12.55667">
        <ele>441</ele>
        <time>2011-04-08T04:44:12Z</time>
        <course>313.907228679206</course>
        <speed>7.14603199793159</speed>
      </trkpt>
      <trkpt lat="42.91154" lon="12.5568">
        <ele>441</ele>
        <time>2011-04-08T04:44:13Z</time>
        <course>335.31149447808</course>
        <speed>7.16094764774655</speed>
      </trkpt>
      <trkpt lat="42.91178" lon="12.55703">
        <ele>442</ele>
        <time>2011-04-08T04:44:18Z</time>
        <course>346.000765941418</course>
        <speed>4.63307897036975</speed>
      </trkpt>
      <trkpt lat="42.91257" lon="12.55744">
        <ele>445</ele>
        <time>2011-04-08T04:44:38Z</time>
        <course>318.770835958572</course>
        <speed>4.63490403852869</speed>
      </trkpt>
      <trkpt lat="42.91274" lon="12.55775">
        <ele>447</ele>
        <time>2011-04-08T04:44:45Z</time>
        <course>274.745934397838</course>
        <speed>8.31679793191439</speed>
      </trkpt>
      <trkpt lat="42.91276" lon="12.55825">
        <ele>447</ele>
        <time>2011-04-08T04:44:50Z</time>
        <course>230.503317118454</course>
        <speed>8.31543040458405</speed>
      </trkpt>
      <trkpt lat="42.91257" lon="12.55873">
        <ele>447</ele>
        <time>2011-04-08T04:44:55Z</time>
        <course>213.084963674791</course>
        <speed>8.32423157160492</speed>
      </trkpt>
      <trkpt lat="42.91229" lon="12.55911">
        <ele>447</ele>
        <time>2011-04-08T04:45:00Z</time>
        <course>197.200938600028</course>
        <speed>8.31859031659167</speed>
      </trkpt>
      <trkpt lat="42.91198" lon="12.55931">
        <ele>443</ele>
        <time>2011-04-08T04:45:05Z</time>
        <course>184.091446293592</course>
        <speed>8.32154492367247</speed>
      </trkpt>
      <trkpt lat="42.91131" lon="12.55941">
        <ele>437</ele>
        <time>2011-04-08T04:45:14Z</time>
        <course>192.666797263006</course>
        <speed>8.32031273325206</speed>
      </trkpt>
      <trkpt lat="42.91082" lon="12.55964">
        <ele>433</ele>
        <time>2011-04-08T04:45:21Z</time>
        <course>197.684859631816</course>
        <speed>8.31786570779024</speed>
      </trkpt>
      <trkpt lat="42.91022" lon="12.56004">
        <ele>429</ele>
        <time>2011-04-08T04:45:30Z</time>
        <course>214.340068788342</course>
        <speed>3.84230450223937</speed>
      </trkpt>
      <trkpt lat="42.91015" lon="12.56014">
        <ele>429</ele>
        <time>2011-04-08T04:45:33Z</time>
        <course>261.786671319786</course>
        <speed>3.84223119951164</speed>
      </trkpt>
      <trkpt lat="42.91013" lon="12.56043">
        <ele>431</ele>
        <time>2011-04-08T04:45:39Z</time>
        <course>306.866796297161</course>
        <speed>3.84218903322661</speed>
      </trkpt>
      <trkpt lat="42.91041" lon="12.56121">
        <ele>435</ele>
        <time>2011-04-08T04:45:57Z</time>
        <course>294.306980829509</course>
        <speed>3.8430469267954</speed>
      </trkpt>
      <trkpt lat="42.91049" lon="12.56158">
        <ele>437</ele>
        <time>2011-04-08T04:46:05Z</time>
        <course>267.130432593399</course>
        <speed>8.32124459369583</speed>
      </trkpt>
      <trkpt lat="42.91047" lon="12.56242">
        <ele>432</ele>
        <time>2011-04-08T04:46:14Z</time>
        <course>311.843089335606</course>
        <speed>8.30276037808713</speed>
      </trkpt>
      <trkpt lat="42.91053" lon="12.56256">
        <ele>431</ele>
        <time>2011-04-08T04:46:15Z</time>
        <course>329.004361945293</course>
        <speed>8.32090500564607</speed>
      </trkpt>
      <trkpt lat="42.91132" lon="12.56355">
        <ele>423</ele>
        <time>2011-04-08T04:46:30Z</time>
        <course>343.946719625381</course>
        <speed>4.1648609041266</speed>
      </trkpt>
      <trkpt lat="42.91167" lon="12.56376">
        <ele>425</ele>
        <time>2011-04-08T04:46:40Z</time>
        <course>4.42556452828259</course>
        <speed>4.16407143626182</speed>
      </trkpt>
      <trkpt lat="42.91198" lon="12.56371">
        <ele>426</ele>
        <time>2011-04-08T04:46:48Z</time>
        <course>15.9788075436306</course>
        <speed>4.16722153730299</speed>
      </trkpt>
      <trkpt lat="42.9125" lon="12.5634">
        <ele>430</ele>
        <time>2011-04-08T04:47:03Z</time>
        <course>355.690816448983</course>
        <speed>3.75634818574671</speed>
      </trkpt>
      <trkpt lat="42.91397" lon="12.56363">
        <ele>440</ele>
        <time>2011-04-08T04:47:47Z</time>
        <course>351.775965152106</course>
        <speed>8.30441426414504</speed>
      </trkpt>
      <trkpt lat="42.91417" lon="12.56369">
        <ele>437</ele>
        <time>2011-04-08T04:47:50Z</time>
        <course>324.143770165388</course>
        <speed>8.35815234109023</speed>
      </trkpt>
      <trkpt lat="42.91421" lon="12.56375">
        <ele>437</ele>
        <time>2011-04-08T04:47:51Z</time>
        <course>280.682421783184</course>
        <speed>8.35245961228524</speed>
      </trkpt>
      <trkpt lat="42.91422" lon="12.56386">
        <ele>436</ele>
        <time>2011-04-08T04:47:52Z</time>
        <course>220.128149077587</course>
        <speed>8.30523772118903</speed>
      </trkpt>
      <trkpt lat="42.9141" lon="12.56407">
        <ele>434</ele>
        <time>2011-04-08T04:47:54Z</time>
        <course>197.497466176916</course>
        <speed>8.32189377366298</speed>
      </trkpt>
      <trkpt lat="42.91352" lon="12.56445">
        <ele>427</ele>
        <time>2011-04-08T04:48:03Z</time>
        <course>219.82022732211</course>
        <speed>8.31355453998567</speed>
      </trkpt>
      <trkpt lat="42.91337" lon="12.56471">
        <ele>425</ele>
        <time>2011-04-08T04:48:06Z</time>
        <course>244.368865176883</course>
        <speed>8.3402257624386</speed>
      </trkpt>
      <trkpt lat="42.91334" lon="12.56484">
        <ele>424</ele>
        <time>2011-04-08T04:48:07Z</time>
        <course>273.247178536368</course>
        <speed>8.3195480401014</speed>
      </trkpt>
      <trkpt lat="42.91337" lon="12.56593">
        <ele>424</ele>
        <time>2011-04-08T04:48:18Z</time>
        <course>236.711367116869</course>
        <speed>8.33605432767354</speed>
      </trkpt>
      <trkpt lat="42.91331" lon="12.56612">
        <ele>424</ele>
        <time>2011-04-08T04:48:20Z</time>
        <course>199.649979336179</course>
        <speed>8.31653511127609</speed>
      </trkpt>
      <trkpt lat="42.91202" lon="12.56708">
        <ele>423</ele>
        <time>2011-04-08T04:48:40Z</time>
        <course>189.637273915489</course>
        <speed>8.32368424278332</speed>
      </trkpt>
      <trkpt lat="42.91154" lon="12.56725">
        <ele>419</ele>
        <time>2011-04-08T04:48:46Z</time>
        <course>202.16496748031</course>
        <speed>8.31070939823616</speed>
      </trkpt>
      <trkpt lat="42.91134" lon="12.56742">
        <ele>417</ele>
        <time>2011-04-08T04:48:50Z</time>
        <course>215.90497180262</course>
        <speed>8.31680717621735</speed>
      </trkpt>
      <trkpt lat="42.91029" lon="12.56901">
        <ele>407</ele>
        <time>2011-04-08T04:49:10Z</time>
        <course>209.723702403342</course>
        <speed>8.31779688495614</speed>
      </trkpt>
      <trkpt lat="42.90993" lon="12.56944">
        <ele>405</ele>
        <time>2011-04-08T04:49:17Z</time>
        <course>190.524526002707</course>
        <speed>8.31885637688974</speed>
      </trkpt>
      <trkpt lat="42.90957" lon="12.56958">
        <ele>404</ele>
        <time>2011-04-08T04:49:22Z</time>
        <course>182.604047607892</course>
        <speed>8.32452074861468</speed>
      </trkpt>
      <trkpt lat="42.90936" lon="12.5696">
        <ele>404</ele>
        <time>2011-04-08T04:49:25Z</time>
        <course>177.048662131738</course>
        <speed>8.31513887464714</speed>
      </trkpt>
      <trkpt lat="42.90862" lon="12.56952">
        <ele>400</ele>
        <time>2011-04-08T04:49:35Z</time>
        <course>169.756577047484</course>
        <speed>8.31806578117861</speed>
      </trkpt>
      <trkpt lat="42.90712" lon="12.56895">
        <ele>392</ele>
        <time>2011-04-08T04:49:55Z</time>
        <course>175.707169071579</course>
        <speed>8.30215846480655</speed>
      </trkpt>
      <trkpt lat="42.90693" lon="12.56892">
        <ele>390</ele>
        <time>2011-04-08T04:49:58Z</time>
        <course>183.976756876679</course>
        <speed>8.31582245795712</speed>
      </trkpt>
      <trkpt lat="42.90652" lon="12.56898">
        <ele>388</ele>
        <time>2011-04-08T04:50:03Z</time>
        <course>188.497818565652</course>
        <speed>8.31810225353723</speed>
      </trkpt>
      <trkpt lat="42.90402" lon="12.56977">
        <ele>372</ele>
        <time>2011-04-08T04:50:38Z</time>
        <course>202.226794113212</course>
        <speed>8.31801080469169</speed>
      </trkpt>
      <trkpt lat="42.9019" lon="12.57161">
        <ele>364</ele>
        <time>2011-04-08T04:51:11Z</time>
        <course>217.383385479159</course>
        <speed>8.31810420358357</speed>
      </trkpt>
      <trkpt lat="42.90091" lon="12.57322">
        <ele>361</ele>
        <time>2011-04-08T04:51:32Z</time>
        <course>239.140162183604</course>
        <speed>8.32282651386271</speed>
      </trkpt>
      <trkpt lat="42.90075" lon="12.57379">
        <ele>358</ele>
        <time>2011-04-08T04:51:38Z</time>
        <course>246.312703396644</course>
        <speed>8.31670333941207</speed>
      </trkpt>
      <trkpt lat="42.90054" lon="12.57481">
        <ele>353</ele>
        <time>2011-04-08T04:51:48Z</time>
        <course>264.055439288063</course>
        <speed>8.31962350622098</speed>
      </trkpt>
      <trkpt lat="42.90047" lon="12.57625">
        <ele>352</ele>
        <time>2011-04-08T04:52:02Z</time>
        <course>252.684133716782</course>
        <speed>6.38523064567116</speed>
      </trkpt>
      <trkpt lat="42.90041" lon="12.57666">
        <ele>352</ele>
        <time>2011-04-08T04:52:08Z</time>
        <course>227.614145223412</course>
        <speed>6.37826260109263</speed>
      </trkpt>
      <trkpt lat="42.90035" lon="12.5768">
        <ele>352</ele>
        <time>2011-04-08T04:52:10Z</time>
        <course>213.545000086575</course>
        <speed>6.38525059770108</speed>
      </trkpt>
      <trkpt lat="42.89941" lon="12.57813">
        <ele>355</ele>
        <time>2011-04-08T04:52:33Z</time>
        <course>204.516917291863</course>
        <speed>8.31192066830809</speed>
      </trkpt>
      <trkpt lat="42.89903" lon="12.5785">
        <ele>353</ele>
        <time>2011-04-08T04:52:40Z</time>
        <course>195.666707144983</course>
        <speed>8.31888499545155</speed>
      </trkpt>
      <trkpt lat="42.89793" lon="12.57916">
        <ele>348</ele>
        <time>2011-04-08T04:52:56Z</time>
        <course>201.571054652688</course>
        <speed>8.31088030293187</speed>
      </trkpt>
      <trkpt lat="42.89767" lon="12.57938">
        <ele>347</ele>
        <time>2011-04-08T04:53:00Z</time>
        <course>205.02045166374</course>
        <speed>8.31371574968991</speed>
      </trkpt>
      <trkpt lat="42.89716" lon="12.57989">
        <ele>346</ele>
        <time>2011-04-08T04:53:08Z</time>
        <course>212.343294774261</course>
        <speed>8.31993985354808</speed>
      </trkpt>
      <trkpt lat="42.89638" lon="12.58095">
        <ele>344</ele>
        <time>2011-04-08T04:53:23Z</time>
        <course>202.389334487541</course>
        <speed>8.3183862521521</speed>
      </trkpt>
      <trkpt lat="42.89292" lon="12.58403">
        <ele>336</ele>
        <time>2011-04-08T04:54:18Z</time>
        <course>192.718015799709</course>
        <speed>5.29335053061661</speed>
      </trkpt>
      <trkpt lat="42.89251" lon="12.58423">
        <ele>337</ele>
        <time>2011-04-08T04:54:27Z</time>
        <course>184.397328027176</course>
        <speed>5.29396670505275</speed>
      </trkpt>
      <trkpt lat="42.89107" lon="12.58447">
        <ele>342</ele>
        <time>2011-04-08T04:54:58Z</time>
        <course>188.344784221759</course>
        <speed>8.31187463957739</speed>
      </trkpt>
      <trkpt lat="42.89063" lon="12.58461">
        <ele>340</ele>
        <time>2011-04-08T04:55:04Z</time>
        <course>191.792397391024</course>
        <speed>8.31860902052459</speed>
      </trkpt>
      <trkpt lat="42.88771" lon="12.58594">
        <ele>334</ele>
        <time>2011-04-08T04:55:45Z</time>
        <course>192.956063489654</course>
        <speed>8.32014006668888</speed>
      </trkpt>
      <trkpt lat="42.88622" lon="12.58669">
        <ele>326</ele>
        <time>2011-04-08T04:56:06Z</time>
        <course>184.180800582476</course>
        <speed>8.32447850734319</speed>
      </trkpt>
      <trkpt lat="42.88597" lon="12.58673">
        <ele>324</ele>
        <time>2011-04-08T04:56:09Z</time>
        <course>178.034067089811</course>
        <speed>8.31982652610692</speed>
      </trkpt>
      <trkpt lat="42.88504" lon="12.58666">
        <ele>321</ele>
        <time>2011-04-08T04:56:22Z</time>
        <course>184.885794332624</course>
        <speed>8.30842793661927</speed>
      </trkpt>
      <trkpt lat="42.88488" lon="12.58669">
        <ele>320</ele>
        <time>2011-04-08T04:56:24Z</time>
        <course>196.900767361763</course>
        <speed>8.31853375742614</speed>
      </trkpt>
      <trkpt lat="42.88473" lon="12.58679">
        <ele>319</ele>
        <time>2011-04-08T04:56:26Z</time>
        <course>224.311192713845</course>
        <speed>8.32168029994826</speed>
      </trkpt>
      <trkpt lat="42.88459" lon="12.58709">
        <ele>318</ele>
        <time>2011-04-08T04:56:30Z</time>
        <course>234.292532229039</course>
        <speed>8.31274784541042</speed>
      </trkpt>
      <trkpt lat="42.88441" lon="12.58764">
        <ele>317</ele>
        <time>2011-04-08T04:56:36Z</time>
        <course>220.050189802859</course>
        <speed>8.32217164953201</speed>
      </trkpt>
      <trkpt lat="42.88428" lon="12.58788">
        <ele>315</ele>
        <time>2011-04-08T04:56:38Z</time>
        <course>206.979227767964</course>
        <speed>8.31862608823913</speed>
      </trkpt>
      <trkpt lat="42.88296" lon="12.58936">
        <ele>303</ele>
        <time>2011-04-08T04:57:01Z</time>
        <course>199.676930681387</course>
        <speed>8.31862066790424</speed>
      </trkpt>
      <trkpt lat="42.88263" lon="12.58962">
        <ele>302</ele>
        <time>2011-04-08T04:57:06Z</time>
        <course>259.930757003969</course>
        <speed>8.3189682349116</speed>
      </trkpt>
      <trkpt lat="42.8823" lon="12.59376">
        <ele>295</ele>
        <time>2011-04-08T04:57:47Z</time>
        <course>272.368351584972</course>
        <speed>8.31768239854708</speed>
      </trkpt>
      <trkpt lat="42.88231" lon="12.59429">
        <ele>294</ele>
        <time>2011-04-08T04:57:52Z</time>
        <course>324.786794914281</course>
        <speed>8.33209971479136</speed>
      </trkpt>
      <trkpt lat="42.8824" lon="12.59443">
        <ele>293</ele>
        <time>2011-04-08T04:57:54Z</time>
        <course>338.02546588188</course>
        <speed>8.32680605742458</speed>
      </trkpt>
      <trkpt lat="42.88267" lon="12.59467">
        <ele>293</ele>
        <time>2011-04-08T04:57:58Z</time>
        <course>345.841176060132</course>
        <speed>8.30591974627168</speed>
      </trkpt>
      <trkpt lat="42.88285" lon="12.59477">
        <ele>293</ele>
        <time>2011-04-08T04:58:01Z</time>
        <course>358.141757559638</course>
        <speed>8.33053119717331</speed>
      </trkpt>
      <trkpt lat="42.88299" lon="12.59478">
        <ele>292</ele>
        <time>2011-04-08T04:58:03Z</time>
        <course>13.7468794603041</course>
        <speed>8.30446231901244</speed>
      </trkpt>
      <trkpt lat="42.88312" lon="12.59471">
        <ele>292</ele>
        <time>2011-04-08T04:58:05Z</time>
        <course>33.2800326304662</course>
        <speed>8.31644894843624</speed>
      </trkpt>
      <trkpt lat="42.88373" lon="12.59383">
        <ele>292</ele>
        <time>2011-04-08T04:58:17Z</time>
        <course>23.66684201908</course>
        <speed>8.3263353523368</speed>
      </trkpt>
      <trkpt lat="42.884" lon="12.59357">
        <ele>292</ele>
        <time>2011-04-08T04:58:21Z</time>
        <course>8.18157088197118</course>
        <speed>8.30292318800645</speed>
      </trkpt>
      <trkpt lat="42.88419" lon="12.59351">
        <ele>292</ele>
        <time>2011-04-08T04:58:24Z</time>
        <course>356.599974418466</course>
        <speed>8.30875718854515</speed>
      </trkpt>
      <trkpt lat="42.88442" lon="12.59354">
        <ele>292</ele>
        <time>2011-04-08T04:58:27Z</time>
        <course>343.09401252244</course>
        <speed>8.31853791392079</speed>
      </trkpt>
      <trkpt lat="42.88487" lon="12.59384">
        <ele>292</ele>
        <time>2011-04-08T04:58:33Z</time>
        <course>337.732497086208</course>
        <speed>4.74535251161675</speed>
      </trkpt>
      <trkpt lat="42.88526" lon="12.59419">
        <ele>293</ele>
        <time>2011-04-08T04:58:44Z</time>
        <course>332.801435978439</course>
        <speed>4.74371272767038</speed>
      </trkpt>
      <trkpt lat="42.88582" lon="12.59482">
        <ele>297</ele>
        <time>2011-04-08T04:59:01Z</time>
        <course>313.320165393501</course>
        <speed>5.59061385273318</speed>
      </trkpt>
      <trkpt lat="42.88607" lon="12.5954">
        <ele>298</ele>
        <time>2011-04-08T04:59:11Z</time>
        <course>308.803334615966</course>
        <speed>5.588738540238</speed>
      </trkpt>
      <trkpt lat="42.88684" lon="12.59749">
        <ele>303</ele>
        <time>2011-04-08T04:59:45Z</time>
        <course>334.420970147261</course>
        <speed>6.51042507881711</speed>
      </trkpt>
      <trkpt lat="42.88706" lon="12.59772">
        <ele>303</ele>
        <time>2011-04-08T04:59:50Z</time>
        <course>351.317898385868</course>
        <speed>6.51154288256055</speed>
      </trkpt>
      <trkpt lat="42.88736" lon="12.59782">
        <ele>303</ele>
        <time>2011-04-08T04:59:55Z</time>
        <course>6.15411544030841</course>
        <speed>6.52009063348555</speed>
      </trkpt>
      <trkpt lat="42.88753" lon="12.59778">
        <ele>304</ele>
        <time>2011-04-08T04:59:58Z</time>
        <course>32.4031725727568</course>
        <speed>6.51194567830247</speed>
      </trkpt>
      <trkpt lat="42.88766" lon="12.5976">
        <ele>304</ele>
        <time>2011-04-08T05:00:01Z</time>
        <course>77.0715148833968</course>
        <speed>6.51164641267921</speed>
      </trkpt>
      <trkpt lat="42.88768" lon="12.59741">
        <ele>304</ele>
        <time>2011-04-08T05:00:04Z</time>
        <course>94.8954101752421</course>
        <speed>6.51487113889283</speed>
      </trkpt>
      <trkpt lat="42.8876" lon="12.59535">
        <ele>307</ele>
        <time>2011-04-08T05:00:30Z</time>
        <course>70.4574726569798</course>
        <speed>4.47725254863041</speed>
      </trkpt>
      <trkpt lat="42.88767" lon="12.59492">
        <ele>308</ele>
        <time>2011-04-08T05:00:38Z</time>
        <course>36.6919781561071</course>
        <speed>4.48040049668163</speed>
      </trkpt>
      <trkpt lat="42.88783" lon="12.59466">
        <ele>309</ele>
        <time>2011-04-08T05:00:44Z</time>
        <course>21.8675403209958</course>
        <speed>4.47440488430818</speed>
      </trkpt>
      <trkpt lat="42.88799" lon="12.59452">
        <ele>310</ele>
        <time>2011-04-08T05:00:48Z</time>
        <course>9.23524107615065</course>
        <speed>4.48000951235327</speed>
      </trkpt>
      <trkpt lat="42.88847" lon="12.59435">
        <ele>313</ele>
        <time>2011-04-08T05:01:01Z</time>
        <course>359.493660988219</course>
        <speed>4.2460055385877</speed>
      </trkpt>
      <trkpt lat="42.88899" lon="12.59436">
        <ele>315</ele>
        <time>2011-04-08T05:01:14Z</time>
        <course>351.259750279713</course>
        <speed>4.24581173386983</speed>
      </trkpt>
      <trkpt lat="42.89085" lon="12.59498">
        <ele>326</ele>
        <time>2011-04-08T05:02:04Z</time>
        <course>337.523080539286</course>
        <speed>3.74320045450801</speed>
      </trkpt>
      <trkpt lat="42.89114" lon="12.59524">
        <ele>328</ele>
        <time>2011-04-08T05:02:15Z</time>
        <course>328.715528808532</course>
        <speed>3.74198115461399</speed>
      </trkpt>
      <trkpt lat="42.89216" lon="12.59658">
        <ele>338</ele>
        <time>2011-04-08T05:02:57Z</time>
        <course>337.650286337952</course>
        <speed>4.51210920643319</speed>
      </trkpt>
      <trkpt lat="42.89234" lon="12.59674">
        <ele>339</ele>
        <time>2011-04-08T05:03:02Z</time>
        <course>349.281006259417</course>
        <speed>4.50897138900936</speed>
      </trkpt>
      <trkpt lat="42.89256" lon="12.59683">
        <ele>340</ele>
        <time>2011-04-08T05:03:08Z</time>
        <course>355.819207088997</course>
        <speed>4.50889364812745</speed>
      </trkpt>
      <trkpt lat="42.89402" lon="12.59706">
        <ele>347</ele>
        <time>2011-04-08T05:03:44Z</time>
        <course>341.061624420436</course>
        <speed>4.10509028800534</speed>
      </trkpt>
      <trkpt lat="42.89425" lon="12.59723">
        <ele>348</ele>
        <time>2011-04-08T05:03:51Z</time>
        <course>314.993648718444</course>
        <speed>4.10747041480725</speed>
      </trkpt>
      <trkpt lat="42.89438" lon="12.59751">
        <ele>349</ele>
        <time>2011-04-08T05:03:58Z</time>
        <course>279.945492528012</course>
        <speed>4.10814363858663</speed>
      </trkpt>
      <trkpt lat="42.89446" lon="12.59849">
        <ele>354</ele>
        <time>2011-04-08T05:04:17Z</time>
        <course>271.74417358093</course>
        <speed>3.63263637531322</speed>
      </trkpt>
      <trkpt lat="42.89447" lon="12.59919">
        <ele>357</ele>
        <time>2011-04-08T05:04:33Z</time>
        <course>242.394602413886</course>
        <speed>3.63133020829529</speed>
      </trkpt>
      <trkpt lat="42.89415" lon="12.60051">
        <ele>365</ele>
        <time>2011-04-08T05:05:04Z</time>
        <course>250.233375757068</course>
        <speed>4.4576454258145</speed>
      </trkpt>
      <trkpt lat="42.89407" lon="12.60099">
        <ele>366</ele>
        <time>2011-04-08T05:05:13Z</time>
        <course>266.054106980758</course>
        <speed>4.46000932430413</speed>
      </trkpt>
      <trkpt lat="42.89397" lon="12.60418">
        <ele>378</ele>
        <time>2011-04-08T05:06:11Z</time>
        <course>252.078516402905</course>
        <speed>4.33926805637275</speed>
      </trkpt>
      <trkpt lat="42.89394" lon="12.60438">
        <ele>378</ele>
        <time>2011-04-08T05:06:15Z</time>
        <course>232.702731485495</course>
        <speed>4.33741674029118</speed>
      </trkpt>
      <trkpt lat="42.89358" lon="12.6054">
        <ele>383</ele>
        <time>2011-04-08T05:06:36Z</time>
        <course>240.083808776122</course>
        <speed>4.3461818094484</speed>
      </trkpt>
      <trkpt lat="42.8935" lon="12.6057">
        <ele>384</ele>
        <time>2011-04-08T05:06:42Z</time>
        <course>261.808229978488</course>
        <speed>4.34814473497062</speed>
      </trkpt>
      <trkpt lat="42.89348" lon="12.606">
        <ele>385</ele>
        <time>2011-04-08T05:06:48Z</time>
        <course>203.699668320722</course>
        <speed>4.34852348329185</speed>
      </trkpt>
      <trkpt lat="42.89329" lon="12.60618">
        <ele>386</ele>
        <time>2011-04-08T05:06:54Z</time>
        <course>287.128915080955</course>
        <speed>4.34360980281799</speed>
      </trkpt>
      <trkpt lat="42.89332" lon="12.60639">
        <ele>387</ele>
        <time>2011-04-08T05:06:58Z</time>
        <course>338.579382802004</course>
        <speed>4.34682430290116</speed>
      </trkpt>
      <trkpt lat="42.89358" lon="12.60661">
        <ele>388</ele>
        <time>2011-04-08T05:07:06Z</time>
        <course>316.933139823717</course>
        <speed>4.34558331571879</speed>
      </trkpt>
      <trkpt lat="42.89448" lon="12.60842">
        <ele>397</ele>
        <time>2011-04-08T05:07:47Z</time>
        <course>334.62920501554</course>
        <speed>3.51005501292211</speed>
      </trkpt>
      <trkpt lat="42.89498" lon="12.60893">
        <ele>401</ele>
        <time>2011-04-08T05:08:06Z</time>
        <course>252.110796584559</course>
        <speed>3.5135592860641</speed>
      </trkpt>
      <trkpt lat="42.89495" lon="12.60913">
        <ele>402</ele>
        <time>2011-04-08T05:08:11Z</time>
        <course>202.893784035007</course>
        <speed>3.51059030461662</speed>
      </trkpt>
      <trkpt lat="42.89462" lon="12.60943">
        <ele>405</ele>
        <time>2011-04-08T05:08:24Z</time>
        <course>247.276738235239</course>
        <speed>3.50941171260038</speed>
      </trkpt>
      <trkpt lat="42.89455" lon="12.60979">
        <ele>408</ele>
        <time>2011-04-08T05:08:32Z</time>
        <course>279.054029457022</course>
        <speed>5.3105894231871</speed>
      </trkpt>
      <trkpt lat="42.89457" lon="12.61006">
        <ele>408</ele>
        <time>2011-04-08T05:08:37Z</time>
        <course>296.754862534422</course>
        <speed>5.30571301471415</speed>
      </trkpt>
      <trkpt lat="42.89472" lon="12.6107">
        <ele>410</ele>
        <time>2011-04-08T05:08:47Z</time>
        <course>318.465207709323</course>
        <speed>5.30869874377307</speed>
      </trkpt>
      <trkpt lat="42.89524" lon="12.61169">
        <ele>413</ele>
        <time>2011-04-08T05:09:06Z</time>
        <course>300.540851463356</course>
        <speed>5.83460269518531</speed>
      </trkpt>
      <trkpt lat="42.89549" lon="12.6126">
        <ele>414</ele>
        <time>2011-04-08T05:09:19Z</time>
        <course>292.377989084718</course>
        <speed>5.83370476266707</speed>
      </trkpt>
      <trkpt lat="42.89563" lon="12.61333">
        <ele>416</ele>
        <time>2011-04-08T05:09:30Z</time>
        <course>256.369251881281</course>
        <speed>8.319169991015</speed>
      </trkpt>
      <trkpt lat="42.89523" lon="12.6169">
        <ele>408</ele>
        <time>2011-04-08T05:10:05Z</time>
        <course>253.487833353959</course>
        <speed>6.03597917901174</speed>
      </trkpt>
      <trkpt lat="42.89488" lon="12.61945">
        <ele>412</ele>
        <time>2011-04-08T05:10:40Z</time>
        <course>293.414144098655</course>
        <speed>8.31589896656403</speed>
      </trkpt>
      <trkpt lat="42.89513" lon="12.62069">
        <ele>409</ele>
        <time>2011-04-08T05:10:53Z</time>
        <course>283.922027227065</course>
        <speed>8.32101655123446</speed>
      </trkpt>
      <trkpt lat="42.89519" lon="12.62121">
        <ele>407</ele>
        <time>2011-04-08T05:10:58Z</time>
        <course>266.572567332485</course>
        <speed>8.30804741252629</speed>
      </trkpt>
      <trkpt lat="42.89518" lon="12.62157">
        <ele>406</ele>
        <time>2011-04-08T05:11:01Z</time>
        <course>225.55899326343</course>
        <speed>8.31739378992313</speed>
      </trkpt>
      <trkpt lat="42.89472" lon="12.62258">
        <ele>403</ele>
        <time>2011-04-08T05:11:13Z</time>
        <course>218.449870589337</course>
        <speed>8.31666985722327</speed>
      </trkpt>
      <trkpt lat="42.89434" lon="12.62323">
        <ele>403</ele>
        <time>2011-04-08T05:11:21Z</time>
        <course>211.20457263949</course>
        <speed>8.32160225540189</speed>
      </trkpt>
      <trkpt lat="42.89372" lon="12.62404">
        <ele>403</ele>
        <time>2011-04-08T05:11:32Z</time>
        <course>215.132689989423</course>
        <speed>4.79788347452737</speed>
      </trkpt>
      <trkpt lat="42.8932" lon="12.62483">
        <ele>406</ele>
        <time>2011-04-08T05:11:50Z</time>
        <course>224.079941437541</course>
        <speed>4.79842567392747</speed>
      </trkpt>
      <trkpt lat="42.89309" lon="12.62506">
        <ele>407</ele>
        <time>2011-04-08T05:11:55Z</time>
        <course>242.782327972706</course>
        <speed>6.78344412083257</speed>
      </trkpt>
      <trkpt lat="42.89299" lon="12.62548">
        <ele>407</ele>
        <time>2011-04-08T05:12:00Z</time>
        <course>266.357319715388</course>
        <speed>6.78958365044273</speed>
      </trkpt>
      <trkpt lat="42.89298" lon="12.62582">
        <ele>407</ele>
        <time>2011-04-08T05:12:05Z</time>
        <course>278.857565216755</course>
        <speed>6.78444306286897</speed>
      </trkpt>
      <trkpt lat="42.89308" lon="12.6272">
        <ele>409</ele>
        <time>2011-04-08T05:12:21Z</time>
        <course>300.476198955057</course>
        <speed>8.3271233879678</speed>
      </trkpt>
      <trkpt lat="42.8932" lon="12.62764">
        <ele>407</ele>
        <time>2011-04-08T05:12:26Z</time>
        <course>316.787922320616</course>
        <speed>8.3209816822899</speed>
      </trkpt>
      <trkpt lat="42.89359" lon="12.62843">
        <ele>403</ele>
        <time>2011-04-08T05:12:35Z</time>
        <course>286.761175630689</course>
        <speed>8.31587759761454</speed>
      </trkpt>
      <trkpt lat="42.8938" lon="12.62993">
        <ele>398</ele>
        <time>2011-04-08T05:12:50Z</time>
        <course>263.680689629398</course>
        <speed>8.30990850003926</speed>
      </trkpt>
      <trkpt lat="42.89378" lon="12.63032">
        <ele>396</ele>
        <time>2011-04-08T05:12:54Z</time>
        <course>235.907601632496</course>
        <speed>8.31766768595445</speed>
      </trkpt>
      <trkpt lat="42.89362" lon="12.63083">
        <ele>395</ele>
        <time>2011-04-08T05:12:59Z</time>
        <course>235.907601632496</course>
        <speed>8.31766768595445</speed>
      </trkpt>
      <trkpt lat="42.89362" lon="12.63083">
        <ele>395</ele>
        <time>2011-04-08T05:13:00Z</time>
        <course>233.022869731884</course>
        <speed>5.44432737160822</speed>
      </trkpt>
      <trkpt lat="42.89324" lon="12.63192">
        <ele>397</ele>
        <time>2011-04-08T05:13:18Z</time>
        <course>240.043925867075</course>
        <speed>5.44707534990544</speed>
      </trkpt>
      <trkpt lat="42.89296" lon="12.63297">
        <ele>400</ele>
        <time>2011-04-08T05:13:35Z</time>
        <course>268.257041078856</course>
        <speed>4.50800517222906</speed>
      </trkpt>
      <trkpt lat="42.89294" lon="12.63442">
        <ele>405</ele>
        <time>2011-04-08T05:14:01Z</time>
        <course>238.848570289687</course>
        <speed>5.45697842077576</speed>
      </trkpt>
      <trkpt lat="42.89268" lon="12.63535">
        <ele>407</ele>
        <time>2011-04-08T05:14:16Z</time>
        <course>257.151386148704</course>
        <speed>5.45843690254872</speed>
      </trkpt>
      <trkpt lat="42.89254" lon="12.63668">
        <ele>410</ele>
        <time>2011-04-08T05:14:36Z</time>
        <course>245.87382982673</course>
        <speed>5.18653425471796</speed>
      </trkpt>
      <trkpt lat="42.8923" lon="12.63784">
        <ele>412</ele>
        <time>2011-04-08T05:14:55Z</time>
        <course>272.936368962656</course>
        <speed>5.19125765497879</speed>
      </trkpt>
      <trkpt lat="42.89231" lon="12.63826">
        <ele>414</ele>
        <time>2011-04-08T05:15:02Z</time>
        <course>292.090919403179</course>
        <speed>4.70512080395791</speed>
      </trkpt>
      <trkpt lat="42.89253" lon="12.63943">
        <ele>417</ele>
        <time>2011-04-08T05:15:23Z</time>
        <course>321.156693648371</course>
        <speed>4.70551617675094</speed>
      </trkpt>
      <trkpt lat="42.89314" lon="12.64049">
        <ele>422</ele>
        <time>2011-04-08T05:15:46Z</time>
        <course>308.170530449457</course>
        <speed>4.82559569432341</speed>
      </trkpt>
      <trkpt lat="42.89349" lon="12.64145">
        <ele>425</ele>
        <time>2011-04-08T05:16:04Z</time>
        <course>314.667134040492</course>
        <speed>4.82145362989609</speed>
      </trkpt>
      <trkpt lat="42.8936" lon="12.64169">
        <ele>426</ele>
        <time>2011-04-08T05:16:09Z</time>
        <course>3.31990807413409</course>
        <speed>8.31689237647371</speed>
      </trkpt>
      <trkpt lat="42.89408" lon="12.64163">
        <ele>420</ele>
        <time>2011-04-08T05:16:15Z</time>
        <course>358.733049111166</course>
        <speed>8.32420524758923</speed>
      </trkpt>
      <trkpt lat="42.8945" lon="12.64165">
        <ele>416</ele>
        <time>2011-04-08T05:16:21Z</time>
        <course>336.08123817803</course>
        <speed>8.30944756809285</speed>
      </trkpt>
      <trkpt lat="42.89472" lon="12.64186">
        <ele>415</ele>
        <time>2011-04-08T05:16:24Z</time>
        <course>316.32687071894</course>
        <speed>8.3157694812964</speed>
      </trkpt>
      <trkpt lat="42.8951" lon="12.64264">
        <ele>413</ele>
        <time>2011-04-08T05:16:34Z</time>
        <course>330.204599278196</course>
        <speed>8.31223360124319</speed>
      </trkpt>
      <trkpt lat="42.89536" lon="12.64296">
        <ele>411</ele>
        <time>2011-04-08T05:16:38Z</time>
        <course>339.369730245439</course>
        <speed>8.31510924609587</speed>
      </trkpt>
      <trkpt lat="42.89583" lon="12.64334">
        <ele>408</ele>
        <time>2011-04-08T05:16:45Z</time>
        <course>355.559566468295</course>
        <speed>8.32650434548225</speed>
      </trkpt>
      <trkpt lat="42.89619" lon="12.6434">
        <ele>407</ele>
        <time>2011-04-08T05:16:50Z</time>
        <course>16.24817860207</course>
        <speed>8.31386973736111</speed>
      </trkpt>
      <trkpt lat="42.89659" lon="12.64315">
        <ele>402</ele>
        <time>2011-04-08T05:16:56Z</time>
        <course>21.1294119313369</course>
        <speed>8.31792121034125</speed>
      </trkpt>
      <trkpt lat="42.8982" lon="12.64182">
        <ele>384</ele>
        <time>2011-04-08T05:17:21Z</time>
        <course>360</course>
        <speed>8.32682170547429</speed>
      </trkpt>
      <trkpt lat="42.89849" lon="12.64182">
        <ele>383</ele>
        <time>2011-04-08T05:17:25Z</time>
        <course>345.409602338397</course>
        <speed>8.31474974293688</speed>
      </trkpt>
      <trkpt lat="42.89912" lon="12.64217">
        <ele>381</ele>
        <time>2011-04-08T05:17:34Z</time>
        <course>355.767596576983</course>
        <speed>8.30217234801012</speed>
      </trkpt>
      <trkpt lat="42.89931" lon="12.6422">
        <ele>380</ele>
        <time>2011-04-08T05:17:37Z</time>
        <course>3.72700049484265</course>
        <speed>8.32499293850575</speed>
      </trkpt>
      <trkpt lat="42.89967" lon="12.64215">
        <ele>378</ele>
        <time>2011-04-08T05:17:42Z</time>
        <course>7.19060704574507</course>
        <speed>8.32000897618631</speed>
      </trkpt>
      <trkpt lat="42.90034" lon="12.64197">
        <ele>376</ele>
        <time>2011-04-08T05:17:51Z</time>
        <course>9.45980047928235</course>
        <speed>8.31749546013219</speed>
      </trkpt>
      <trkpt lat="42.9013" lon="12.64163">
        <ele>370</ele>
        <time>2011-04-08T05:18:04Z</time>
        <course>14.0253935574543</course>
        <speed>8.31694763723593</speed>
      </trkpt>
      <trkpt lat="42.90196" lon="12.64128">
        <ele>363</ele>
        <time>2011-04-08T05:18:14Z</time>
        <course>10.9799317789087</course>
        <speed>8.32531682568929</speed>
      </trkpt>
      <trkpt lat="42.90213" lon="12.64121">
        <ele>361</ele>
        <time>2011-04-08T05:18:16Z</time>
        <course>360</course>
        <speed>8.31510204099476</speed>
      </trkpt>
      <trkpt lat="42.90235" lon="12.64121">
        <ele>360</ele>
        <time>2011-04-08T05:18:19Z</time>
        <course>355.331371054584</course>
        <speed>8.32070407880071</speed>
      </trkpt>
      <trkpt lat="42.90287" lon="12.6413">
        <ele>355</ele>
        <time>2011-04-08T05:18:26Z</time>
        <course>1.08173945409265</course>
        <speed>8.32093476235827</speed>
      </trkpt>
      <trkpt lat="42.90312" lon="12.64129">
        <ele>353</ele>
        <time>2011-04-08T05:18:29Z</time>
        <course>16.4596520060569</course>
        <speed>8.31684724746361</speed>
      </trkpt>
      <trkpt lat="42.90384" lon="12.64084">
        <ele>347</ele>
        <time>2011-04-08T05:18:40Z</time>
        <course>12.6951332350687</course>
        <speed>8.32121845716744</speed>
      </trkpt>
      <trkpt lat="42.90426" lon="12.64064">
        <ele>345</ele>
        <time>2011-04-08T05:18:46Z</time>
        <course>4.7735490504338</course>
        <speed>8.31771429158406</speed>
      </trkpt>
      <trkpt lat="42.90443" lon="12.64061">
        <ele>344</ele>
        <time>2011-04-08T05:18:48Z</time>
        <course>1.69557229486184</course>
        <speed>8.31673902963909</speed>
      </trkpt>
      <trkpt lat="42.90491" lon="12.64058">
        <ele>343</ele>
        <time>2011-04-08T05:18:54Z</time>
        <course>347.366902247067</course>
        <speed>8.31313228026208</speed>
      </trkpt>
      <trkpt lat="42.90546" lon="12.64084">
        <ele>340</ele>
        <time>2011-04-08T05:19:02Z</time>
        <course>337.044560750763</course>
        <speed>8.31692927066181</speed>
      </trkpt>
      <trkpt lat="42.90574" lon="12.64109">
        <ele>339</ele>
        <time>2011-04-08T05:19:07Z</time>
        <course>327.353321895233</course>
        <speed>8.31238985725538</speed>
      </trkpt>
      <trkpt lat="42.90594" lon="12.64136">
        <ele>337</ele>
        <time>2011-04-08T05:19:10Z</time>
        <course>316.922606973882</course>
        <speed>8.3199719598284</speed>
      </trkpt>
      <trkpt lat="42.90626" lon="12.64199">
        <ele>335</ele>
        <time>2011-04-08T05:19:18Z</time>
        <course>310.415971623321</course>
        <speed>8.31879071314779</speed>
      </trkpt>
      <trkpt lat="42.9066" lon="12.64283">
        <ele>333</ele>
        <time>2011-04-08T05:19:27Z</time>
        <course>333.47409454573</course>
        <speed>8.32006379134668</speed>
      </trkpt>
      <trkpt lat="42.90742" lon="12.64369">
        <ele>331</ele>
        <time>2011-04-08T05:19:41Z</time>
        <course>312.590364701604</course>
        <speed>8.33441975027909</speed>
      </trkpt>
      <trkpt lat="42.90749" lon="12.64385">
        <ele>330</ele>
        <time>2011-04-08T05:19:43Z</time>
        <course>296.660972188469</course>
        <speed>8.32063641736329</speed>
      </trkpt>
      <trkpt lat="42.90777" lon="12.64502">
        <ele>326</ele>
        <time>2011-04-08T05:19:55Z</time>
        <course>272.299695746465</course>
        <speed>8.31774731383024</speed>
      </trkpt>
      <trkpt lat="42.90778" lon="12.64554">
        <ele>321</ele>
        <time>2011-04-08T05:20:00Z</time>
        <course>252.251432673393</course>
        <speed>8.32184492449675</speed>
      </trkpt>
      <trkpt lat="42.90764" lon="12.64646">
        <ele>313</ele>
        <time>2011-04-08T05:20:09Z</time>
        <course>297.697429473593</course>
        <speed>8.31423587806936</speed>
      </trkpt>
      <trkpt lat="42.90772" lon="12.64678">
        <ele>311</ele>
        <time>2011-04-08T05:20:13Z</time>
        <course>320.905560686218</course>
        <speed>8.32827364038192</speed>
      </trkpt>
      <trkpt lat="42.90789" lon="12.64707">
        <ele>309</ele>
        <time>2011-04-08T05:20:16Z</time>
        <course>331.038379101855</course>
        <speed>8.31303867225602</speed>
      </trkpt>
      <trkpt lat="42.9082" lon="12.64743">
        <ele>306</ele>
        <time>2011-04-08T05:20:22Z</time>
        <course>343.817922575937</course>
        <speed>8.32815122820258</speed>
      </trkpt>
      <trkpt lat="42.90843" lon="12.64757">
        <ele>305</ele>
        <time>2011-04-08T05:20:25Z</time>
        <course>360</course>
        <speed>8.31800383882834</speed>
      </trkpt>
      <trkpt lat="42.90882" lon="12.64757">
        <ele>305</ele>
        <time>2011-04-08T05:20:30Z</time>
        <course>14.0998980808328</course>
        <speed>8.31883047232409</speed>
      </trkpt>
      <trkpt lat="42.90901" lon="12.64747">
        <ele>305</ele>
        <time>2011-04-08T05:20:33Z</time>
        <course>14.0998980808328</course>
        <speed>8.31883047232409</speed>
      </trkpt>
      <trkpt lat="42.90901" lon="12.64747">
        <ele>305</ele>
        <time>2011-04-08T05:20:34Z</time>
        <course>24.1181004071101</course>
        <speed>8.31102580454529</speed>
      </trkpt>
      <trkpt lat="42.90933" lon="12.64717">
        <ele>303</ele>
        <time>2011-04-08T05:20:39Z</time>
        <course>44.7291835970474</course>
        <speed>8.31752906607533</speed>
      </trkpt>
      <trkpt lat="42.91004" lon="12.6457">
        <ele>297</ele>
        <time>2011-04-08T05:20:56Z</time>
        <course>67.7169686576905</course>
        <speed>6.28201206479299</speed>
      </trkpt>
      <trkpt lat="42.91014" lon="12.64519">
        <ele>297</ele>
        <time>2011-04-08T05:21:03Z</time>
        <course>90.0249079603825</course>
        <speed>6.28493845978995</speed>
      </trkpt>
      <trkpt lat="42.91014" lon="12.6442">
        <ele>299</ele>
        <time>2011-04-08T05:21:16Z</time>
        <course>48.9484100507484</course>
        <speed>8.32309612396021</speed>
      </trkpt>
      <trkpt lat="42.91029" lon="12.64384">
        <ele>297</ele>
        <time>2011-04-08T05:21:20Z</time>
        <course>20.0990122939766</course>
        <speed>8.32751117004731</speed>
      </trkpt>
      <trkpt lat="42.91046" lon="12.64371">
        <ele>296</ele>
        <time>2011-04-08T05:21:23Z</time>
        <course>3.37448857765201</course>
        <speed>8.31661264738121</speed>
      </trkpt>
      <trkpt lat="42.91111" lon="12.64363">
        <ele>293</ele>
        <time>2011-04-08T05:21:31Z</time>
        <course>351.162148541126</course>
        <speed>8.31858447981942</speed>
      </trkpt>
      <trkpt lat="42.91148" lon="12.64375">
        <ele>289</ele>
        <time>2011-04-08T05:21:36Z</time>
        <course>336.542441837814</course>
        <speed>8.30669651430298</speed>
      </trkpt>
      <trkpt lat="42.91169" lon="12.64394">
        <ele>287</ele>
        <time>2011-04-08T05:21:40Z</time>
        <course>330.876947824515</course>
        <speed>8.31842517163884</speed>
      </trkpt>
      <trkpt lat="42.91347" lon="12.646">
        <ele>268</ele>
        <time>2011-04-08T05:22:11Z</time>
        <course>334.298969002979</course>
        <speed>8.31155127054507</speed>
      </trkpt>
      <trkpt lat="42.91361" lon="12.64614">
        <ele>267</ele>
        <time>2011-04-08T05:22:13Z</time>
        <course>351.940730495821</course>
        <speed>8.32917478491536</speed>
      </trkpt>
      <trkpt lat="42.91378" lon="12.64619">
        <ele>266</ele>
        <time>2011-04-08T05:22:16Z</time>
        <course>14.5362111509991</course>
        <speed>8.30390399301214</speed>
      </trkpt>
      <trkpt lat="42.91391" lon="12.64612">
        <ele>266</ele>
        <time>2011-04-08T05:22:18Z</time>
        <course>32.9672806428728</course>
        <speed>8.31375264889011</speed>
      </trkpt>
      <trkpt lat="42.91417" lon="12.64577">
        <ele>264</ele>
        <time>2011-04-08T05:22:22Z</time>
        <course>35.661523965925</course>
        <speed>8.31811163971615</speed>
      </trkpt>
      <trkpt lat="42.91493" lon="12.64464">
        <ele>261</ele>
        <time>2011-04-08T05:22:37Z</time>
        <course>45.6261993840171</course>
        <speed>8.31959444399076</speed>
      </trkpt>
      <trkpt lat="42.9151" lon="12.64428">
        <ele>259</ele>
        <time>2011-04-08T05:22:42Z</time>
        <course>84.0948597264281</course>
        <speed>8.32343422160713</speed>
      </trkpt>
      <trkpt lat="42.91512" lon="12.64388">
        <ele>258</ele>
        <time>2011-04-08T05:22:46Z</time>
        <course>118.565703444568</course>
        <speed>8.31921208111641</speed>
      </trkpt>
      <trkpt lat="42.91469" lon="12.64224">
        <ele>254</ele>
        <time>2011-04-08T05:23:03Z</time>
        <course>81.868393255761</course>
        <speed>8.31748349338325</speed>
      </trkpt>
      <trkpt lat="42.91471" lon="12.64195">
        <ele>252</ele>
        <time>2011-04-08T05:23:05Z</time>
        <course>38.7980330593881</course>
        <speed>8.31655427051884</speed>
      </trkpt>
      <trkpt lat="42.91483" lon="12.64175">
        <ele>251</ele>
        <time>2011-04-08T05:23:08Z</time>
        <course>9.13640845250465</course>
        <speed>8.32887467857873</speed>
      </trkpt>
      <trkpt lat="42.91498" lon="12.6417">
        <ele>250</ele>
        <time>2011-04-08T05:23:10Z</time>
        <course>351.762557976552</course>
        <speed>8.3044083069574</speed>
      </trkpt>
      <trkpt lat="42.91508" lon="12.64173">
        <ele>249</ele>
        <time>2011-04-08T05:23:11Z</time>
        <course>343.740830097363</course>
        <speed>8.31776797580398</speed>
      </trkpt>
      <trkpt lat="42.91659" lon="12.64264">
        <ele>238</ele>
        <time>2011-04-08T05:23:33Z</time>
        <course>348.275260086182</course>
        <speed>8.31890189419318</speed>
      </trkpt>
      <trkpt lat="42.91701" lon="12.64282">
        <ele>234</ele>
        <time>2011-04-08T05:23:39Z</time>
        <course>352.881656932558</course>
        <speed>8.32024271847477</speed>
      </trkpt>
      <trkpt lat="42.91767" lon="12.64299">
        <ele>230</ele>
        <time>2011-04-08T05:23:48Z</time>
        <course>355.498593876298</course>
        <speed>8.32227191910903</speed>
      </trkpt>
      <trkpt lat="42.91841" lon="12.64311">
        <ele>225</ele>
        <time>2011-04-08T05:23:58Z</time>
        <course>1.23806913423803</course>
        <speed>8.31761905316587</speed>
      </trkpt>
      <trkpt lat="42.91931" lon="12.64307">
        <ele>220</ele>
        <time>2011-04-08T05:24:10Z</time>
        <course>342.705732141352</course>
        <speed>8.31429395437172</speed>
      </trkpt>
      <trkpt lat="42.91956" lon="12.64323">
        <ele>218</ele>
        <time>2011-04-08T05:24:14Z</time>
        <course>318.759722739387</course>
        <speed>8.31850361640614</speed>
      </trkpt>
      <trkpt lat="42.9205" lon="12.64492">
        <ele>213</ele>
        <time>2011-04-08T05:24:35Z</time>
        <course>315.442231272777</course>
        <speed>8.31894944441485</speed>
      </trkpt>
      <trkpt lat="42.92243" lon="12.6488">
        <ele>207</ele>
        <time>2011-04-08T05:25:21Z</time>
        <course>334.761690637249</course>
        <speed>8.31516531107311</speed>
      </trkpt>
      <trkpt lat="42.92297" lon="12.64932">
        <ele>206</ele>
        <time>2011-04-08T05:25:29Z</time>
        <course>339.816732408957</course>
        <speed>8.32070598538278</speed>
      </trkpt>
      <trkpt lat="42.92369" lon="12.64986">
        <ele>205</ele>
        <time>2011-04-08T05:25:40Z</time>
        <course>309.955536844323</course>
        <speed>7.66189192088202</speed>
      </trkpt>
      <trkpt lat="42.92399" lon="12.65059">
        <ele>205</ele>
        <time>2011-04-08T05:25:49Z</time>
        <course>314.410424665895</course>
        <speed>7.66446571444163</speed>
      </trkpt>
      <trkpt lat="42.92597" lon="12.65469">
        <ele>207</ele>
        <time>2011-04-08T05:26:41Z</time>
        <course>307.549886999885</course>
        <speed>8.31906359696649</speed>
      </trkpt>
      <trkpt lat="42.92693" lon="12.65722">
        <ele>207</ele>
        <time>2011-04-08T05:27:09Z</time>
        <course>315.790088194865</course>
        <speed>8.31839254674757</speed>
      </trkpt>
      <trkpt lat="42.9276" lon="12.65854">
        <ele>206</ele>
        <time>2011-04-08T05:27:25Z</time>
        <course>324.994257578084</course>
        <speed>6.84596830116006</speed>
      </trkpt>
      <trkpt lat="42.92934" lon="12.661">
        <ele>209</ele>
        <time>2011-04-08T05:28:06Z</time>
        <course>332.284894328139</course>
        <speed>8.31936753259457</speed>
      </trkpt>
      <trkpt lat="42.93018" lon="12.66189">
        <ele>209</ele>
        <time>2011-04-08T05:28:20Z</time>
        <course>329.834682458483</course>
        <speed>6.97672486646359</speed>
      </trkpt>
      <trkpt lat="42.9316" lon="12.66355">
        <ele>211</ele>
        <time>2011-04-08T05:28:50Z</time>
        <course>317.895963729365</course>
        <speed>8.32025667297563</speed>
      </trkpt>
      <trkpt lat="42.93241" lon="12.66502">
        <ele>210</ele>
        <time>2011-04-08T05:29:08Z</time>
        <course>320.7515664502</course>
        <speed>5.62416566111061</speed>
      </trkpt>
      <trkpt lat="42.93313" lon="12.6662">
        <ele>213</ele>
        <time>2011-04-08T05:29:30Z</time>
        <course>324.762997434225</course>
        <speed>8.31776184345751</speed>
      </trkpt>
      <trkpt lat="42.93446" lon="12.66808">
        <ele>213</ele>
        <time>2011-04-08T05:29:55Z</time>
        <course>311.658640892123</course>
        <speed>7.75152499281419</speed>
      </trkpt>
      <trkpt lat="42.93454" lon="12.66826">
        <ele>213</ele>
        <time>2011-04-08T05:29:58Z</time>
        <course>295.091173289535</course>
        <speed>7.76456534992332</speed>
      </trkpt>
      <trkpt lat="42.93465" lon="12.66873">
        <ele>213</ele>
        <time>2011-04-08T05:30:03Z</time>
        <course>289.870879042637</course>
        <speed>7.76465570115299</speed>
      </trkpt>
      <trkpt lat="42.93698" lon="12.68139">
        <ele>217</ele>
        <time>2011-04-08T05:32:20Z</time>
        <course>299.923844337767</course>
        <speed>8.32032109938078</speed>
      </trkpt>
      <trkpt lat="42.93711" lon="12.68184">
        <ele>217</ele>
        <time>2011-04-08T05:32:24Z</time>
        <course>313.809730931717</course>
        <speed>8.31939893701652</speed>
      </trkpt>
      <trkpt lat="42.93724" lon="12.68211">
        <ele>217</ele>
        <time>2011-04-08T05:32:27Z</time>
        <course>328.003571067653</course>
        <speed>8.315726163263</speed>
      </trkpt>
      <trkpt lat="42.93765" lon="12.68262">
        <ele>217</ele>
        <time>2011-04-08T05:32:35Z</time>
        <course>231.459793727021</course>
        <speed>8.35146492585458</speed>
      </trkpt>
      <trkpt lat="42.93761" lon="12.68272">
        <ele>217</ele>
        <time>2011-04-08T05:32:36Z</time>
        <course>206.657860382763</course>
        <speed>8.32956980584934</speed>
      </trkpt>
      <trkpt lat="42.93746" lon="12.68287">
        <ele>217</ele>
        <time>2011-04-08T05:32:38Z</time>
        <course>192.850011135392</course>
        <speed>8.31110777787774</speed>
      </trkpt>
      <trkpt lat="42.93724" lon="12.68297">
        <ele>217</ele>
        <time>2011-04-08T05:32:42Z</time>
        <course>166.716021299195</course>
        <speed>8.32502105613457</speed>
      </trkpt>
      <trkpt lat="42.93707" lon="12.68289">
        <ele>217</ele>
        <time>2011-04-08T05:32:44Z</time>
        <course>139.81549650526</course>
        <speed>8.31705228419135</speed>
      </trkpt>
      <trkpt lat="42.93688" lon="12.68257">
        <ele>217</ele>
        <time>2011-04-08T05:32:48Z</time>
        <course>139.81549650526</course>
        <speed>8.31705228419135</speed>
      </trkpt>
      <trkpt lat="42.93688" lon="12.68257">
        <ele>217</ele>
        <time>2011-04-08T05:32:49Z</time>
        <course>319.799635453286</course>
        <speed>7.43186711868983</speed>
      </trkpt>
      <trkpt lat="42.93707" lon="12.68289">
        <ele>217</ele>
        <time>2011-04-08T05:32:53Z</time>
        <course>346.712056450144</course>
        <speed>7.42752807982267</speed>
      </trkpt>
      <trkpt lat="42.93724" lon="12.68297">
        <ele>217</ele>
        <time>2011-04-08T05:32:56Z</time>
        <course>12.8549666359986</course>
        <speed>7.42490896582738</speed>
      </trkpt>
      <trkpt lat="42.93746" lon="12.68287">
        <ele>217</ele>
        <time>2011-04-08T05:33:00Z</time>
        <course>26.6652928354499</course>
        <speed>7.43069536636919</speed>
      </trkpt>
      <trkpt lat="42.93761" lon="12.68272">
        <ele>217</ele>
        <time>2011-04-08T05:33:02Z</time>
        <course>51.4647484221389</course>
        <speed>7.41610085415887</speed>
      </trkpt>
      <trkpt lat="42.93765" lon="12.68262">
        <ele>217</ele>
        <time>2011-04-08T05:33:04Z</time>
        <course>335.493541434841</course>
        <speed>7.42947193519502</speed>
      </trkpt>
      <trkpt lat="42.93808" lon="12.68301">
        <ele>218</ele>
        <time>2011-04-08T05:33:11Z</time>
        <course>315.884197207315</course>
        <speed>7.37414306145295</speed>
      </trkpt>
      <trkpt lat="42.93822" lon="12.68328">
        <ele>218</ele>
        <time>2011-04-08T05:33:15Z</time>
        <course>3.38558562437301</course>
        <speed>7.37756236366532</speed>
      </trkpt>
      <trkpt lat="42.93839" lon="12.68326">
        <ele>218</ele>
        <time>2011-04-08T05:33:18Z</time>
        <course>347.735800219636</course>
        <speed>7.37559249559597</speed>
      </trkpt>
      <trkpt lat="42.93934" lon="12.68367">
        <ele>219</ele>
        <time>2011-04-08T05:33:33Z</time>
        <course>327.095197958315</course>
        <speed>8.31786566575591</speed>
      </trkpt>
      <trkpt lat="42.94275" lon="12.68802">
        <ele>219</ele>
        <time>2011-04-08T05:34:35Z</time>
        <course>276.81363236874</course>
        <speed>7.56608401420278</speed>
      </trkpt>
      <trkpt lat="42.94277" lon="12.68835">
        <ele>219</ele>
        <time>2011-04-08T05:34:38Z</time>
        <course>322.761219894988</course>
        <speed>7.57025523102413</speed>
      </trkpt>
      <trkpt lat="42.94287" lon="12.6885">
        <ele>219</ele>
        <time>2011-04-08T05:34:41Z</time>
        <course>344.735206252064</course>
        <speed>7.57429946513517</speed>
      </trkpt>
      <trkpt lat="42.943" lon="12.68857">
        <ele>219</ele>
        <time>2011-04-08T05:34:43Z</time>
        <course>4.82935642386335</course>
        <speed>7.54678452055047</speed>
      </trkpt>
      <trkpt lat="42.94312" lon="12.68855">
        <ele>219</ele>
        <time>2011-04-08T05:34:44Z</time>
        <course>23.2214648396949</course>
        <speed>7.55212326722944</speed>
      </trkpt>
      <trkpt lat="42.94325" lon="12.68844">
        <ele>219</ele>
        <time>2011-04-08T05:34:47Z</time>
        <course>43.5580221524875</course>
        <speed>7.54818425731355</speed>
      </trkpt>
      <trkpt lat="42.94333" lon="12.68829">
        <ele>219</ele>
        <time>2011-04-08T05:34:49Z</time>
        <course>347.607661655545</course>
        <speed>7.56677395935717</speed>
      </trkpt>
      <trkpt lat="42.94588" lon="12.68939">
        <ele>221</ele>
        <time>2011-04-08T05:35:28Z</time>
        <course>326.588208332634</course>
        <speed>7.20190216730297</speed>
      </trkpt>
      <trkpt lat="42.94841" lon="12.69265">
        <ele>224</ele>
        <time>2011-04-08T05:36:22Z</time>
        <course>338.175985538377</course>
        <speed>6.38914242329178</speed>
      </trkpt>
      <trkpt lat="42.94864" lon="12.69283">
        <ele>224</ele>
        <time>2011-04-08T05:36:26Z</time>
        <course>352.619853796174</course>
        <speed>6.39124038117375</speed>
      </trkpt>
      <trkpt lat="42.94955" lon="12.69306">
        <ele>226</ele>
        <time>2011-04-08T05:36:42Z</time>
        <course>346.687153200495</course>
        <speed>7.83940268289759</speed>
      </trkpt>
      <trkpt lat="42.94981" lon="12.69318">
        <ele>226</ele>
        <time>2011-04-08T05:36:46Z</time>
        <course>327.202397022113</course>
        <speed>7.83823285781243</speed>
      </trkpt>
      <trkpt lat="42.95024" lon="12.69372">
        <ele>226</ele>
        <time>2011-04-08T05:36:55Z</time>
        <course>322.136231485089</course>
        <speed>7.83801066918745</speed>
      </trkpt>
      <trkpt lat="42.95163" lon="12.69582">
        <ele>227</ele>
        <time>2011-04-08T05:37:24Z</time>
        <course>315.839895574847</course>
        <speed>5.75234572848287</speed>
      </trkpt>
      <trkpt lat="42.95207" lon="12.69665">
        <ele>228</ele>
        <time>2011-04-08T05:37:38Z</time>
        <course>310.213677789838</course>
        <speed>5.75174403700714</speed>
      </trkpt>
      <trkpt lat="42.95251" lon="12.69766">
        <ele>231</ele>
        <time>2011-04-08T05:37:55Z</time>
        <course>301.702005479293</course>
        <speed>8.30228630980933</speed>
      </trkpt>
      <trkpt lat="42.95258" lon="12.69788">
        <ele>230</ele>
        <time>2011-04-08T05:37:57Z</time>
        <course>269.990423302565</course>
        <speed>8.32519147329609</speed>
      </trkpt>
      <trkpt lat="42.95258" lon="12.69827">
        <ele>230</ele>
        <time>2011-04-08T05:38:01Z</time>
        <course>202.392241595225</course>
        <speed>8.36152281967829</speed>
      </trkpt>
      <trkpt lat="42.95253" lon="12.69831">
        <ele>230</ele>
        <time>2011-04-08T05:38:02Z</time>
        <course>255.481434870017</course>
        <speed>8.32241218545491</speed>
      </trkpt>
      <trkpt lat="42.95251" lon="12.69846">
        <ele>230</ele>
        <time>2011-04-08T05:38:03Z</time>
        <course>324.20547728267</course>
        <speed>8.28640053706901</speed>
      </trkpt>
      <trkpt lat="42.95256" lon="12.69853">
        <ele>230</ele>
        <time>2011-04-08T05:38:04Z</time>
        <course>360</course>
        <speed>8.33400000055311</speed>
      </trkpt>
      <trkpt lat="42.95265" lon="12.69853">
        <ele>230</ele>
        <time>2011-04-08T05:38:06Z</time>
        <course>45.8577942858087</course>
        <speed>8.32365521032635</speed>
      </trkpt>
      <trkpt lat="42.95271" lon="12.69841">
        <ele>230</ele>
        <time>2011-04-08T05:38:07Z</time>
        <course>27.9783897780306</course>
        <speed>8.31679316218305</speed>
      </trkpt>
      <trkpt lat="42.95338" lon="12.69772">
        <ele>230</ele>
        <time>2011-04-08T05:38:18Z</time>
        <course>21.5736862585753</course>
        <speed>8.3211355765971</speed>
      </trkpt>
      <trkpt lat="42.95436" lon="12.69697">
        <ele>230</ele>
        <time>2011-04-08T05:38:33Z</time>
        <course>21.5736862585753</course>
        <speed>8.3211355765971</speed>
      </trkpt>
    </trkseg>
  </trk>
</gpx>